GFSWCAN_sfc_thetae_000.txt.gz
Theta_e
306 306 305 305 306 306 306 306 306 305 305 305 305 305 305 306 309 312 310 311 307 300 301 305 304 299 299 297 292 297 294 292 285 283 279 279 277 283 282 285 284 283 278 276 275 270 276 290 291 287 291 290 293 293
305 305 304 305 305 305 305 305 306 307 305 304 303 303 304 306 309 312 311 314 310 304 303 306 307 306 305 303 299 295 296 295 292 286 278 283 283 285 279 280 288 283 284 281 282 282 289 291 292 293 293 292 293 293
304 304 305 305 305 305 305 305 304 305 302 304 305 306 306 307 309 312 310 306 304 298 300 303 302 308 310 307 306 298 294 299 294 292 285 280 279 283 281 282 282 288 290 283 286 290 291 292 294 295 296 295 295 295
304 304 304 304 304 304 304 304 302 303 305 305 306 307 307 308 309 310 308 305 301 295 289 296 306 305 309 310 307 304 301 298 295 292 285 286 280 287 279 285 283 288 291 288 286 291 291 294 295 296 297 297 296 296
304 303 304 304 304 304 303 302 302 304 305 306 306 307 307 308 309 309 306 305 305 300 290 291 301 304 306 307 305 304 302 298 293 287 284 285 282 286 287 285 284 291 289 285 285 292 291 292 294 296 296 297 296 295
304 303 303 303 303 302 302 302 303 304 304 305 305 306 307 307 307 300 297 305 306 303 296 290 296 298 302 304 304 303 302 297 295 292 285 287 292 288 286 284 292 294 295 294 292 293 294 294 296 297 297 296 296 293
303 303 303 303 303 302 301 302 303 304 304 305 305 306 306 306 306 299 294 301 304 301 293 289 288 294 297 300 297 298 299 297 295 291 286 284 289 290 286 281 294 295 297 297 297 296 294 294 296 296 297 294 289 287
302 302 302 302 303 303 302 301 302 303 305 305 305 305 306 306 305 303 304 303 303 297 293 286 286 288 297 290 290 296 291 295 294 290 290 287 290 288 287 291 293 296 297 297 297 297 295 296 291 287 287 287 286 286
300 300 301 302 302 303 302 301 302 304 305 304 304 305 305 303 301 303 303 303 303 299 289 288 286 286 295 291 290 291 293 287 293 289 289 291 286 287 289 289 291 293 293 294 294 294 293 287 286 287 287 287 286 285
300 300 300 301 301 302 302 301 303 305 305 303 302 297 293 299 304 303 300 294 293 292 294 287 291 288 296 287 287 288 287 287 287 289 292 287 287 289 288 289 290 291 293 294 290 287 286 286 286 288 287 287 286 287
300 300 301 301 302 302 303 303 303 304 304 298 294 292 299 302 298 291 287 287 291 289 291 290 288 288 294 289 288 287 286 286 285 285 288 285 285 284 285 286 288 289 290 289 290 290 291 290 288 287 287 287 287 287
301 300 300 300 301 301 302 302 302 300 297 297 299 298 295 292 289 287 285 287 288 286 287 289 289 292 289 292 289 287 286 285 284 287 285 282 283 283 286 287 289 290 289 289 290 289 289 290 290 288 287 285 283 282
300 300 300 300 300 301 301 301 301 301 299 295 292 287 291 287 286 285 284 285 285 285 287 286 287 286 289 290 287 286 285 284 286 284 283 283 286 290 291 289 287 289 289 289 289 289 287 284 283 282 282 281 281 282
299 299 299 300 300 300 300 300 300 298 296 289 287 285 285 284 283 282 284 284 285 285 285 286 285 286 285 286 285 285 284 284 282 277 275 284 288 289 286 286 285 284 285 286 284 283 282 282 281 280 280 280 278 280
299 299 299 298 299 300 299 298 297 295 290 285 285 280 281 283 284 284 285 285 285 287 286 286 285 287 285 284 283 282 278 275 274 273 283 285 288 288 283 283 283 283 280 282 283 281 280 279 278 279 279 277 279 279
298 297 296 298 299 299 299 295 291 288 283 284 284 282 283 284 284 285 285 285 288 286 286 286 284 283 281 282 279 276 275 273 279 284 285 287 286 285 286 285 285 286 285 285 284 282 281 278 278 280 279 277 276 275
297 292 297 298 298 297 297 290 286 284 283 285 283 285 284 285 284 285 285 287 288 286 283 282 279 278 282 277 278 282 279 282 285 285 286 287 287 285 286 286 284 284 285 284 282 283 281 278 277 278 280 283 280 279
290 292 297 298 296 293 290 286 281 282 283 283 282 283 284 285 285 285 285 285 283 285 283 279 283 274 272 272 273 281 283 281 282 283 283 284 285 285 285 284 284 284 284 281 280 281 279 279 280 280 280 281 279 279
293 294 296 296 293 286 284 285 284 278 281 283 283 283 283 284 284 284 285 285 282 279 279 275 273 273 274 276 276 285 283 284 280 280 280 283 283 283 284 285 284 283 282 282 281 280 280 281 280 280 279 280 280 281
296 295 295 294 293 283 282 281 285 281 281 282 283 282 282 282 283 284 285 285 282 278 276 274 275 276 276 276 276 277 284 285 278 275 277 279 283 283 282 282 281 281 280 281 281 280 279 279 278 279 277 277 277 277
291 291 292 288 284 284 282 281 281 282 283 281 281 282 280 282 282 282 283 284 284 282 277 276 270 274 282 281 278 278 281 280 279 277 277 280 280 280 279 278 278 278 277 276 276 276 275 275 274 272 270 270 272 275
288 292 282 285 282 285 281 283 283 282 282 281 281 281 279 279 279 281 282 281 281 281 280 278 278 282 283 281 281 283 282 282 282 281 279 278 277 277 275 274 274 273 273 272 272 267 266 270 269 268 267 268 271 272
290 286 281 280 275 273 277 285 281 278 279 277 281 279 278 278 279 281 278 281 281 283 284 284 282 282 281 280 280 280 280 278 276 275 275 276 275 274 272 270 269 266 267 269 269 267 265 264 265 264 265 266 266 266
288 280 276 275 275 269 281 279 281 280 279 272 271 273 274 277 279 277 276 278 281 282 282 282 281 279 279 277 276 275 277 278 276 274 275 276 273 272 271 269 267 266 265 266 265 262 262 259 261 263 262 263 263 264
273 277 276 275 279 268 273 274 276 277 275 267 275 268 273 272 274 273 274 274 278 278 279 281 280 279 275 274 274 274 274 276 274 270 270 270 267 267 267 267 265 266 264 260 259 259 259 259 260 260 261 261 262 264
270 274 276 276 276 275 266 267 270 275 274 269 269 271 269 268 266 269 273 274 277 276 277 277 276 274 274 275 273 271 271 272 272 268 268 267 265 259 257 257 258 259 262 255 256 255 258 259 258 257 259 261 262 260
269 270 275 281 279 277 271 270 272 274 272 274 273 273 274 269 270 272 276 275 275 275 276 277 277 274 272 270 269 268 267 268 268 267 267 266 266 264 258 254 255 259 260 258 253 253 255 258 258 258 260 261 256 258
273 278 271 270 276 276 275 271 270 273 276 277 274 272 272 271 269 272 273 275 274 273 271 270 270 269 267 266 265 264 266 266 265 265 263 262 261 256 255 254 255 262 255 252 250 254 254 258 259 260 260 258 253 251
275 277 277 272 272 274 274 272 273 276 279 278 274 271 269 269 267 267 270 272 272 270 267 266 265 265 265 264 262 260 258 256 256 254 252 250 250 254 253 250 250 252 251 250 257 261 261 262 259 254 252 253 255 254
275 272 271 266 271 270 275 273 274 274 275 273 273 271 268 265 267 268 268 268 266 263 262 261 260 261 257 257 254 255 253 250 251 253 250 249 252 253 248 250 251 253 252 250 251 252 255 251 252 250 249 249 248 247
278 278 276 274 271 276 275 279 280 280 278 271 271 267 264 262 264 265 263 263 262 262 260 255 254 249 252 251 250 250 252 251 249 252 252 251 250 248 248 250 250 249 247 245 245 246 247 246 245 245 246 247 247 246
276 273 269 268 268 270 269 269 265 267 271 273 267 263 258 258 256 260 260 258 258 255 254 248 251 253 252 251 248 248 253 250 250 249 250 251 251 249 249 250 247 245 245 245 245 245 245 245 245 244 244 244 244 245
263 263 263 264 268 268 261 259 257 261 267 267 259 258 256 258 257 259 261 257 257 255 253 251 251 251 251 250 251 249 252 249 248 256 259 261 260 258 257 251 248 245 245 245 244 243 245 245 245 244 244 243 243 244

GFSWCAN_sfc_thetae_003.txt.gz
Theta_e
306 305 305 305 305 306 306 305 305 305 305 305 305 305 306 307 309 313 311 312 309 303 304 307 304 300 300 300 296 299 298 297 291 289 288 287 287 288 288 289 287 287 285 282 279 280 282 292 295 292 298 297 297 297
305 305 305 305 305 305 305 305 305 304 304 302 303 305 307 307 309 311 311 314 312 306 305 308 309 309 309 305 301 299 301 298 297 291 287 286 286 286 284 287 290 287 289 288 287 288 294 295 297 299 298 297 298 298
304 304 304 304 304 304 304 305 304 303 304 305 305 306 307 309 309 312 312 309 307 302 304 306 305 310 310 309 310 301 297 301 297 296 290 287 287 287 286 286 288 291 291 289 290 293 292 294 297 298 299 299 299 300
304 304 304 304 304 303 302 302 304 304 305 305 306 306 308 309 309 311 310 307 305 299 291 299 308 306 309 310 309 307 302 299 297 295 289 287 288 290 286 290 289 292 292 290 290 293 295 296 298 300 301 300 300 300
303 303 303 303 302 301 301 303 304 305 306 306 307 308 307 308 310 311 309 308 306 305 293 295 303 304 306 307 304 304 302 300 296 292 288 290 288 289 288 289 288 293 292 291 291 297 297 297 298 299 300 301 302 300
303 303 303 301 302 302 302 303 304 304 305 305 306 307 308 307 306 306 303 307 305 304 298 292 298 299 302 305 304 303 302 299 298 296 290 291 293 292 287 288 295 295 297 298 297 298 298 299 299 301 301 302 301 299
303 303 302 301 301 302 302 303 304 304 304 305 306 306 307 306 307 299 298 303 303 303 296 290 291 297 298 301 299 300 301 298 298 293 289 290 292 293 287 288 296 296 298 299 299 299 298 299 300 299 297 291 290 289
302 302 302 302 301 300 301 302 304 304 304 304 305 305 305 305 305 304 305 304 303 298 295 288 288 291 298 293 292 297 294 297 295 292 291 290 291 291 289 292 293 294 296 298 298 300 299 293 290 288 289 289 288 289
301 301 302 302 302 301 301 303 304 304 304 303 304 304 305 304 301 303 304 302 303 299 290 287 288 288 296 292 291 293 295 289 294 290 291 294 287 287 287 287 288 290 291 293 292 289 289 288 287 288 289 288 287 287
301 301 301 301 301 301 301 303 303 303 303 303 303 299 293 300 303 303 300 295 294 293 295 287 291 289 296 288 288 289 290 287 288 290 293 288 288 286 285 287 288 289 290 294 293 287 287 287 287 287 288 289 288 288
300 301 301 302 302 302 302 302 302 303 304 300 296 294 300 302 299 291 288 288 291 287 292 290 289 290 295 290 289 289 287 287 286 288 289 287 284 284 287 288 289 289 290 291 291 291 291 290 288 287 288 289 289 290
301 300 300 300 301 301 301 301 302 300 298 299 299 299 296 293 289 288 286 287 286 285 288 289 289 293 290 295 290 288 287 286 285 289 286 284 282 284 288 288 289 290 291 291 292 291 291 290 291 290 290 289 287 285
300 300 300 300 300 301 300 300 300 300 299 297 293 289 292 288 284 280 284 286 285 286 287 286 287 287 290 291 287 287 286 286 287 285 284 282 284 289 288 288 288 289 290 290 290 290 289 286 285 283 284 284 284 284
299 299 299 299 300 299 299 299 299 298 295 287 287 284 283 285 284 284 285 285 285 285 286 286 286 287 286 287 285 286 284 285 283 281 280 283 287 286 288 288 289 289 286 286 285 285 284 283 282 282 282 282 281 283
298 298 298 298 299 299 298 297 297 295 290 286 286 280 281 283 285 285 285 285 286 287 287 286 286 287 285 285 284 284 281 278 278 279 284 285 286 285 284 285 285 285 281 284 286 284 281 280 279 282 281 281 282 281
298 296 294 297 298 298 298 295 293 291 287 286 284 283 284 284 284 285 285 285 288 286 286 286 284 284 282 283 282 280 279 276 280 284 286 287 286 287 287 286 286 287 287 287 285 283 283 281 281 282 282 282 280 280
295 290 296 297 298 297 296 291 288 286 285 284 283 285 285 285 284 285 285 286 288 286 284 284 282 280 283 279 279 283 280 283 285 286 288 289 287 287 287 287 284 285 286 285 284 284 282 280 280 281 280 281 281 282
290 292 296 297 295 293 290 287 284 285 283 283 283 283 285 285 285 285 285 286 286 286 284 281 284 279 275 274 278 283 283 284 285 286 287 287 286 286 286 285 285 285 284 282 282 282 281 280 279 279 279 279 280 280
293 294 295 295 293 287 285 285 284 280 282 283 283 283 284 284 284 285 285 285 284 281 282 278 276 277 278 280 281 281 284 285 283 283 283 283 284 284 285 285 284 283 281 281 281 280 280 279 278 277 276 275 275 276
295 295 294 294 293 284 283 282 285 282 281 283 283 282 282 282 283 284 285 286 284 280 279 277 277 278 279 280 280 282 286 287 284 281 281 282 283 282 281 281 281 281 280 279 278 276 276 276 274 273 272 272 271 272
290 291 291 288 285 284 284 282 281 282 283 282 282 282 281 283 282 282 283 284 284 283 280 279 279 281 282 282 282 284 284 283 281 282 282 279 279 278 277 277 277 276 275 274 272 270 270 270 270 270 269 269 269 270
288 291 283 286 280 281 281 283 283 281 283 282 280 282 280 280 280 281 282 282 282 281 282 282 283 284 283 281 281 281 281 281 281 281 280 279 277 275 272 272 272 271 270 270 270 267 267 268 268 267 267 267 268 268
289 284 279 277 276 275 278 282 281 280 272 273 276 274 275 279 279 281 279 282 281 283 284 283 281 281 279 280 279 279 279 278 277 277 276 275 273 271 270 269 268 267 267 267 268 267 266 263 265 264 265 265 266 266
287 279 272 269 270 272 281 278 281 280 280 276 274 268 271 271 275 275 273 276 281 282 282 281 280 278 278 277 275 276 278 277 274 272 275 274 271 270 270 268 266 266 265 265 264 263 263 262 261 263 262 262 263 264
272 277 273 272 273 268 273 274 276 277 275 275 272 267 273 275 270 268 269 274 276 277 278 281 279 277 274 274 273 273 274 276 272 269 269 270 269 268 267 267 266 265 264 262 261 260 260 261 261 261 261 262 262 263
267 278 276 276 275 275 270 269 272 275 276 268 269 270 271 272 268 268 272 272 275 275 276 277 275 273 272 274 272 271 270 273 271 267 267 267 265 263 263 261 261 262 263 261 259 259 259 259 260 260 261 262 261 261
267 276 278 281 279 278 269 268 272 273 268 268 272 272 270 270 269 271 275 274 274 273 273 274 275 273 271 270 269 269 269 269 269 268 267 266 265 264 262 260 259 262 262 261 258 257 257 258 259 260 261 263 261 259
277 279 272 270 272 275 270 269 269 271 274 277 275 270 269 269 271 270 271 274 272 271 270 269 269 268 267 267 267 267 267 266 265 265 264 263 262 261 260 260 259 261 258 257 257 258 259 259 260 261 261 260 259 259
273 273 272 269 270 272 272 272 271 274 277 274 271 268 268 268 267 267 269 271 272 270 267 266 265 266 264 263 261 260 261 262 262 258 257 258 258 261 260 258 258 258 257 256 259 261 262 263 263 260 258 258 258 258
271 275 269 266 270 269 275 274 277 272 274 272 272 270 267 266 266 267 268 267 266 264 264 263 263 265 261 261 259 259 257 256 258 259 259 258 258 259 257 257 257 257 256 256 256 256 258 257 258 256 255 255 255 255
276 276 276 274 274 276 277 277 280 279 271 268 268 266 264 264 264 265 263 262 262 262 263 261 259 254 258 257 258 257 258 258 253 255 256 256 256 257 257 256 256 255 254 254 254 254 254 255 254 253 254 253 252 252
266 267 265 266 267 267 267 264 267 270 271 271 263 262 261 260 259 262 262 260 261 261 257 256 259 258 255 255 254 255 256 257 256 255 254 255 257 256 256 256 253 253 254 254 253 253 252 253 253 252 252 252 251 251
264 263 265 264 270 270 264 261 258 260 263 265 260 258 258 259 258 261 261 259 260 259 259 258 257 255 254 254 255 256 254 255 253 255 257 258 256 258 258 256 256 253 252 253 253 252 252 252 253 252 251 250 250 250

GFSWCAN_sfc_thetae_006.txt.gz
Theta_e
302 300 303 305 305 305 305 305 305 306 305 305 306 306 306 308 309 318 321 322 321 314 310 311 311 308 307 311 307 306 305 305 304 301 302 299 297 297 295 295 293 293 292 291 288 288 287 297 299 295 301 305 304 304
301 304 304 304 305 305 305 305 305 305 304 305 305 306 306 307 309 315 320 321 323 317 313 316 314 314 314 316 312 309 309 307 309 304 301 299 292 290 295 294 296 293 297 297 295 296 299 301 304 305 304 304 305 305
304 304 304 304 304 304 304 304 303 303 303 304 304 306 306 308 309 315 321 320 320 316 312 314 311 315 317 316 318 310 309 310 307 308 305 302 292 299 291 296 296 298 298 297 295 298 300 301 303 304 305 304 306 306
303 303 303 303 303 303 303 302 303 304 305 304 304 306 306 308 310 315 319 317 320 314 299 309 314 312 315 316 315 315 312 309 307 309 305 296 297 300 298 298 299 300 298 297 297 300 301 302 304 304 305 307 307 307
303 302 301 302 302 303 304 304 304 304 305 305 305 307 307 309 310 316 317 316 316 315 304 308 310 311 313 312 311 313 312 310 309 305 297 302 300 299 298 298 298 299 299 297 297 301 302 302 304 305 305 306 307 306
301 301 301 302 302 303 304 303 304 304 305 306 307 308 309 309 311 321 309 316 313 317 312 304 308 307 310 312 311 310 310 309 310 308 302 301 299 303 293 297 301 301 303 303 301 303 303 305 306 307 306 303 303 302
301 301 301 301 302 303 303 304 304 305 306 306 306 306 306 307 315 312 309 310 306 312 311 302 304 306 306 309 307 310 311 308 311 305 300 302 301 303 293 297 299 299 300 303 305 305 303 303 300 299 298 295 295 296
302 302 300 301 302 303 303 303 303 303 305 305 305 306 306 306 309 312 312 307 305 309 311 300 298 303 306 303 300 303 302 309 302 299 296 296 297 300 296 297 296 297 298 301 298 302 302 297 294 293 295 297 294 291
302 301 301 300 301 302 303 303 303 303 303 304 305 306 313 309 311 312 304 304 313 311 303 301 298 294 304 296 298 301 304 294 299 295 296 300 292 292 289 290 293 294 294 295 295 296 294 291 291 291 291 291 289 289
301 301 301 301 302 302 302 302 303 304 303 304 310 308 303 306 303 305 308 308 306 304 302 291 297 294 300 294 294 296 299 292 293 295 297 294 290 288 288 290 292 294 296 299 296 292 291 290 291 291 290 290 290 290
300 301 301 301 301 301 302 302 302 304 307 309 305 301 309 303 308 301 297 297 299 295 296 294 295 294 299 295 292 295 290 293 288 294 292 291 287 288 291 291 292 294 295 295 295 294 294 292 290 291 291 292 293 293
301 300 300 300 301 301 301 301 303 306 306 306 306 305 305 301 299 291 289 293 293 291 292 294 293 296 295 299 295 292 290 290 287 294 290 287 286 287 288 289 291 293 294 294 295 293 293 294 294 294 292 290 287 287
299 300 300 300 300 300 300 300 300 301 301 306 301 294 298 292 287 289 285 287 288 289 288 289 289 293 296 298 291 293 289 288 294 288 287 286 287 288 289 290 291 293 294 294 293 292 290 289 288 287 287 286 287 288
298 298 298 299 299 299 299 299 299 300 302 293 290 287 288 287 287 286 287 287 286 287 289 291 288 293 289 290 289 290 286 287 284 284 284 284 287 289 290 293 293 292 289 289 289 288 288 286 286 286 285 285 285 285
298 297 297 297 299 298 298 298 297 300 295 289 291 283 284 285 286 285 285 287 287 289 290 291 290 292 287 286 286 285 284 284 285 285 285 287 287 290 291 291 290 291 287 288 291 288 286 287 286 286 285 285 285 284
297 298 295 297 298 298 297 297 295 295 290 288 287 285 285 285 285 285 285 285 289 288 290 290 286 285 284 286 285 284 284 283 285 286 286 287 288 290 289 289 290 290 290 291 289 288 287 285 284 285 284 283 283 283
296 294 295 297 297 296 297 295 295 289 288 287 285 285 285 285 285 285 285 286 289 287 285 287 285 283 286 285 283 287 284 286 286 287 288 290 291 291 292 291 289 289 289 288 287 286 284 283 283 282 281 281 281 282
293 295 296 296 298 297 295 293 291 288 284 285 285 284 286 286 286 286 287 288 291 289 289 285 287 284 284 282 284 286 286 287 288 289 290 289 289 289 291 289 289 288 286 284 283 282 282 282 281 280 279 279 280 280
294 295 295 295 296 295 291 290 291 284 284 286 286 286 286 286 288 288 288 289 289 291 290 288 286 285 286 289 285 284 285 287 287 287 286 288 288 288 287 286 285 284 283 282 282 282 281 279 278 278 277 277 277 278
294 295 294 294 297 293 287 287 293 287 284 284 286 284 285 285 286 287 288 290 291 291 288 286 286 287 287 287 289 292 292 291 290 287 284 284 285 284 284 284 282 282 282 280 278 278 279 278 277 276 275 275 275 274
295 294 293 295 293 291 286 286 286 286 286 284 285 286 285 287 286 286 286 288 289 287 286 283 283 284 284 284 286 288 287 289 291 290 287 281 282 282 281 281 280 280 279 278 276 275 274 274 274 274 274 274 273 275
293 292 292 291 288 287 286 287 286 288 287 286 287 287 285 285 285 285 287 287 284 284 285 285 285 285 284 282 282 284 284 284 284 282 281 281 279 277 276 277 278 276 275 275 275 273 273 272 271 272 272 272 272 273
291 291 288 286 283 283 281 289 283 283 281 282 285 282 283 284 285 287 283 285 284 286 287 284 282 283 281 281 281 281 282 281 280 279 277 276 276 276 275 274 274 273 273 272 272 272 271 268 270 269 271 271 271 272
290 284 279 280 281 277 283 280 282 281 282 280 278 278 280 282 284 283 280 280 280 283 283 282 282 280 280 279 277 277 278 278 277 278 277 276 274 273 273 272 271 270 269 270 270 269 269 269 267 269 269 269 269 269
280 279 280 276 280 278 276 277 278 279 277 278 277 279 280 281 280 277 276 277 279 279 281 282 281 279 277 276 276 275 276 277 275 272 273 274 273 272 271 270 270 269 269 268 267 267 267 267 267 267 267 268 266 266
276 280 278 278 278 278 276 275 275 277 277 276 277 279 281 280 275 273 275 277 278 277 277 279 278 276 274 275 274 273 273 275 274 270 270 271 270 270 269 269 269 269 268 267 266 265 265 266 265 265 266 267 266 265
276 277 280 283 281 280 279 278 278 279 276 276 279 278 278 273 273 274 277 276 276 275 275 275 277 276 274 272 271 271 271 272 272 270 270 269 269 269 268 266 265 266 267 266 265 265 264 264 264 265 266 267 267 265
279 280 277 280 279 281 277 278 277 277 279 281 280 275 274 275 274 273 274 275 275 274 273 272 272 272 272 271 272 271 270 270 269 269 269 268 268 267 266 267 266 264 264 264 264 264 265 265 265 266 265 264 264 265
280 282 281 274 277 279 278 278 278 280 281 281 279 276 273 271 271 272 273 274 276 275 273 271 270 270 269 268 268 268 269 270 268 266 265 267 267 267 267 266 266 265 265 264 264 264 264 265 265 264 263 263 263 263
280 281 279 276 275 276 279 281 281 282 279 278 276 273 271 270 270 271 272 273 272 270 269 269 270 271 269 270 268 267 266 267 266 266 265 264 265 266 265 265 264 264 264 263 263 263 263 263 263 264 262 262 262 261
281 282 280 279 278 280 279 279 282 281 278 275 273 273 269 269 269 269 268 268 269 270 270 269 267 267 268 267 267 267 266 266 263 263 263 264 264 264 265 264 264 263 263 262 262 262 261 261 262 260 260 259 258 258
277 274 275 275 277 277 276 276 275 277 277 275 270 270 268 269 266 268 267 269 269 268 263 266 267 266 265 265 264 265 259 264 264 263 262 263 264 265 264 264 263 262 262 261 261 260 260 259 260 259 259 258 257 256
274 275 275 275 275 274 273 273 271 271 271 270 267 267 267 267 264 266 267 267 267 266 266 266 266 266 264 262 264 265 261 265 261 261 260 260 259 260 262 264 263 262 260 260 260 260 259 258 259 258 257 256 256 256

GFSWCAN_sfc_thetae_009.txt.gz
Theta_e
302 302 302 302 302 303 303 304 304 305 305 305 306 306 306 307 307 313 325 329 317 309 312 312 310 308 308 309 309 311 308 309 309 303 303 302 300 301 298 299 297 295 295 293 295 289 287 301 301 296 303 306 305 306
302 300 300 300 301 302 303 304 305 305 304 305 305 305 306 306 307 310 322 328 330 314 316 319 320 320 317 316 314 313 311 311 312 308 306 308 297 294 300 294 302 296 300 299 297 298 303 304 303 306 306 305 305 305
300 300 299 299 300 303 304 304 304 304 304 304 304 305 306 307 307 312 326 326 324 319 315 314 313 318 320 321 324 312 316 316 314 319 312 310 296 305 294 300 301 302 302 299 298 300 301 303 305 306 306 306 307 308
301 302 303 304 304 304 304 304 304 304 304 304 305 305 306 307 307 310 325 328 321 317 307 312 318 315 318 320 320 321 319 318 316 316 313 300 300 307 304 303 302 303 302 299 299 302 302 303 305 306 307 308 309 310
302 302 302 303 303 303 303 303 302 303 303 304 305 306 306 307 309 318 324 322 325 317 306 311 315 315 317 318 317 318 317 314 312 309 300 306 307 305 305 304 301 303 299 299 298 303 304 304 307 309 307 307 308 307
302 302 302 303 303 303 303 304 304 304 304 304 305 306 307 308 311 321 317 320 319 324 314 306 314 311 315 317 316 316 316 316 315 312 307 308 306 307 297 299 303 305 305 306 303 307 307 307 308 305 303 302 301 300
301 302 303 303 304 304 304 304 304 304 304 304 305 306 308 309 321 314 310 314 311 323 314 306 307 311 312 314 314 314 316 314 315 311 309 308 306 306 298 298 302 302 302 305 306 307 306 302 300 301 300 300 298 297
301 301 302 302 303 303 304 305 305 305 305 306 306 307 307 307 307 315 310 306 308 315 315 303 302 308 312 309 307 312 312 314 308 305 305 305 304 306 299 301 300 300 302 303 301 304 301 300 299 298 298 295 292 291
301 301 301 302 302 303 302 303 304 305 305 306 307 307 317 316 316 312 303 305 315 312 307 305 298 296 309 302 304 307 312 301 305 297 301 304 295 296 296 296 297 298 298 299 300 299 298 296 294 293 293 292 290 290
300 301 300 301 302 302 302 302 303 303 304 306 315 312 309 312 303 306 306 309 310 311 307 295 305 298 306 300 296 300 299 297 294 298 302 297 296 294 294 296 298 299 301 301 296 294 295 294 292 292 291 292 293 293
300 300 300 300 301 301 302 303 304 307 308 315 309 301 311 305 311 306 300 302 303 298 299 297 299 299 304 297 293 297 294 296 291 297 295 293 290 292 295 296 297 298 299 299 298 297 296 294 293 292 292 293 292 291
301 300 299 299 300 300 300 301 305 311 311 309 310 310 310 306 302 293 292 295 297 293 294 295 295 299 298 305 297 297 291 293 289 298 292 289 289 291 291 292 295 297 297 296 296 295 294 294 294 291 290 289 288 287
299 299 299 299 299 299 300 300 300 301 305 313 305 297 300 295 290 288 286 289 288 291 291 292 291 297 298 300 295 295 288 291 297 291 290 290 289 289 290 292 294 296 296 295 294 293 291 290 289 289 288 285 287 289
298 298 298 299 299 299 299 299 300 305 306 297 293 288 290 287 287 286 288 287 287 288 292 294 292 294 293 291 291 289 287 292 287 285 287 288 288 289 291 293 294 293 291 291 290 290 289 287 286 285 285 286 285 285
298 297 298 297 298 298 298 299 300 303 298 289 292 285 285 286 286 286 286 287 288 291 293 295 295 297 290 289 289 288 285 286 287 286 287 287 288 290 292 293 293 289 288 291 292 288 287 288 286 285 284 284 284 284
298 299 297 297 298 298 298 299 299 297 293 289 287 285 286 286 285 285 285 285 289 290 294 295 289 288 286 288 287 286 287 286 286 287 288 288 289 291 292 291 293 293 291 292 291 289 286 284 284 284 284 283 284 283
298 297 296 297 297 298 298 298 296 290 289 288 286 285 286 285 285 285 286 286 289 288 285 288 286 284 288 286 285 288 286 287 285 286 289 290 291 291 292 292 290 292 292 290 288 285 284 284 285 283 282 282 282 282
297 298 296 297 300 300 297 297 293 291 285 288 286 285 288 287 286 287 288 291 292 290 289 287 289 286 285 284 285 287 287 287 288 289 289 290 293 293 294 292 291 290 286 285 285 284 284 284 283 283 281 281 281 281
294 296 295 297 300 299 292 291 294 285 286 287 287 288 288 288 290 291 291 294 294 294 292 290 288 286 286 288 286 286 287 287 286 288 289 291 292 291 291 289 287 287 285 285 285 285 283 281 281 281 280 279 279 279
295 295 295 296 299 295 288 289 295 288 285 286 288 286 288 288 290 288 289 293 293 293 288 286 284 284 284 284 286 289 290 291 289 287 286 287 288 287 286 286 285 284 283 282 281 281 282 281 280 279 278 277 277 276
296 295 296 299 296 293 288 289 288 288 287 285 288 288 287 290 288 287 289 293 290 288 284 284 284 285 285 285 286 288 287 291 291 290 288 284 285 285 284 284 284 284 283 282 280 279 278 277 277 276 277 277 276 277
294 294 296 295 291 289 288 291 288 290 288 287 287 289 286 285 286 287 290 288 284 283 285 285 284 286 284 282 282 284 285 286 285 284 284 284 282 281 281 282 281 279 278 278 277 276 276 275 274 274 275 275 275 276
294 294 292 290 285 285 283 290 284 284 282 283 287 283 284 284 285 290 284 285 283 285 286 284 283 283 283 283 282 281 283 282 281 279 279 278 278 278 278 277 278 277 276 274 275 275 274 272 273 273 274 274 274 274
292 287 283 283 284 279 285 281 285 284 285 282 281 280 280 282 285 284 280 280 281 283 284 283 284 282 282 281 279 279 280 280 279 279 279 278 276 275 275 274 274 273 273 273 274 273 273 273 271 273 272 272 272 271
283 281 284 280 284 281 280 280 281 282 279 280 279 280 280 283 280 278 277 278 279 279 281 282 281 281 280 279 278 276 278 278 276 274 275 276 275 275 274 273 272 272 272 272 271 271 271 271 271 270 270 270 269 269
278 281 280 280 280 280 279 278 278 278 279 279 279 282 282 281 277 275 276 277 278 278 278 279 281 279 277 278 277 276 275 277 277 274 273 274 274 274 273 273 273 272 271 271 270 269 269 269 268 268 268 269 269 268
277 278 282 284 282 281 280 281 282 280 278 278 280 279 279 275 275 275 278 277 277 277 278 278 279 278 276 275 275 275 275 275 274 273 273 273 272 272 271 270 268 269 270 269 268 268 267 267 267 267 268 269 269 268
281 282 278 280 281 282 279 280 280 279 280 281 281 277 276 276 274 275 276 277 277 277 276 276 275 276 275 275 275 275 274 274 273 273 273 273 272 272 270 271 269 266 268 268 267 266 267 267 267 267 268 267 266 267
281 283 282 277 280 280 280 279 279 281 282 281 280 278 275 274 274 275 275 277 279 279 276 275 274 275 273 273 273 273 274 273 272 268 268 270 271 271 270 269 269 269 269 268 267 267 267 266 266 266 265 265 266 266
281 282 281 279 278 277 280 283 282 282 282 281 280 276 274 273 272 275 275 275 274 273 273 273 274 274 272 273 271 270 271 270 268 268 267 267 267 268 268 268 268 268 267 267 266 267 267 266 266 267 266 265 265 264
282 283 281 281 279 280 280 282 283 282 281 278 278 277 273 271 272 272 272 273 273 274 273 272 271 271 271 269 269 269 269 269 266 266 266 266 267 268 268 267 267 267 266 266 265 265 264 263 264 264 264 263 262 261
281 277 278 277 279 280 281 279 279 279 279 278 274 275 273 273 269 270 270 272 272 271 268 271 270 268 269 269 269 269 262 267 267 266 266 266 267 267 267 267 267 267 266 264 264 264 264 263 263 263 262 262 261 260
279 279 278 278 277 276 278 277 276 275 275 273 271 272 271 271 266 269 271 271 269 269 268 269 270 270 268 266 267 267 266 268 266 265 265 264 262 263 263 266 266 265 264 264 263 263 263 262 262 261 261 260 259 259

GFSWCAN_sfc_thetae_012.txt.gz
Theta_e
300 300 300 300 301 301 302 303 303 303 304 304 303 303 304 303 305 308 311 318 318 311 312 315 313 308 310 313 308 311 308 310 312 303 301 305 300 303 300 299 296 295 295 292 296 288 286 302 300 296 304 308 305 305
300 300 300 301 301 301 302 303 303 304 304 304 303 303 303 304 306 308 306 316 325 317 315 323 320 320 317 315 315 314 311 311 313 309 306 309 294 293 298 295 303 297 301 300 297 297 306 304 304 307 308 307 306 306
301 301 301 302 302 302 303 303 303 303 303 304 304 305 305 306 306 308 310 316 324 318 315 314 313 319 322 322 326 313 315 318 316 322 316 311 294 305 293 301 303 303 304 301 301 300 302 304 305 307 306 307 307 308
299 299 299 300 300 300 302 302 303 304 304 304 304 305 305 306 306 307 309 318 323 318 302 311 319 316 320 321 322 323 322 323 322 320 314 298 298 309 304 306 306 304 303 299 299 302 303 303 306 307 307 308 309 309
299 299 298 299 299 300 301 303 303 303 304 304 304 305 305 306 306 309 312 318 325 314 306 311 316 316 317 319 319 320 320 319 316 310 298 307 310 307 307 307 304 304 301 301 299 304 304 304 307 308 306 304 304 303
300 299 299 299 300 301 303 303 303 303 303 304 305 305 305 306 307 312 309 321 324 326 315 305 314 312 316 318 317 316 319 318 317 312 308 310 309 309 298 300 303 305 306 306 303 307 306 306 304 303 301 301 301 300
302 302 302 302 302 302 302 302 303 303 303 304 304 305 306 306 315 312 308 311 308 325 315 304 304 311 316 316 315 315 317 316 315 313 311 308 306 307 296 299 302 302 303 304 305 306 302 302 298 301 299 298 296 296
302 303 303 303 303 303 303 303 302 303 303 304 305 306 307 306 307 311 311 309 310 314 311 302 296 306 313 311 307 314 313 313 309 305 308 307 304 309 300 301 301 301 303 302 302 302 300 300 300 297 296 295 292 292
300 301 302 303 304 303 303 303 303 303 304 305 306 306 312 315 315 313 305 307 321 314 298 303 295 293 310 304 305 309 312 303 306 298 306 305 296 296 300 299 299 300 301 300 300 300 299 296 295 294 293 293 292 291
300 300 300 301 303 304 305 304 304 305 306 306 312 313 306 308 306 306 312 308 307 306 306 298 302 298 304 298 296 299 300 300 294 298 303 299 296 297 297 299 300 300 302 301 296 294 294 293 292 291 292 292 292 291
300 300 300 300 301 302 303 305 306 307 308 317 311 304 310 306 311 307 299 301 297 294 299 299 299 299 305 297 292 297 295 296 291 295 295 292 291 294 297 297 298 300 300 299 298 297 295 293 291 292 291 291 289 289
300 300 299 300 300 301 303 303 306 311 313 312 311 311 310 306 302 292 291 295 296 293 293 293 297 299 300 306 296 295 290 293 289 297 291 289 292 294 294 294 296 297 297 295 295 294 294 293 292 290 288 287 286 285
299 299 299 299 300 300 301 301 302 304 305 313 305 295 300 294 289 288 286 289 288 289 290 292 290 297 298 300 294 293 288 289 298 288 288 290 291 291 293 295 295 296 296 294 292 291 290 289 289 287 285 285 287 287
298 298 298 298 299 299 300 301 302 307 308 298 291 286 288 286 286 286 286 286 286 287 290 293 291 293 292 289 290 288 287 292 286 285 287 288 289 290 292 294 293 291 289 289 289 288 286 284 284 285 284 285 284 283
298 298 298 297 299 299 300 300 301 304 297 290 291 284 284 285 286 286 286 287 287 291 291 295 294 295 289 287 288 287 285 285 286 286 287 288 289 291 292 293 290 289 288 289 288 286 285 285 284 283 283 284 283 281
300 300 297 297 298 300 300 301 300 298 292 288 286 285 285 286 285 285 285 285 289 290 294 295 290 288 286 288 287 286 287 286 285 286 286 288 288 290 291 291 289 291 291 289 288 286 285 284 284 283 283 283 281 280
300 297 296 297 298 299 300 299 294 291 288 286 285 285 285 285 284 285 285 286 290 289 286 289 286 283 288 286 284 286 284 285 285 286 287 289 289 290 291 290 290 291 290 288 286 285 284 284 284 284 282 281 282 282
297 299 297 298 301 300 299 298 293 290 285 286 285 285 286 286 285 286 288 291 290 288 288 286 289 286 285 284 284 285 285 285 288 288 289 290 292 293 293 291 290 288 286 285 284 284 284 284 284 282 281 281 281 281
294 296 297 298 300 298 292 293 294 285 285 286 286 288 288 289 291 290 290 295 295 296 292 291 286 283 283 283 283 285 286 286 286 287 289 290 290 289 288 287 286 286 285 285 286 283 281 281 280 280 279 279 278 278
296 295 296 297 300 294 288 289 296 288 285 286 289 288 288 288 290 287 289 293 294 292 286 283 280 281 281 282 283 284 286 287 287 285 285 286 288 287 287 286 285 284 283 282 281 283 282 280 279 278 277 277 276 275
296 295 297 299 296 293 290 289 288 288 288 285 289 290 287 290 288 287 289 292 286 282 282 283 283 284 285 283 284 284 285 284 283 287 286 284 285 284 284 285 286 284 282 281 280 278 278 276 276 276 277 277 276 277
294 295 297 296 291 290 288 291 289 291 288 288 288 289 286 284 285 286 291 285 281 282 284 283 283 284 282 281 282 283 283 282 282 282 284 284 282 282 282 282 280 278 277 278 277 276 276 274 274 274 275 274 274 276
295 295 293 291 285 285 282 291 284 284 281 283 287 283 283 283 285 290 283 282 281 284 284 283 282 283 281 282 282 281 282 281 280 279 279 278 278 277 276 276 277 276 274 274 275 275 274 273 273 273 274 274 274 274
293 286 283 284 284 280 287 282 286 284 284 282 281 279 280 282 286 283 278 279 280 282 282 282 284 282 281 279 277 278 280 281 279 279 279 277 275 274 275 274 273 273 274 275 274 273 273 273 271 272 272 271 271 271
283 281 284 281 286 283 281 280 281 281 278 280 280 280 280 284 281 279 277 278 278 278 280 282 281 281 279 278 277 277 278 278 276 274 276 277 275 274 273 273 272 272 273 272 271 271 271 271 271 270 269 270 269 269
278 281 280 280 280 280 280 278 278 278 279 279 278 281 282 281 278 275 276 277 277 276 277 278 280 278 276 277 275 274 275 278 277 273 273 274 274 275 274 273 272 270 271 271 269 268 269 269 268 268 268 268 268 268
277 278 282 285 283 282 281 281 282 281 279 279 280 280 280 277 275 275 277 277 276 277 277 278 278 277 275 274 274 275 275 274 274 273 274 273 272 272 271 269 267 267 269 269 268 267 266 266 266 267 267 268 269 268
281 281 278 281 281 283 280 280 280 279 280 281 282 278 276 274 272 275 276 278 278 278 277 276 275 275 275 275 275 276 275 274 274 274 274 273 273 272 271 271 270 268 269 269 268 267 267 266 265 265 266 265 266 267
281 282 283 278 280 280 279 280 279 281 282 281 279 277 274 273 273 275 276 278 280 279 276 275 275 275 274 274 273 273 272 271 271 269 269 270 271 270 270 270 270 269 269 268 268 268 268 267 266 266 265 265 266 267
279 283 281 280 279 278 280 282 281 282 281 280 279 276 273 272 273 276 275 275 274 273 274 274 274 273 272 273 271 270 270 268 267 266 266 265 266 268 269 269 268 268 268 267 266 266 267 267 266 266 266 266 265 264
282 283 281 281 279 280 280 281 283 282 281 279 278 276 272 271 272 273 272 274 273 273 273 271 270 270 269 268 268 268 268 269 267 267 266 266 267 268 268 268 268 268 267 266 265 265 264 264 264 264 264 263 263 263
280 278 278 277 279 281 281 279 279 280 280 278 275 275 273 274 269 269 270 272 271 270 269 270 269 268 269 269 269 269 263 268 268 267 266 265 265 266 266 266 266 267 266 265 265 264 264 264 263 263 262 262 261 260
280 280 279 278 278 277 279 278 277 276 276 274 272 273 271 270 266 269 272 272 270 269 269 269 270 270 269 269 268 268 267 269 268 268 267 266 262 263 263 264 265 264 263 263 263 263 263 263 263 262 261 260 260 259

GFSWCAN_sfc_thetae_015.txt.gz
Theta_e
300 299 299 300 300 300 301 300 301 302 302 303 303 304 305 305 306 306 304 308 307 307 307 310 309 305 304 305 297 306 301 301 294 291 288 286 285 289 288 295 290 286 284 281 284 282 280 299 297 289 295 298 299 298
300 300 300 300 300 300 301 301 301 301 302 302 304 304 304 304 304 305 301 309 312 305 309 316 316 314 314 313 308 304 302 304 303 295 293 290 286 287 287 283 298 288 293 287 289 287 297 298 297 301 300 298 298 299
300 300 300 300 300 301 301 301 302 302 302 303 303 304 304 304 304 304 302 309 310 306 308 311 310 313 317 318 319 305 307 310 307 309 298 294 288 287 286 286 291 297 300 291 291 295 297 298 299 301 302 302 304 302
300 300 300 301 301 301 301 302 302 302 303 303 303 303 303 304 305 305 302 308 309 307 295 305 317 311 315 318 318 317 314 315 313 309 294 292 290 301 287 293 290 296 297 295 293 296 300 302 303 304 302 303 299 297
300 300 300 301 301 301 302 302 302 302 303 303 303 304 304 304 306 307 307 309 311 306 298 301 311 313 314 315 315 316 315 311 305 295 288 291 293 295 289 291 287 298 295 288 285 300 298 298 300 301 298 297 298 295
299 299 299 300 300 300 301 301 302 302 303 303 304 305 305 306 306 306 302 309 311 311 305 293 308 309 311 313 312 313 312 309 308 300 294 298 303 295 287 284 298 300 301 302 299 302 299 298 297 297 295 295 295 294
299 298 298 299 299 300 300 301 301 303 303 303 304 305 305 305 307 303 304 309 309 308 302 294 293 306 311 311 308 308 310 308 306 302 293 295 297 299 286 286 297 300 300 301 302 299 296 297 294 295 293 293 293 292
299 299 299 299 299 300 299 301 302 303 303 304 304 304 305 305 308 306 311 307 307 309 305 290 292 297 310 297 295 305 299 301 300 296 295 290 295 288 287 295 297 299 299 298 297 298 296 295 294 293 293 292 290 289
302 301 300 300 300 300 300 302 302 303 303 304 304 305 306 305 306 307 307 306 313 306 292 290 290 290 305 297 295 298 300 290 296 288 289 292 284 288 295 295 296 298 298 296 297 296 294 293 292 292 291 289 289 289
301 302 301 301 301 301 302 302 303 303 304 305 306 305 296 304 306 305 307 298 297 300 297 289 297 292 300 290 290 291 290 287 285 287 295 289 283 293 295 296 296 298 297 296 291 290 291 291 290 290 290 291 290 287
301 302 303 302 302 302 302 302 303 304 305 307 303 297 304 305 306 297 289 289 291 287 291 291 293 292 300 291 289 290 288 287 285 287 286 282 283 291 294 294 296 295 296 296 296 294 293 291 290 289 287 286 284 283
301 301 301 303 304 303 303 303 304 308 307 307 306 307 305 301 295 288 286 288 289 287 289 290 292 297 291 298 287 290 287 286 282 290 287 285 287 291 293 293 294 294 293 292 293 292 292 291 289 286 284 284 283 283
299 300 300 300 302 304 305 305 305 307 306 305 297 291 295 288 287 281 283 285 286 286 288 288 287 291 292 294 289 289 288 285 288 286 285 284 290 291 293 293 293 293 293 291 289 289 288 286 286 285 284 285 283 283
298 299 299 300 300 301 302 303 303 304 302 292 287 283 286 285 283 283 284 285 285 285 287 289 287 287 287 287 286 286 286 287 285 282 282 286 289 290 292 293 292 289 286 285 285 284 284 283 283 283 283 283 280 279
298 298 298 298 300 300 300 300 301 299 292 285 285 282 282 284 285 285 285 286 286 288 287 289 288 290 286 286 286 285 284 283 283 282 284 287 289 290 290 288 287 286 285 285 285 283 283 282 282 282 281 280 280 278
300 298 295 298 299 300 300 300 298 294 289 286 284 284 285 285 284 285 285 285 288 287 288 288 286 285 284 285 285 283 283 280 281 283 285 288 288 289 288 288 289 288 286 285 285 284 283 282 280 280 280 278 276 275
298 293 297 298 299 300 300 297 293 288 285 285 283 285 285 284 283 284 285 286 289 287 285 285 284 281 284 283 281 283 280 283 284 285 287 288 288 288 288 287 286 286 285 284 284 284 283 283 280 279 279 279 279 277
293 296 298 299 300 298 296 296 289 286 283 284 283 284 285 284 285 285 286 288 288 286 286 284 286 284 281 280 280 283 283 284 286 286 288 289 290 290 290 289 287 285 284 283 283 283 281 280 279 278 278 278 278 277
294 295 297 299 298 293 286 288 290 283 283 284 284 285 286 286 286 287 287 288 289 288 288 285 280 278 278 279 279 281 284 285 285 286 286 287 287 286 286 285 284 284 284 283 282 279 279 278 277 276 276 276 274 274
296 296 297 297 298 287 285 285 292 285 283 284 286 285 285 285 286 286 286 286 286 284 281 279 278 279 280 280 282 282 283 286 285 283 283 284 285 285 285 284 283 281 281 280 280 279 277 276 276 276 274 273 269 267
294 293 296 296 291 289 285 284 284 285 285 284 284 284 283 284 284 284 283 284 281 280 279 281 280 280 282 282 283 283 281 281 281 284 283 281 283 283 283 283 282 281 280 278 276 275 274 272 273 273 266 263 263 264
290 296 288 290 285 284 283 286 283 285 284 283 282 283 281 279 280 283 282 279 278 280 281 280 280 280 279 279 280 281 282 281 280 279 280 280 277 277 277 277 276 274 274 275 275 272 272 272 271 269 264 263 266 267
293 291 285 284 277 276 275 283 276 280 275 278 281 279 280 280 280 284 277 279 279 282 282 281 281 281 279 279 279 280 280 279 277 276 276 275 275 274 273 273 275 273 272 273 274 273 271 271 269 265 266 264 262 263
291 284 279 277 277 277 277 274 280 278 277 278 277 274 278 277 279 276 275 276 278 279 280 281 281 278 277 276 274 275 277 277 276 276 276 274 272 272 272 272 272 272 273 272 271 270 269 265 265 264 260 258 257 257
276 275 277 271 277 273 272 278 275 276 276 277 273 275 277 278 273 274 274 275 273 274 275 278 276 277 274 273 274 274 276 275 272 271 273 274 273 272 271 271 270 270 270 266 264 261 260 259 258 257 258 255 258 258
274 279 277 278 278 277 278 275 276 276 277 277 277 279 280 276 271 269 273 273 271 271 273 274 275 272 272 273 271 271 272 275 273 270 270 271 270 269 267 267 266 264 265 260 258 257 257 257 255 257 256 259 260 261
275 277 280 283 282 281 279 280 279 275 272 273 276 277 272 273 268 272 273 274 273 272 274 274 274 273 272 272 272 272 272 271 271 271 271 270 270 269 266 260 258 261 261 260 257 255 254 255 255 255 255 259 259 258
280 280 276 280 280 280 275 275 272 273 275 279 278 269 268 269 267 272 274 276 275 274 273 273 273 272 272 271 271 270 270 271 269 270 270 269 268 264 262 261 261 266 262 261 257 259 258 257 255 254 254 255 254 254
279 281 277 273 278 279 277 276 276 278 279 278 270 269 268 270 271 272 274 275 275 274 272 271 271 270 270 270 269 267 266 266 265 261 260 259 261 261 260 258 259 258 257 257 262 264 262 260 261 258 255 258 259 258
278 277 273 270 267 273 276 279 278 278 279 278 273 272 270 269 270 271 271 271 271 269 270 270 270 267 266 266 264 264 263 262 262 258 255 254 255 259 259 261 258 256 258 255 255 257 261 258 258 255 255 257 259 255
280 278 273 273 271 276 278 280 281 278 278 273 271 267 266 266 266 269 269 271 269 269 268 264 265 266 265 264 262 258 257 258 258 258 256 255 256 256 261 262 260 256 257 260 258 255 253 253 257 255 253 254 256 254
277 276 268 268 272 275 279 277 277 276 275 272 267 265 265 265 260 262 267 267 266 266 266 266 264 261 260 260 259 258 258 258 260 257 257 255 254 254 254 254 254 260 260 258 256 253 257 257 255 257 255 253 251 250
272 271 270 268 269 270 271 268 270 268 267 266 266 266 264 262 260 264 267 267 262 261 264 265 264 264 263 260 258 258 262 259 260 264 265 264 259 258 253 253 253 252 252 251 251 252 254 258 258 257 254 250 250 251

GFSWCAN_sfc_thetae_018.txt.gz
Theta_e
299 299 299 299 299 300 300 300 300 301 301 301 301 301 302 302 303 304 302 306 302 300 303 308 305 302 303 303 296 301 301 300 292 289 287 285 283 288 287 291 288 285 282 279 283 278 279 298 295 288 291 296 297 296
299 299 299 299 299 300 300 300 300 300 301 301 301 301 302 302 304 305 301 306 308 301 302 308 312 312 309 309 305 302 301 303 302 294 290 288 284 284 285 283 295 286 289 285 287 286 295 296 297 299 298 297 296 299
299 299 299 300 300 300 300 299 299 300 300 300 301 302 303 304 305 305 303 306 304 300 302 305 306 311 315 314 314 302 303 307 307 303 294 292 286 285 283 283 289 294 298 290 290 294 295 296 300 300 301 300 299 299
299 300 300 300 300 300 300 300 300 301 302 302 302 303 304 304 305 305 302 306 305 303 293 301 315 310 315 318 316 313 310 311 310 301 292 287 287 294 284 290 288 294 296 293 291 295 299 300 299 299 296 296 294 295
300 300 300 300 300 300 300 301 301 301 302 302 303 304 304 304 305 304 305 305 307 302 294 297 307 312 315 318 317 316 313 308 301 294 287 287 288 293 284 288 285 296 293 288 286 296 295 295 297 297 295 294 294 292
300 300 300 300 301 301 301 301 301 302 302 303 303 304 304 304 305 303 296 304 306 307 299 291 308 308 311 314 315 314 311 309 305 296 288 295 300 291 284 282 296 298 299 299 298 299 296 294 295 295 293 292 292 291
300 300 301 301 301 301 301 301 301 302 302 303 303 303 304 304 305 300 298 307 307 309 298 292 294 305 310 310 307 307 308 305 303 299 291 293 295 293 282 284 296 297 299 297 298 297 294 294 290 292 292 291 292 291
299 299 299 300 300 300 301 301 301 302 303 303 303 304 304 305 306 303 308 307 309 304 304 291 291 295 308 295 296 302 297 298 298 296 293 289 293 285 285 294 296 296 296 296 295 296 294 292 292 290 291 290 289 288
298 298 298 299 299 299 299 301 302 302 303 303 304 304 304 303 301 303 306 306 309 305 294 290 290 290 301 295 293 294 295 290 296 288 289 291 287 285 292 294 295 295 294 292 293 293 292 290 289 289 289 288 287 286
298 299 299 299 299 299 300 301 303 303 303 303 303 301 294 302 306 308 306 300 297 297 294 289 295 291 297 288 289 288 290 287 284 287 292 287 281 291 293 294 296 295 294 293 289 288 289 289 289 289 289 288 287 285
300 299 299 299 299 300 300 302 303 303 303 302 300 295 304 305 304 297 289 289 291 287 291 292 289 292 299 289 288 288 287 286 281 284 285 286 283 289 292 292 294 295 295 294 294 292 291 290 289 287 285 284 283 283
302 302 301 301 301 301 302 302 303 303 304 306 305 305 303 299 290 287 285 287 287 285 288 289 291 293 293 299 290 289 286 285 285 288 283 279 286 290 290 291 291 292 292 291 292 290 290 289 287 285 283 282 283 283
302 302 302 302 302 302 303 303 303 305 306 303 296 290 292 287 284 280 281 284 285 286 287 287 288 289 292 293 287 287 286 285 284 284 283 283 290 291 291 290 291 292 291 289 288 288 287 285 285 284 283 283 283 282
300 300 301 302 302 302 303 303 302 302 299 289 286 283 285 283 282 282 284 285 285 285 286 287 287 288 286 287 286 286 285 287 283 280 281 285 289 290 291 291 288 287 286 285 284 283 283 283 283 283 282 280 280 279
299 299 299 299 300 300 300 300 299 296 289 285 285 280 281 284 285 285 285 285 285 287 286 287 288 289 286 286 285 285 284 282 283 282 284 287 289 289 289 287 286 284 284 283 283 282 282 282 281 280 279 280 279 277
299 298 297 299 300 300 300 298 294 291 287 283 284 284 285 285 283 284 285 285 288 286 287 287 286 285 283 285 284 282 282 280 281 283 285 287 287 286 287 286 286 285 284 283 283 283 282 280 280 279 278 277 276 275
297 292 297 299 299 299 299 295 290 286 285 283 282 285 285 284 284 284 285 286 288 286 285 283 282 281 284 281 279 282 279 281 283 284 286 288 286 286 287 287 285 285 284 284 283 283 281 280 279 278 277 278 278 276
290 292 299 300 298 297 296 293 287 285 283 284 282 283 285 285 284 285 285 287 287 285 285 283 285 280 277 277 277 281 283 284 285 286 287 288 288 288 289 287 286 284 284 283 283 283 280 279 278 277 279 278 277 277
294 295 298 298 296 290 287 288 289 282 283 284 284 285 284 285 285 285 285 288 288 287 285 282 277 276 276 278 278 280 282 284 284 284 285 287 287 285 285 284 284 283 283 282 280 278 277 277 277 277 276 275 273 273
296 296 296 296 295 286 283 283 288 284 282 284 285 284 285 284 285 284 282 283 284 283 279 277 276 277 277 279 280 280 280 284 284 282 282 283 284 284 283 282 281 281 279 279 278 277 276 275 275 275 274 273 269 268
291 291 293 290 286 285 282 282 283 284 284 283 283 283 282 284 280 279 279 282 279 279 276 278 277 278 280 280 280 281 280 280 281 284 281 279 279 279 279 279 279 279 276 275 273 273 272 272 273 272 270 267 265 266
288 293 281 285 281 281 280 282 281 282 282 281 280 281 277 277 278 279 279 277 277 278 279 278 278 278 277 277 278 278 279 278 278 277 277 277 276 275 275 275 275 273 274 273 272 271 271 271 271 270 268 265 266 266
289 286 281 279 274 274 273 280 274 279 273 274 277 276 277 277 280 280 274 277 277 278 281 278 277 277 276 277 277 277 277 276 274 274 274 273 273 273 273 273 273 272 271 272 273 271 270 270 269 267 265 263 259 259
287 279 275 272 274 271 271 273 278 276 274 273 274 275 275 274 277 273 272 274 275 276 276 278 278 275 275 274 272 273 274 275 274 273 274 272 270 270 271 270 270 270 270 270 269 267 266 264 263 262 257 256 254 253
275 273 272 268 271 271 271 276 277 277 274 269 271 273 276 273 271 269 270 271 271 271 272 275 273 274 271 270 271 271 273 273 270 269 270 273 270 270 268 267 266 267 267 264 261 259 258 255 253 252 254 250 255 255
273 275 275 277 277 274 276 272 274 275 274 273 276 278 272 269 263 265 270 267 268 268 270 271 269 269 270 271 269 269 270 274 271 268 268 269 269 266 265 265 263 263 264 258 254 253 253 252 251 252 252 255 259 257
273 271 278 281 280 277 275 273 272 269 266 269 272 273 271 262 262 269 272 272 271 270 272 272 272 271 270 271 271 271 270 270 270 269 269 269 268 267 262 257 258 261 259 256 252 252 253 252 251 251 250 249 252 251
277 277 273 276 271 271 266 264 264 268 268 274 272 264 265 260 263 270 272 274 273 273 272 272 271 270 268 267 267 266 266 268 269 268 267 267 266 265 263 262 262 266 258 254 253 257 256 256 257 255 254 251 253 250
277 278 272 268 267 268 270 269 269 273 277 271 264 264 263 267 267 268 271 273 273 271 269 268 268 268 267 265 264 264 264 263 259 256 253 253 254 257 261 259 259 256 254 254 259 261 259 256 259 256 252 252 258 254
272 268 266 262 267 272 274 273 267 274 275 268 268 268 267 266 268 270 270 268 267 265 266 266 266 264 262 258 259 261 260 259 259 255 252 251 254 256 254 255 255 256 256 252 256 257 258 252 253 253 252 251 250 251
275 267 266 266 270 275 276 277 273 273 265 264 264 261 260 263 263 267 267 267 266 264 264 261 260 259 258 258 253 251 254 257 256 255 253 251 250 249 250 250 250 250 252 253 252 252 252 250 249 252 252 253 251 250
264 263 263 265 269 272 270 272 270 273 266 262 259 256 260 257 256 261 265 262 263 262 261 261 259 260 256 253 252 256 257 256 256 255 256 255 256 254 254 251 248 247 248 247 246 247 247 249 252 254 256 253 252 248
265 261 259 261 267 264 262 264 269 264 263 261 261 260 258 258 257 260 263 263 259 256 256 256 258 260 261 257 255 254 257 253 252 258 257 259 256 255 251 248 248 249 250 249 247 246 250 250 250 251 252 253 252 250

GFSWCAN_sfc_thetae_021.txt.gz
Theta_e
301 300 300 299 299 300 299 299 300 300 300 300 300 300 301 302 302 300 298 305 300 295 297 303 304 299 300 298 293 297 302 298 288 289 286 283 282 287 285 289 287 286 282 279 278 276 279 294 293 287 290 293 296 295
297 298 298 298 298 299 299 299 299 299 299 299 300 300 301 302 303 302 297 305 307 299 296 303 303 304 304 305 302 301 299 300 299 293 289 286 283 281 285 283 292 285 288 285 287 285 293 295 293 295 296 296 295 296
299 299 299 299 299 299 299 299 299 299 299 300 301 301 302 302 303 301 300 303 302 296 295 298 302 307 312 311 311 302 300 306 303 303 294 289 287 285 283 283 287 291 295 289 289 292 294 294 297 298 297 297 298 299
299 299 299 299 299 299 299 299 299 300 300 300 301 301 302 302 303 302 299 305 302 299 291 299 312 308 312 312 311 309 308 308 306 302 291 287 288 292 283 290 287 292 295 291 289 294 296 296 296 294 294 294 293 292
299 299 299 299 299 299 299 299 299 300 300 301 301 301 302 302 303 303 303 305 306 298 293 296 306 309 312 311 311 310 310 305 298 293 288 290 290 292 283 287 283 294 292 288 286 296 294 295 295 295 293 292 292 291
300 300 300 300 300 299 299 300 300 300 300 300 301 302 302 303 304 302 295 301 305 305 296 289 302 306 309 310 310 308 308 305 300 294 289 295 299 293 286 283 294 296 296 296 295 296 295 293 293 293 292 291 291 290
300 300 300 300 300 300 300 300 300 301 301 301 301 302 304 303 302 296 293 300 303 305 296 290 291 304 307 305 303 306 307 304 303 297 288 291 294 291 280 284 295 296 296 295 295 294 291 291 289 291 291 291 291 290
300 300 300 300 300 300 300 301 301 302 302 302 302 303 303 303 303 299 307 305 305 301 300 289 289 295 305 293 298 302 298 298 298 295 291 288 293 284 285 292 294 295 295 293 292 294 293 291 290 289 289 289 287 286
300 300 300 300 301 301 301 301 302 302 302 302 303 303 302 300 297 300 305 307 309 303 292 288 287 288 302 296 294 294 296 290 296 290 290 295 288 287 290 293 293 294 293 290 291 291 290 288 288 288 287 287 285 284
299 299 299 299 299 300 300 301 302 302 303 303 301 298 293 296 305 305 302 298 298 299 295 288 294 290 298 289 290 289 289 287 287 288 293 287 286 290 291 294 294 293 292 292 288 286 287 286 286 287 287 288 286 284
299 299 299 299 299 299 301 301 302 303 303 300 296 293 303 304 302 294 287 288 290 287 290 291 291 292 298 290 288 288 287 284 282 287 287 285 284 287 289 292 294 294 294 294 293 291 290 289 287 285 284 284 283 283
299 299 299 299 299 300 301 302 302 301 300 300 303 304 302 297 292 286 284 287 286 286 288 289 290 295 291 297 289 288 286 284 281 288 282 284 284 287 288 289 290 291 291 291 291 290 289 288 286 284 283 283 283 283
299 299 299 299 300 301 302 302 302 304 305 302 296 290 292 286 283 283 282 284 285 285 287 287 287 288 290 292 287 286 282 279 287 280 281 282 289 288 289 290 290 291 291 290 289 288 286 284 284 283 282 283 282 280
301 300 300 300 300 301 302 302 303 302 298 289 289 282 284 281 282 282 283 284 285 285 286 287 287 287 286 287 286 286 285 286 282 280 279 285 288 288 290 289 288 287 286 285 285 284 283 282 282 282 282 280 278 278
300 300 300 301 302 302 302 302 300 297 291 285 285 280 281 284 285 285 285 285 286 287 287 288 288 289 286 285 285 285 284 281 282 277 283 287 289 288 287 286 285 284 283 283 284 283 282 282 280 279 279 278 277 276
299 299 297 300 300 300 299 298 294 292 286 285 284 283 284 284 284 284 285 285 288 286 287 288 285 284 283 285 283 280 281 279 280 282 285 286 287 286 285 285 285 284 283 283 283 283 282 280 279 279 278 276 275 274
297 293 297 299 299 299 299 293 289 285 284 283 282 285 284 284 283 284 284 285 288 286 284 280 281 281 284 280 279 281 277 280 283 284 285 285 285 284 285 284 284 283 283 282 282 281 280 279 278 278 277 276 276 274
291 293 298 299 298 297 294 292 287 285 282 284 282 283 283 283 282 283 284 286 286 285 285 282 283 276 272 273 274 277 282 284 284 285 285 286 287 286 286 285 285 284 283 282 281 280 279 279 278 277 277 277 276 275
292 294 296 297 296 291 287 287 287 282 282 284 284 284 284 283 283 283 283 285 285 285 283 280 275 274 274 276 276 277 278 282 282 283 284 285 285 285 284 284 284 283 283 281 280 278 277 277 277 276 276 275 274 273
295 295 294 295 295 286 283 283 287 284 282 283 284 281 281 280 281 280 281 281 281 280 277 274 273 274 275 276 278 278 278 281 284 280 279 280 281 281 281 281 279 279 278 277 277 276 276 275 275 274 273 272 271 270
290 290 290 288 284 285 282 282 284 285 284 283 284 283 281 281 278 277 277 280 278 277 274 276 275 276 278 278 278 278 278 278 277 280 277 276 278 278 277 278 277 276 275 274 272 272 272 272 273 272 270 268 268 269
285 290 280 283 280 280 280 281 282 282 282 280 279 279 276 276 274 275 277 275 274 276 277 276 276 276 275 275 276 277 277 277 276 275 275 275 273 273 273 274 274 272 272 272 271 270 270 271 271 270 267 266 267 266
287 284 280 279 275 274 273 279 274 278 273 273 274 274 273 272 275 278 272 274 274 276 277 276 276 276 274 275 275 275 275 274 272 272 272 271 271 271 270 270 272 270 270 270 271 270 268 268 266 264 263 262 261 259
285 276 271 270 272 266 270 271 277 275 272 270 271 275 274 274 273 270 268 270 273 274 275 275 275 273 273 272 270 271 272 273 271 271 272 270 268 268 268 267 267 267 267 267 266 264 263 261 262 261 258 256 254 251
274 272 270 267 269 270 266 267 269 270 266 266 273 272 273 270 265 265 266 268 269 269 270 272 272 271 268 269 269 270 272 271 269 268 269 271 269 268 266 266 265 265 266 262 260 258 257 256 255 255 252 249 254 254
269 274 272 270 270 270 268 265 265 267 264 266 270 275 267 262 260 262 268 265 267 267 267 268 268 268 268 269 267 268 269 272 269 266 266 268 267 265 263 261 262 262 262 258 257 255 255 252 250 251 251 252 254 252
268 269 277 277 274 273 271 270 269 267 266 271 268 263 264 258 259 267 271 270 269 269 271 270 270 268 267 267 268 268 268 268 267 267 267 266 265 264 260 257 257 261 258 254 252 253 254 254 252 252 251 247 248 248
277 274 268 268 268 268 263 262 263 265 266 273 267 260 256 257 260 268 269 272 271 271 269 268 267 266 264 263 264 264 265 266 265 265 264 263 263 262 261 261 261 263 257 253 251 249 250 253 252 253 252 252 253 250
272 270 269 264 264 266 269 266 267 273 275 268 259 261 261 265 265 265 269 269 270 267 265 264 264 263 262 263 261 261 262 259 256 253 250 249 250 254 255 253 253 253 252 252 258 262 263 257 255 252 251 252 255 251
270 264 265 270 264 268 268 265 268 268 267 263 266 266 265 264 266 268 267 265 264 262 261 260 258 258 253 255 255 258 257 253 253 253 250 250 253 253 248 248 248 249 247 248 249 252 256 251 252 250 249 250 247 247
265 264 264 264 268 272 273 268 267 262 259 257 258 257 257 261 261 265 264 262 263 261 260 257 255 251 253 252 250 250 252 254 253 254 253 252 251 250 253 250 247 246 246 245 244 244 245 246 245 247 249 250 251 250
262 258 262 263 270 268 273 270 270 262 260 260 257 254 258 257 256 259 263 258 258 256 257 254 254 256 254 252 251 250 254 251 250 250 251 250 250 250 249 249 247 246 246 245 244 244 245 245 246 245 246 247 249 249
259 257 256 260 265 264 262 264 266 262 260 259 259 257 256 257 255 258 260 257 255 253 252 251 251 255 257 254 252 250 253 249 248 255 255 257 255 252 248 246 245 245 246 246 245 246 246 246 245 243 245 246 248 248

GFSWCAN_sfc_thetae_024.txt.gz
Theta_e
301 302 302 301 301 301 302 303 302 302 301 301 301 301 301 301 302 298 294 300 299 294 296 300 301 296 296 296 289 294 296 295 288 287 286 285 281 286 284 288 288 288 283 279 278 276 281 293 292 288 291 291 293 294
300 301 302 301 301 302 302 301 301 301 301 301 301 301 301 301 302 299 292 298 300 297 297 302 301 300 299 301 298 296 295 297 297 292 288 285 284 280 285 282 290 286 289 286 287 287 293 293 292 294 294 294 294 294
297 298 299 299 300 300 300 300 300 300 300 300 300 301 301 301 302 299 294 298 297 296 295 296 296 302 303 304 306 297 299 303 299 301 292 290 285 285 285 284 286 290 292 288 288 291 292 293 295 295 295 294 295 296
299 298 298 298 298 299 299 299 299 299 299 300 300 300 300 301 301 300 295 301 301 298 289 294 307 305 311 308 308 307 305 305 303 302 289 287 286 291 286 290 287 290 293 290 288 292 294 295 295 294 293 293 292 291
299 299 299 299 299 298 299 298 298 299 299 300 300 300 301 301 301 300 299 302 303 297 290 292 299 306 311 309 308 308 306 302 298 294 287 288 288 290 286 289 283 293 291 288 288 294 293 293 294 294 292 291 291 290
299 299 299 299 299 299 299 299 299 299 299 300 300 301 301 301 302 297 292 300 305 304 294 287 301 300 308 308 307 306 307 300 298 294 291 294 298 294 288 286 294 296 296 296 295 296 292 291 291 292 290 290 290 289
300 299 299 299 299 299 299 299 299 300 300 300 300 301 301 302 299 294 292 297 304 304 293 287 289 298 305 307 302 302 302 300 300 295 287 290 293 294 287 289 295 296 296 294 294 294 290 291 289 290 290 289 290 288
300 300 300 299 299 300 300 299 300 300 300 301 301 301 302 302 301 295 301 304 304 298 296 287 289 292 304 295 295 300 294 295 296 295 291 289 291 285 285 291 292 293 293 292 291 292 292 290 289 288 288 288 286 285
300 300 300 300 299 300 300 301 300 300 300 301 301 302 300 298 293 296 303 303 307 298 289 288 287 285 301 296 294 292 293 288 295 289 289 291 287 287 290 291 292 293 293 289 290 290 289 288 287 287 286 286 284 284
300 300 300 300 300 301 301 301 300 300 301 302 300 295 287 293 303 303 300 296 297 299 296 288 294 289 298 290 290 288 287 288 287 288 292 287 286 290 291 293 293 291 291 291 287 285 286 285 285 286 285 285 285 284
300 300 300 300 300 301 301 301 301 301 302 298 295 291 300 303 299 293 287 286 289 286 290 290 289 290 296 289 288 288 286 285 285 287 289 286 286 288 291 293 294 293 293 294 293 291 290 288 287 285 284 284 284 284
300 300 299 300 300 301 301 301 302 301 297 298 300 301 300 296 290 286 284 285 286 286 287 288 290 294 290 296 290 288 285 285 284 288 286 284 285 287 288 288 290 291 290 290 291 289 288 287 286 284 284 283 283 282
299 299 299 299 300 301 301 302 302 302 302 302 295 289 291 285 283 281 282 284 285 285 287 287 288 288 290 291 287 287 285 284 287 285 283 283 288 288 288 289 289 290 289 288 287 286 285 284 284 284 282 282 281 280
299 299 299 300 300 301 301 302 299 301 298 289 286 281 283 281 282 282 283 284 285 285 285 286 286 286 286 286 285 286 284 286 282 279 280 285 287 288 288 289 288 286 285 285 284 284 283 282 281 281 281 281 280 278
299 299 299 299 300 301 301 301 298 296 291 285 284 280 281 284 284 284 285 285 286 287 286 286 287 288 286 285 285 285 284 280 281 279 282 286 287 287 286 285 284 284 283 283 283 281 281 281 280 278 278 278 278 277
300 299 298 300 301 300 298 297 295 292 287 285 283 282 283 283 283 284 284 285 288 286 287 287 285 285 283 283 281 278 280 276 279 282 284 286 285 284 284 284 284 284 283 283 282 282 281 280 279 277 277 276 275 275
298 294 299 299 299 298 298 293 289 285 285 283 282 283 283 283 281 282 283 283 287 286 284 284 279 277 283 278 276 278 277 279 282 283 284 284 284 283 284 283 283 283 282 282 281 281 279 279 278 277 275 275 276 275
292 295 299 299 299 296 293 291 285 284 282 283 280 281 280 280 279 279 281 284 285 285 282 279 281 274 272 272 272 275 277 279 283 283 283 284 285 285 284 283 283 282 281 281 280 279 278 278 278 277 276 276 275 275
293 295 298 299 297 291 286 286 287 280 281 282 281 282 281 277 279 280 281 283 283 283 281 278 272 271 272 274 273 275 276 277 280 280 280 281 283 283 282 282 282 281 280 279 278 277 277 277 276 276 276 275 273 272
294 294 295 297 296 287 284 283 287 283 281 282 281 278 277 276 278 278 279 280 280 278 275 272 271 272 273 274 276 276 276 279 282 277 275 277 278 278 277 277 277 277 276 276 276 276 275 273 273 273 273 273 272 270
289 289 289 289 285 284 282 282 284 284 283 282 283 280 277 278 275 274 274 278 275 274 272 273 273 274 276 276 276 277 275 276 275 276 275 273 275 276 275 275 275 274 273 272 271 271 271 271 271 271 270 269 270 270
284 289 280 284 281 281 280 281 282 281 281 280 277 278 273 269 268 271 274 271 272 273 274 274 274 274 273 273 274 275 275 275 274 273 272 272 270 270 271 272 272 270 270 270 270 269 269 269 269 268 267 266 268 267
286 283 278 278 275 274 272 279 274 276 272 271 273 273 271 270 272 275 269 271 271 274 276 275 274 274 273 273 273 273 274 273 271 270 270 269 269 268 268 267 268 268 267 267 268 267 265 265 264 263 263 263 262 261
284 275 269 268 271 265 268 270 276 273 271 269 273 271 272 267 270 267 266 268 271 272 272 273 273 271 271 270 269 269 271 271 270 269 270 268 266 265 266 265 265 265 265 265 264 262 261 259 260 260 258 256 256 254
274 272 269 266 268 267 264 264 266 269 263 268 268 270 271 267 262 262 264 266 268 266 268 269 270 269 267 267 267 268 270 269 267 265 267 269 266 266 265 264 264 264 264 261 258 256 255 254 252 251 253 249 255 254
270 273 273 265 269 268 264 263 264 265 262 266 269 271 264 260 258 261 266 264 265 266 266 266 266 266 266 267 265 265 266 269 267 263 264 265 264 259 258 258 258 261 261 254 253 252 253 252 249 250 250 252 251 249
270 268 275 275 272 271 266 264 266 265 264 270 264 260 259 255 257 265 270 269 268 267 268 267 267 266 265 266 266 267 266 266 265 264 264 263 263 263 259 255 256 260 260 256 252 251 252 251 250 249 248 246 246 246
275 271 265 265 266 267 266 261 262 264 265 271 263 255 253 254 258 265 268 270 269 268 266 265 265 263 262 262 263 263 263 261 262 261 260 260 258 256 255 253 254 260 251 249 250 249 251 252 252 252 250 250 251 249
267 264 267 263 263 266 269 266 264 269 269 262 256 257 259 263 263 263 267 268 267 265 262 262 261 258 258 259 258 257 257 254 254 251 249 248 249 254 253 250 247 247 245 247 255 259 261 256 256 252 250 249 252 251
266 264 268 262 262 266 266 264 258 257 264 261 264 264 263 262 265 266 264 263 261 257 254 252 251 253 251 252 252 255 253 248 249 251 248 248 251 253 250 248 247 246 244 244 244 248 253 248 250 247 247 248 247 246
262 262 263 263 266 265 265 258 258 257 255 255 254 254 255 258 260 262 261 258 256 255 255 253 253 248 251 249 248 248 250 249 248 249 249 248 248 247 247 247 246 244 243 243 242 243 244 243 242 242 244 246 247 249
260 257 261 262 266 267 264 265 256 257 255 254 256 250 253 252 252 255 259 255 253 252 252 249 250 252 251 249 247 246 250 248 247 248 248 249 249 247 246 246 243 243 243 243 242 242 243 244 243 242 241 242 244 245
256 255 255 259 263 263 263 263 262 259 256 256 255 254 252 252 252 256 258 251 251 251 250 249 248 250 252 249 248 247 251 247 246 253 256 257 251 251 246 244 243 242 243 243 242 242 243 244 243 242 242 242 243 243

GFSWCAN_sfc_thetae_027.txt.gz
Theta_e
302 302 302 301 301 301 302 302 302 302 302 303 302 303 303 303 303 298 293 299 297 292 294 296 298 296 296 295 290 294 294 295 292 288 288 289 287 291 290 292 291 291 289 288 286 286 286 296 294 293 299 297 299 300
301 301 301 301 301 301 302 302 302 302 302 302 302 302 302 303 302 300 293 299 300 292 294 302 302 302 300 301 297 297 295 295 296 293 290 289 288 288 289 288 293 291 294 292 293 294 300 297 300 300 299 299 298 301
299 301 301 301 301 301 301 302 302 302 302 302 302 302 302 302 302 299 295 297 296 291 292 295 295 303 303 302 306 297 299 303 300 303 296 294 289 291 287 288 291 293 294 294 295 297 296 298 299 300 299 300 299 302
298 299 300 301 301 302 302 302 301 301 301 302 302 302 302 302 302 298 295 297 296 294 288 292 305 301 309 304 304 306 305 305 305 302 294 291 291 295 291 294 293 294 295 293 293 295 298 299 300 300 298 299 297 297
298 298 299 299 299 300 300 300 300 301 301 301 301 301 301 302 301 298 297 299 298 295 289 292 298 302 305 307 304 306 306 304 301 297 290 292 292 293 289 292 291 295 294 292 293 299 300 299 301 298 297 296 296 294
299 299 298 298 298 299 299 300 300 300 300 300 301 301 301 301 300 297 289 297 301 299 291 285 299 300 307 309 307 305 306 303 303 298 293 295 299 297 290 290 297 298 300 299 299 299 295 294 295 295 294 294 293 293
299 299 299 298 298 298 299 299 299 299 300 300 300 300 300 300 297 292 290 296 300 298 293 287 289 299 305 307 305 304 305 303 302 299 294 296 297 297 289 291 298 298 298 297 296 297 294 294 294 293 293 292 292 291
299 299 299 299 298 298 299 299 299 299 300 300 300 300 300 300 299 295 301 301 299 297 295 286 287 291 303 295 296 301 298 299 299 297 294 294 293 289 290 294 295 295 295 294 294 294 296 292 291 290 290 290 288 288
299 299 299 299 299 299 299 299 300 300 300 300 300 300 298 297 292 295 303 303 304 297 287 286 286 287 300 295 294 294 296 291 297 291 292 294 290 290 294 294 294 293 295 291 291 291 291 290 289 289 289 288 287 286
299 299 299 299 299 299 299 299 300 300 300 300 298 294 288 295 302 302 299 294 294 295 295 288 294 290 296 290 290 291 290 289 289 291 293 290 291 292 293 294 295 293 292 292 288 287 287 287 287 287 288 288 288 287
300 299 300 300 300 300 299 300 300 300 300 296 292 289 295 302 298 292 287 286 288 286 291 291 290 291 298 290 289 290 286 287 287 290 290 288 288 289 291 293 294 293 293 294 294 291 291 290 288 286 286 287 287 286
301 300 300 300 300 300 299 300 300 299 296 297 297 299 298 294 288 285 284 284 284 286 288 289 291 295 291 297 289 288 286 285 286 289 288 286 287 288 290 290 291 292 292 291 291 289 289 288 287 286 285 285 283 282
299 300 301 300 301 301 300 300 301 301 302 300 292 288 290 285 283 281 280 283 284 285 287 287 287 289 290 292 287 286 285 285 287 286 284 284 287 288 289 289 288 289 289 287 286 286 286 285 285 284 282 281 282 281
299 299 300 300 301 301 301 300 300 299 297 289 285 281 282 281 281 281 282 284 285 285 285 286 286 287 286 286 285 286 285 286 283 280 280 284 286 287 287 288 286 285 285 284 284 283 283 282 281 282 282 282 281 280
299 299 300 300 301 301 300 298 297 296 290 285 284 280 281 284 284 285 285 285 285 287 286 288 288 289 286 285 285 285 284 280 279 278 281 284 286 285 285 284 284 283 282 282 282 281 281 281 280 280 280 280 279 278
299 299 297 299 300 301 300 298 295 292 287 284 281 278 281 281 279 280 280 282 286 285 287 287 285 284 282 281 279 277 278 275 277 281 283 284 284 283 283 283 283 283 282 282 282 282 281 280 278 278 278 277 277 276
299 295 299 298 298 298 297 293 290 285 284 283 279 280 278 279 277 279 280 281 285 286 283 282 275 275 281 276 273 275 273 276 276 281 283 284 283 282 283 283 283 283 282 281 280 279 278 278 278 277 276 276 276 276
293 298 299 299 298 296 293 290 285 284 279 280 277 278 278 277 276 278 280 282 284 283 281 277 279 273 271 271 271 273 275 276 281 278 279 282 283 283 283 281 281 281 280 280 280 279 279 278 276 276 276 276 276 276
297 299 298 298 297 291 285 285 286 277 278 280 279 279 277 276 278 279 280 281 282 282 280 276 271 269 270 272 272 273 274 276 277 277 277 278 279 278 278 278 278 278 277 277 277 276 276 277 277 277 276 276 274 274
298 297 298 298 295 287 284 284 288 282 279 280 280 276 276 275 276 276 277 278 278 276 272 270 269 271 271 273 274 274 275 278 278 275 274 275 276 276 276 276 276 276 275 275 274 274 274 273 273 273 273 274 273 272
291 290 291 290 286 285 283 283 284 284 283 281 283 278 275 275 273 272 272 276 273 272 270 272 272 273 275 274 275 275 274 273 272 274 273 271 273 274 273 273 273 273 272 271 270 270 270 269 270 271 271 270 271 271
285 288 282 284 282 281 280 280 282 281 280 279 277 277 274 270 268 271 273 269 269 271 273 272 272 273 272 272 273 274 274 273 272 271 271 271 269 269 269 270 270 268 268 269 268 267 267 267 268 267 267 267 268 268
286 283 279 279 275 275 273 280 274 276 272 271 273 272 270 268 271 274 267 270 270 272 273 274 273 273 272 272 272 272 272 271 269 269 268 267 267 267 266 266 267 266 265 266 267 265 264 264 264 264 264 264 264 264
283 274 269 268 271 266 269 269 275 273 271 270 271 269 271 268 270 267 265 267 269 271 270 271 272 270 270 269 268 268 269 270 269 268 268 267 265 265 265 265 265 264 264 265 264 262 262 261 260 261 260 261 260 261
274 271 269 265 267 267 264 264 265 269 265 267 267 269 265 267 263 262 264 266 267 266 267 269 269 268 266 266 266 267 268 268 266 264 265 267 266 265 264 264 263 263 264 263 261 261 260 260 259 260 260 259 259 259
269 271 271 263 266 267 264 264 266 267 265 265 266 267 263 261 259 261 266 265 266 266 265 265 266 266 265 266 265 265 266 268 266 263 263 264 264 262 261 260 261 261 262 259 260 260 260 259 259 258 259 259 255 256
270 267 273 274 271 269 266 264 266 265 264 268 263 258 258 255 257 264 268 267 266 265 266 264 265 265 265 265 265 265 265 265 264 263 264 263 263 262 261 259 259 260 260 258 258 258 258 258 257 257 257 258 258 256
273 268 264 263 265 266 264 260 260 262 264 268 262 255 253 255 259 264 266 267 266 266 264 264 263 263 263 263 262 262 263 262 262 262 262 262 260 259 258 257 257 258 256 256 258 257 259 258 258 257 257 256 255 256
265 262 266 260 262 263 265 261 261 265 267 261 256 256 259 262 262 262 265 267 267 264 261 260 260 258 259 260 258 257 258 259 259 256 255 256 256 259 258 256 256 256 254 256 257 260 261 259 258 256 255 254 254 253
263 263 264 259 259 260 257 259 257 256 262 261 264 264 262 261 263 265 264 263 262 258 256 255 254 257 256 257 257 258 256 254 255 256 255 255 256 257 255 255 255 255 252 253 254 255 255 254 256 255 253 253 253 253
261 261 263 264 264 259 258 255 252 255 255 255 254 255 256 259 261 262 261 259 257 255 258 257 256 253 256 255 255 255 256 256 250 253 254 254 254 254 255 254 253 252 252 252 251 252 252 253 252 251 252 251 250 250
259 258 262 261 263 263 261 258 254 256 254 255 254 250 254 254 252 257 258 255 256 257 254 253 254 256 254 253 250 251 250 253 254 253 252 254 256 255 254 253 251 251 252 252 251 251 250 251 251 251 250 250 249 249
255 255 256 260 262 261 262 261 260 258 256 255 255 253 250 254 254 257 257 252 256 256 254 254 254 252 251 251 253 253 253 253 251 252 255 256 252 255 254 252 251 251 252 252 252 250 251 251 251 250 250 249 249 249

GFSWCAN_sfc_thetae_030.txt.gz
Theta_e
302 302 302 301 300 301 302 302 302 302 302 302 302 302 303 303 303 300 299 307 301 296 297 299 299 297 297 298 295 299 298 299 296 292 293 293 292 295 294 296 296 294 294 293 295 292 290 304 300 299 306 308 307 307
302 301 301 301 301 302 302 302 302 302 302 302 302 303 302 303 303 301 296 305 307 300 296 299 297 300 302 303 301 302 298 298 299 295 297 298 293 293 296 292 298 293 299 298 299 299 307 305 307 309 309 308 306 308
301 301 301 301 302 302 302 302 302 302 302 302 303 302 302 303 302 301 299 303 302 297 297 297 294 303 307 307 310 299 302 303 302 306 303 302 297 299 292 295 297 299 301 300 299 304 305 306 308 306 306 307 307 308
300 300 301 301 302 302 302 302 301 301 302 302 302 302 302 302 302 301 299 302 301 297 290 293 303 301 307 309 308 308 306 307 308 307 303 301 298 302 299 301 298 301 299 301 301 304 301 305 307 308 306 306 305 308
299 300 301 301 301 302 302 302 301 302 302 302 302 302 303 301 301 301 302 302 303 297 290 291 299 301 303 305 307 307 307 307 307 303 299 297 304 301 300 299 299 301 301 299 300 306 306 308 310 309 306 304 306 306
299 299 300 300 301 301 301 301 301 301 301 302 303 303 301 300 300 300 291 301 304 304 292 286 298 299 303 306 306 305 306 306 306 303 303 304 303 302 297 297 301 303 305 306 304 305 307 303 305 308 306 306 305 305
299 299 299 300 300 300 300 301 301 301 301 301 302 301 300 300 299 294 293 299 302 302 294 288 289 299 302 305 305 306 308 306 304 303 302 304 303 302 299 296 302 305 305 305 303 302 301 301 303 303 304 303 301 303
298 299 299 299 299 299 300 300 300 300 300 300 301 300 300 300 299 298 304 302 303 298 294 288 288 292 304 298 296 302 302 304 304 302 304 302 302 300 296 302 305 303 302 302 301 300 300 301 301 299 300 298 297 297
299 298 298 299 299 299 299 299 299 300 300 300 300 300 300 298 293 293 302 300 304 297 290 288 288 288 301 297 298 296 299 292 299 298 300 303 300 296 299 298 302 302 301 301 298 298 297 297 297 296 296 297 296 294
299 299 299 298 299 299 299 299 300 300 300 300 298 294 290 296 301 301 296 293 294 295 297 291 298 292 301 294 292 292 291 290 289 297 300 296 298 299 297 298 300 299 298 297 295 293 293 293 293 293 294 294 294 293
300 299 299 299 299 299 299 299 300 299 298 296 292 292 301 302 300 294 288 288 289 287 293 295 296 294 302 296 294 294 289 289 292 295 295 293 294 295 294 295 296 297 297 298 299 298 298 296 294 293 293 292 292 292
301 300 299 299 299 299 300 300 299 299 299 298 299 302 300 297 293 286 285 286 286 287 291 291 293 296 293 300 294 292 290 290 287 291 291 289 287 290 291 292 295 296 297 295 296 295 295 294 294 293 291 288 287 285
300 300 300 299 299 300 300 300 300 300 300 303 298 293 292 288 284 283 282 285 285 287 288 290 289 298 295 293 290 292 287 287 289 286 282 282 287 288 289 289 289 290 290 289 288 290 287 286 287 285 283 283 283 282
300 300 299 299 299 300 299 299 299 299 298 292 289 283 284 283 283 285 285 286 287 286 287 289 289 288 287 286 286 286 286 287 285 282 280 284 285 286 286 286 285 284 284 285 284 284 282 282 282 283 283 283 283 283
300 300 300 299 299 299 299 298 297 297 291 285 285 279 282 284 283 284 285 286 286 287 287 287 288 289 286 285 285 285 284 280 280 278 281 284 286 285 284 284 283 282 282 282 282 281 281 282 281 281 282 282 281 280
299 299 300 300 300 299 298 296 296 294 288 283 279 277 280 281 279 279 280 281 285 285 287 288 286 285 282 283 280 278 279 274 277 279 282 285 284 283 283 283 283 282 282 281 281 281 280 280 279 279 279 279 279 279
299 297 298 298 298 297 297 295 292 286 284 281 278 279 277 278 277 278 279 280 284 286 283 284 279 277 283 278 275 277 275 277 279 279 281 283 282 282 282 282 282 282 281 281 280 280 280 280 280 278 277 277 277 277
296 298 298 298 297 296 294 292 286 283 278 278 277 277 278 277 277 278 280 282 286 284 283 278 281 275 273 273 273 275 277 280 279 278 278 279 279 279 280 280 280 280 280 280 280 280 279 278 277 277 277 277 277 277
297 298 298 298 297 293 288 288 287 278 278 279 278 280 279 278 280 281 282 283 284 284 281 278 273 271 271 273 273 275 276 279 277 277 277 277 278 278 278 278 278 278 278 277 277 276 277 277 278 278 278 278 276 277
298 297 296 295 296 291 287 287 290 282 279 280 281 278 278 277 278 280 280 282 280 278 274 271 271 272 272 274 276 275 277 281 279 275 274 275 276 276 276 276 276 276 276 275 275 275 275 274 275 275 275 276 275 275
294 291 292 292 290 288 286 287 285 284 284 283 284 281 279 280 277 275 276 278 276 273 271 273 273 274 275 276 276 276 275 275 274 275 274 272 274 274 274 274 274 274 273 272 272 271 272 272 273 273 273 273 273 273
289 290 290 290 287 286 285 285 286 287 285 284 283 281 277 275 275 274 276 273 271 272 274 274 274 274 273 273 274 275 274 274 274 273 273 273 271 271 271 272 272 270 270 270 270 269 269 268 270 271 270 271 271 270
289 289 286 285 282 283 280 286 282 281 279 280 282 277 275 275 275 277 271 272 271 274 275 275 274 274 273 274 274 273 274 273 272 272 271 271 271 271 270 270 271 270 269 269 269 269 268 267 267 268 269 269 269 269
286 280 277 277 280 276 280 278 281 279 279 278 277 273 273 274 276 272 268 270 271 273 273 273 275 274 273 272 271 271 273 274 272 272 273 271 270 269 269 269 269 269 269 269 268 268 267 267 266 267 266 267 266 266
279 276 279 275 278 276 275 275 275 277 274 275 274 273 272 276 270 268 267 270 271 271 271 272 272 273 271 270 271 270 271 272 270 268 270 271 270 270 269 268 267 267 268 268 267 267 266 266 266 265 265 265 263 263
272 274 275 276 276 276 275 272 273 273 274 272 272 272 274 270 266 266 268 271 270 270 270 271 271 271 270 271 270 269 269 271 271 268 267 268 268 268 267 266 266 265 266 265 265 265 265 264 264 263 263 263 262 262
272 273 276 277 277 276 274 275 275 273 271 270 271 268 269 264 264 267 270 271 271 269 270 271 272 271 269 269 269 269 269 269 268 267 267 267 266 266 266 264 262 263 265 264 264 263 263 263 262 262 262 263 263 262
274 275 270 271 273 274 270 271 270 269 270 271 270 263 263 263 265 269 270 270 270 270 269 269 269 270 269 268 268 269 268 267 266 267 267 266 266 265 264 264 263 262 263 263 264 264 263 262 262 262 261 260 260 261
272 273 274 266 269 269 267 268 268 268 269 270 266 264 263 266 267 269 270 271 271 269 268 266 266 267 266 266 266 266 267 267 264 261 261 262 263 263 264 264 264 263 263 263 262 263 263 263 262 260 260 260 260 261
272 274 271 267 265 266 266 267 267 267 267 268 268 266 265 266 267 269 270 270 269 268 267 267 266 268 266 267 265 264 263 263 263 263 262 261 262 262 263 263 263 262 262 262 261 262 261 261 261 261 260 260 260 259
272 276 272 270 267 268 268 268 268 268 267 266 266 265 264 265 267 267 267 267 266 265 267 266 264 265 265 264 265 264 263 263 260 260 261 262 263 263 263 262 262 262 261 260 260 260 259 259 260 259 259 257 257 256
271 270 269 267 266 268 268 269 269 268 267 267 265 265 264 265 263 265 266 266 266 267 262 264 266 265 263 263 262 262 256 261 262 261 260 262 263 263 262 262 261 261 260 260 260 259 258 258 258 258 258 257 256 255
269 270 270 268 267 266 268 269 268 266 266 266 265 265 265 265 262 265 264 264 266 267 265 265 265 264 262 261 262 262 260 262 258 257 258 258 257 259 260 262 261 260 259 259 259 258 257 257 257 257 257 256 255 255

GFSWCAN_sfc_thetae_036.txt.gz
Theta_e
301 301 302 302 302 303 303 301 302 302 303 303 302 302 302 303 303 302 298 303 301 295 298 300 299 296 296 296 292 297 296 296 298 291 290 291 291 291 290 292 293 289 289 292 294 289 287 306 303 298 304 311 311 310
301 301 301 302 302 302 301 301 301 301 302 302 302 302 302 303 303 302 297 304 309 299 298 304 304 305 303 302 299 300 297 297 296 293 296 296 296 296 294 288 298 289 294 294 294 296 306 306 305 310 313 312 312 312
300 302 302 302 302 301 301 302 302 302 302 302 302 302 303 303 303 302 300 302 302 297 297 299 297 303 308 308 309 299 301 303 301 304 301 300 295 300 292 292 295 298 300 294 294 301 303 308 310 311 312 312 311 313
301 301 302 302 302 301 301 302 301 301 302 302 302 302 302 302 302 303 301 303 302 298 290 293 305 302 308 308 308 308 306 306 305 305 301 300 296 301 296 297 294 298 299 297 297 299 299 303 307 310 312 313 313 312
301 301 301 302 301 301 301 301 301 301 302 302 302 302 303 303 303 303 303 305 307 298 290 293 301 303 304 305 304 305 304 303 300 296 299 297 301 301 304 301 297 300 298 296 294 303 304 305 308 311 310 308 311 310
301 301 301 301 301 301 301 301 301 301 301 302 302 302 302 302 303 301 292 302 306 306 296 289 300 298 301 302 302 302 304 305 305 301 299 301 304 300 297 293 299 301 302 303 302 307 309 309 309 311 309 309 311 311
301 301 301 301 301 301 301 301 301 302 302 302 301 302 302 302 304 297 295 300 304 306 295 290 291 298 301 300 301 301 304 302 304 300 300 300 301 300 297 292 300 302 303 304 307 306 305 307 305 309 308 309 310 310
300 301 301 301 301 301 301 300 301 302 300 301 301 302 302 302 302 298 302 302 305 300 296 288 288 291 300 296 295 302 299 301 301 300 302 300 302 300 294 298 301 302 304 304 306 308 307 305 305 305 306 307 307 306
299 300 300 301 301 301 300 300 300 301 301 301 301 301 301 299 296 298 301 302 310 300 290 289 285 283 293 297 301 300 302 294 301 298 298 300 297 291 290 292 296 299 300 300 303 304 304 303 303 304 303 302 302 305
299 299 299 299 299 300 300 300 300 301 301 301 300 296 290 297 300 300 298 295 295 296 296 288 292 286 291 290 294 296 298 293 290 296 300 294 290 288 288 290 293 293 297 301 298 298 299 300 302 302 300 302 302 302
299 299 299 299 299 299 300 300 300 300 300 299 294 290 299 300 300 295 289 288 290 287 292 290 290 287 291 286 288 293 288 292 288 293 292 291 285 285 287 287 290 290 294 296 298 299 298 300 301 299 297 293 290 289
300 300 300 299 299 300 299 300 300 301 300 297 297 298 298 294 289 287 286 288 287 286 292 290 291 290 287 297 290 291 287 288 286 297 289 280 282 285 285 285 285 287 289 288 290 289 289 289 289 288 286 285 284 283
299 300 299 299 299 300 300 300 299 300 302 303 298 291 288 287 283 283 280 283 285 286 289 290 287 291 292 295 289 290 285 285 287 284 280 280 283 284 284 284 283 284 284 284 283 284 284 283 283 283 281 281 281 280
299 299 299 299 299 299 299 299 299 300 300 291 287 282 284 281 281 280 281 283 285 286 285 287 290 287 287 286 285 285 284 285 283 280 276 280 282 283 283 283 282 281 281 281 280 281 280 279 279 280 281 281 279 278
299 299 299 299 299 299 299 299 299 297 291 283 284 278 279 282 283 283 285 286 285 286 285 287 287 288 286 285 285 286 284 277 277 275 278 281 282 282 282 282 281 281 280 280 280 279 278 278 278 278 279 279 278 278
299 299 298 299 299 298 298 299 296 295 288 281 279 278 279 280 280 281 282 283 286 283 285 287 285 285 283 283 279 278 277 273 275 278 279 281 280 281 281 281 281 281 280 280 280 279 278 277 277 277 277 277 277 277
299 297 298 298 297 297 297 295 290 283 281 280 278 280 280 280 279 282 283 283 287 285 284 284 280 279 284 278 274 277 274 276 278 279 279 279 279 279 279 279 279 280 280 280 280 280 279 279 279 278 276 277 277 277
297 298 298 297 298 297 293 291 285 281 276 278 277 278 280 281 280 282 283 284 286 285 283 279 282 275 274 274 274 278 277 278 278 276 278 279 278 278 279 278 279 279 278 278 278 279 279 279 278 278 278 278 278 278
297 298 297 297 297 295 288 287 286 277 278 280 280 280 280 280 281 283 284 284 284 284 282 278 274 272 273 276 277 279 279 278 276 276 276 277 279 278 278 278 277 277 277 277 277 276 276 276 276 277 278 277 275 276
295 295 295 296 297 292 286 286 289 282 279 280 281 279 278 278 280 279 280 281 280 277 273 271 271 273 274 275 278 279 280 280 277 275 275 276 277 277 277 277 277 277 275 274 275 275 275 274 275 275 274 274 274 272
294 295 295 297 293 292 288 287 285 285 284 282 283 281 279 280 276 276 277 278 275 274 272 274 274 275 277 278 279 278 278 279 277 276 275 274 276 276 275 276 276 275 274 273 272 271 272 272 273 274 274 272 271 272
293 292 295 295 289 289 288 290 288 289 285 284 283 283 279 277 277 277 277 275 273 274 275 275 276 276 276 276 277 278 277 277 277 277 276 276 273 274 274 275 274 273 273 272 271 270 270 270 272 272 272 272 272 271
291 293 291 291 286 286 283 291 284 284 281 281 282 278 278 277 278 280 273 274 274 277 277 276 277 277 276 277 277 277 278 277 275 275 275 275 275 274 273 273 274 273 271 271 272 271 270 269 270 270 270 270 270 270
292 286 283 283 284 280 286 282 284 282 282 279 277 274 275 277 280 275 270 272 275 277 277 278 278 276 275 274 273 274 276 276 275 276 276 274 272 271 271 270 270 271 272 272 271 270 270 269 268 269 268 267 266 267
282 278 282 279 285 282 279 279 280 279 276 278 275 275 276 279 274 272 270 272 274 275 276 276 277 276 273 273 273 273 275 275 272 271 272 274 274 274 272 270 269 268 270 269 268 268 267 268 267 267 267 265 264 265
275 277 279 279 280 279 279 277 277 277 277 275 275 277 279 276 272 269 271 273 272 273 275 276 274 273 272 273 271 271 271 275 273 269 269 270 270 270 269 268 267 266 268 268 267 267 266 266 265 265 265 265 263 264
275 276 279 283 282 281 279 280 280 277 275 274 275 275 275 270 268 270 273 274 272 274 275 276 275 273 272 271 272 272 272 271 270 269 270 269 269 269 267 265 263 264 267 266 266 266 265 265 264 264 264 264 264 263
277 278 274 276 276 278 275 275 274 273 273 276 276 269 269 269 268 272 272 274 274 274 273 273 273 273 272 272 273 273 272 271 270 271 271 270 269 268 268 268 266 266 266 266 265 265 265 264 264 264 263 262 263 264
277 278 275 270 272 271 271 272 271 271 272 275 272 269 267 271 273 272 273 274 275 274 272 270 271 272 271 271 270 270 270 269 268 265 265 266 267 266 267 267 267 267 266 266 267 266 265 264 264 263 263 263 264 265
276 280 272 270 269 267 269 272 270 274 273 272 271 269 269 269 272 275 274 274 273 272 272 272 272 272 271 271 268 267 267 267 265 265 265 264 264 266 266 266 265 266 266 265 265 265 267 264 265 265 264 264 263 262
280 278 273 271 269 270 271 274 274 274 274 273 273 269 267 268 270 272 273 273 272 272 271 270 270 271 270 269 268 267 266 266 264 264 263 266 266 266 266 265 266 265 265 265 264 264 263 262 262 263 263 262 261 261
278 275 272 268 269 272 275 276 275 273 273 271 270 270 270 271 267 269 271 272 271 271 266 271 270 268 268 267 267 265 262 266 266 265 264 264 265 265 265 264 265 265 264 263 263 263 263 262 261 261 261 261 261 260
276 276 274 273 272 272 274 275 273 271 272 271 270 271 270 270 267 268 271 272 272 272 270 270 269 268 266 266 267 266 262 265 262 262 261 261 259 260 260 263 264 263 262 262 262 262 262 262 261 261 260 259 259 260

GFSWCAN_sfc_thetae_039.txt.gz
Theta_e
301 301 300 301 301 301 302 302 303 303 303 303 303 303 303 303 303 301 298 299 296 290 294 297 298 294 293 293 287 290 291 292 288 283 284 283 282 288 288 290 287 285 284 285 287 283 282 299 300 294 296 301 304 303
301 300 301 301 302 302 303 302 302 302 302 302 302 302 303 303 303 302 295 299 299 295 294 301 301 303 299 298 294 294 293 293 292 287 287 287 281 285 286 282 294 285 289 287 291 289 298 300 301 303 305 304 305 302
300 301 302 302 302 302 302 302 302 302 301 301 302 303 303 303 303 302 297 298 296 292 294 293 295 302 305 303 305 295 295 298 295 297 292 291 283 286 279 284 289 294 298 291 291 294 297 299 303 305 307 307 308 307
301 301 302 302 302 301 302 302 301 301 301 301 302 302 302 302 303 302 297 299 299 295 287 290 303 299 306 306 307 305 301 304 300 297 291 288 285 293 284 290 289 295 296 294 293 296 299 301 304 306 307 308 308 308
301 301 301 301 301 301 301 301 301 301 302 301 302 302 302 302 303 301 300 301 303 294 288 292 298 302 304 303 303 303 301 301 295 293 289 289 292 291 292 292 289 295 293 290 289 298 299 300 305 306 304 308 308 308
301 301 301 301 301 301 301 301 301 301 302 302 302 302 302 303 303 299 290 301 303 303 294 286 297 298 298 300 301 300 300 300 298 292 289 295 299 294 284 285 295 297 298 299 297 301 300 301 305 307 306 306 307 306
301 301 301 301 301 301 301 301 301 301 301 301 301 302 302 302 301 295 292 297 302 302 291 283 284 294 298 298 296 297 301 298 297 296 293 293 294 295 283 283 295 297 300 301 302 302 300 302 301 303 303 304 305 305
301 301 301 300 301 301 301 301 301 301 301 302 302 302 302 303 302 296 299 302 303 294 292 281 281 286 295 288 289 296 292 296 297 293 296 293 295 293 284 290 292 293 296 298 299 301 300 301 302 301 301 301 300 300
300 300 300 300 300 301 300 301 301 301 301 302 301 302 300 298 294 293 302 303 302 295 284 281 282 279 292 290 291 291 294 285 296 289 291 294 287 282 285 285 288 289 291 293 297 298 298 298 299 299 298 297 298 296
300 300 300 300 300 300 300 300 301 301 301 301 300 295 289 295 300 300 297 292 291 292 291 282 287 283 290 286 283 285 283 285 281 288 294 287 282 287 286 287 287 288 291 292 291 289 291 291 295 289 288 288 287 286
300 300 300 300 300 300 300 300 300 301 301 298 292 290 295 300 295 291 284 284 287 281 286 286 285 286 292 285 287 285 282 283 280 285 285 283 278 282 284 284 285 286 288 289 291 290 289 289 288 286 284 283 282 282
300 300 300 300 300 300 300 300 300 298 297 297 295 297 295 291 288 282 279 283 281 281 286 285 286 289 288 291 288 288 286 285 281 286 281 275 278 282 282 282 282 284 285 284 285 284 285 284 284 282 281 280 279 279
299 299 299 299 300 300 299 299 300 300 300 298 294 287 289 285 281 275 278 280 282 283 285 287 286 285 287 290 287 285 284 283 286 281 275 276 279 281 281 281 280 281 281 281 280 280 280 280 280 280 279 279 279 278
299 299 299 299 299 299 299 299 299 299 295 287 284 275 279 275 277 277 278 280 283 284 283 285 285 285 285 285 285 284 283 283 278 274 271 276 279 280 281 280 279 278 278 278 278 278 278 277 277 277 277 277 277 276
299 299 299 298 298 299 298 298 297 292 285 279 278 274 275 280 280 281 282 283 284 285 283 285 285 285 284 283 283 284 279 273 274 270 275 277 279 279 279 279 278 278 277 276 276 276 276 276 276 276 277 277 277 277
299 299 297 297 297 298 298 295 292 291 283 276 274 272 274 272 272 278 279 280 285 283 284 285 284 281 279 278 275 274 273 270 271 274 277 277 276 277 278 278 278 278 278 277 277 277 277 276 275 275 276 276 276 276
299 295 298 297 297 295 296 292 286 282 279 277 272 271 271 273 274 279 280 280 284 284 281 282 275 275 280 275 272 274 270 272 274 275 276 277 276 276 277 277 277 277 277 278 278 278 277 277 277 276 275 276 276 276
295 296 298 298 298 297 291 288 283 280 275 277 273 276 277 276 277 280 281 281 282 283 281 277 279 272 270 270 271 272 273 274 275 276 275 276 276 276 277 276 276 276 275 275 275 275 275 276 275 275 276 276 276 275
296 296 297 297 296 293 286 286 285 276 277 278 277 277 278 277 278 279 280 281 280 280 279 275 270 270 270 273 274 274 274 274 273 274 275 275 277 276 275 275 274 273 274 274 274 273 273 273 272 273 273 273 271 273
296 296 296 296 296 289 284 283 287 280 277 278 278 275 275 275 277 277 277 278 278 276 271 269 270 272 272 274 277 276 276 277 275 272 272 274 275 274 274 274 273 273 272 272 272 272 272 272 272 271 270 269 269 268
294 294 295 295 291 290 286 284 283 282 281 279 280 279 276 276 274 273 273 276 273 272 270 272 272 274 275 276 276 276 275 276 274 274 273 272 274 274 273 273 273 272 270 269 267 267 267 268 269 270 268 263 264 266
292 294 289 292 285 286 285 286 284 285 282 281 280 280 276 274 273 273 275 271 271 271 273 273 273 274 275 275 275 276 276 275 275 273 273 273 271 271 271 271 270 268 269 268 266 264 265 267 268 266 265 266 265 264
292 291 287 286 280 278 276 285 277 281 274 276 277 274 272 270 274 276 268 272 273 275 275 275 275 276 275 275 275 276 276 275 272 271 271 270 269 268 268 268 268 266 266 267 268 267 264 264 264 261 261 262 260 260
291 283 278 277 278 272 278 275 280 278 276 274 272 269 271 273 274 269 268 270 273 276 276 275 275 272 272 272 271 272 273 272 270 270 270 269 267 267 267 266 266 266 268 268 266 262 262 258 260 260 257 256 256 253
275 273 276 272 277 273 271 271 272 273 269 271 269 271 270 274 269 267 267 270 272 272 273 274 274 272 268 268 269 269 271 270 267 266 267 269 270 268 266 265 264 265 265 261 263 257 255 256 257 257 257 252 255 256
268 273 274 274 273 272 273 268 268 269 269 269 270 273 271 266 263 264 269 268 268 268 272 269 266 267 268 269 267 266 268 271 268 264 266 266 265 261 260 261 260 260 263 261 256 259 256 256 254 255 253 258 255 252
269 272 278 280 279 277 273 273 274 270 267 266 268 268 264 259 260 267 270 269 267 270 272 272 271 269 268 268 268 268 267 267 266 266 266 266 266 265 260 255 254 258 261 257 255 255 256 255 254 255 253 251 252 252
276 274 269 272 270 273 267 267 266 266 265 271 268 260 259 260 262 269 268 270 269 269 269 269 269 269 268 268 268 267 266 265 263 265 266 265 262 260 260 260 261 264 260 257 256 253 253 252 251 252 251 251 252 253
272 273 270 264 266 267 268 267 265 268 271 271 262 261 262 268 266 268 268 270 270 269 263 263 262 262 262 263 263 262 261 261 258 255 254 256 257 257 257 257 256 257 255 256 262 262 257 256 254 253 253 252 252 255
271 273 266 263 262 263 267 269 270 267 268 266 267 268 267 268 270 269 270 272 270 267 264 264 268 266 265 263 257 256 256 254 255 254 254 254 255 255 258 254 254 255 254 254 254 255 260 254 255 254 255 255 254 251
276 271 267 267 265 265 265 266 270 270 268 267 264 262 261 262 264 268 267 264 262 262 261 260 261 263 261 257 257 257 255 255 253 254 254 254 256 259 255 253 256 254 253 254 252 252 252 252 251 251 251 251 252 253
272 267 264 262 265 269 270 271 268 266 266 261 260 260 262 262 259 261 263 266 266 263 261 265 263 258 256 256 254 253 256 256 257 254 253 252 252 251 251 253 253 258 256 252 252 252 252 253 252 252 251 251 250 249
270 269 267 265 264 265 268 269 267 267 268 263 260 263 261 262 258 261 262 264 267 266 264 262 259 257 256 256 257 255 256 253 254 260 257 255 253 253 250 250 250 250 250 250 250 251 254 255 254 254 254 251 250 250

GFSWCAN_sfc_thetae_045.txt.gz
Theta_e
298 299 299 300 300 300 300 301 301 301 301 301 302 302 302 303 303 300 296 301 294 288 289 295 295 292 291 290 284 288 289 289 288 282 283 281 277 282 282 286 284 283 282 281 284 281 279 296 298 291 295 299 301 303
298 299 300 300 300 301 301 301 301 301 302 302 301 302 302 303 303 302 295 300 301 292 289 296 297 300 298 296 292 291 290 290 290 286 284 282 278 277 282 279 288 281 285 282 285 284 294 300 299 301 301 301 302 302
299 300 300 300 300 301 302 302 302 302 302 302 302 302 303 303 303 302 297 298 296 292 291 289 290 297 302 302 300 290 290 294 293 293 286 285 281 282 277 279 284 288 291 287 288 292 294 297 300 301 303 303 304 304
299 299 300 300 301 301 302 302 302 302 302 302 302 302 303 303 303 303 297 298 295 292 285 285 296 293 300 302 303 299 295 298 296 293 288 285 282 288 280 286 283 287 291 289 289 293 296 298 299 301 303 304 303 305
300 301 301 301 301 301 301 301 301 301 301 302 302 302 303 303 303 302 300 299 299 292 283 283 293 297 299 300 300 301 299 295 292 290 284 283 287 288 288 286 283 291 289 286 285 294 294 296 299 301 301 301 304 303
301 300 300 301 301 301 301 300 300 301 302 302 302 302 303 303 303 298 290 298 300 297 287 280 292 294 297 300 299 297 299 297 295 291 286 289 293 292 286 284 291 292 292 293 292 293 295 297 301 299 300 300 303 303
300 300 301 301 301 301 301 301 301 301 301 302 302 303 303 303 300 292 289 295 300 299 290 285 287 293 298 297 296 295 297 297 294 293 289 290 291 293 284 283 287 289 289 292 292 293 295 296 293 293 293 295 292 290
300 300 301 301 301 301 301 301 301 302 302 301 301 301 301 301 301 296 298 300 299 293 291 284 285 289 295 290 291 296 293 294 292 289 293 289 291 288 280 283 285 286 288 291 290 293 292 293 290 287 288 288 285 284
300 300 300 300 300 300 301 301 301 301 301 301 301 301 298 297 293 295 301 301 298 294 285 283 282 282 292 289 290 291 293 285 293 286 289 290 281 275 279 280 281 283 284 286 288 291 291 288 286 284 283 282 281 280
300 300 300 300 300 299 300 300 300 301 301 301 298 291 285 293 301 300 296 289 287 289 288 283 285 284 289 286 285 286 285 284 282 287 289 280 277 280 280 281 281 282 285 286 285 285 284 285 284 282 281 281 280 279
300 300 300 300 300 300 300 300 300 301 301 294 291 286 296 300 296 290 284 283 285 281 284 285 283 284 288 283 283 284 281 280 278 285 280 276 274 277 280 279 280 281 282 283 284 283 282 282 281 279 279 279 278 278
300 300 299 299 300 300 300 300 299 294 292 294 293 294 292 287 282 280 278 278 282 282 284 280 282 287 287 291 287 287 280 283 278 283 276 270 275 278 278 278 278 279 279 279 279 279 279 279 278 277 277 276 276 276
299 299 299 299 299 299 299 299 299 298 298 293 287 282 280 276 271 270 275 278 279 283 282 285 284 286 287 288 285 285 282 281 282 274 270 272 276 277 277 277 276 277 278 277 277 277 277 276 277 277 276 276 276 275
297 297 298 298 297 297 296 296 295 291 287 281 278 270 270 268 271 273 274 275 280 280 282 283 284 284 284 283 285 280 279 278 271 265 266 272 275 276 276 276 275 274 275 275 275 275 275 274 274 275 275 275 274 273
297 297 296 297 296 295 294 294 293 286 281 277 275 267 270 274 276 276 278 279 281 283 283 284 284 283 278 278 276 276 271 266 268 265 269 274 276 276 275 275 275 274 274 274 274 274 273 273 273 273 274 274 273 273
298 298 296 294 295 295 293 290 286 285 280 276 273 270 271 270 272 274 276 277 281 280 283 283 281 277 273 275 269 268 267 263 266 270 273 273 273 273 273 273 273 275 275 275 275 274 274 273 273 273 273 273 273 272
298 294 298 296 294 293 293 285 282 277 274 272 270 272 270 269 270 273 276 277 280 280 278 277 272 272 276 270 267 269 266 268 270 271 273 273 273 273 273 273 274 274 273 273 273 273 273 274 274 273 271 272 272 272
294 296 297 298 296 292 288 285 279 275 270 271 267 271 271 273 272 274 276 277 279 279 277 274 275 268 266 265 265 269 271 272 273 272 272 272 272 273 273 272 273 273 272 271 271 271 271 271 270 271 271 271 270 270
294 295 297 297 294 289 283 281 280 271 271 270 272 273 273 273 275 276 277 278 278 278 276 273 269 267 268 270 269 270 271 271 270 271 272 272 272 271 271 271 270 270 270 270 270 268 268 268 268 268 269 269 266 266
296 295 296 296 295 285 281 279 281 275 270 272 275 273 273 272 274 275 275 276 276 273 269 267 267 270 270 272 273 273 273 273 272 269 269 270 271 270 269 269 269 269 268 268 267 267 267 266 266 265 265 264 264 262
293 292 294 291 286 287 282 279 277 277 276 274 275 274 272 274 272 272 271 274 271 270 268 270 270 272 274 274 274 274 273 272 270 270 268 268 269 269 268 268 267 266 265 263 263 263 264 263 264 263 260 256 257 259
288 293 286 287 281 282 280 281 280 280 278 277 277 277 271 268 267 270 272 268 268 269 272 272 272 272 272 271 272 272 272 271 270 269 269 269 266 265 264 264 265 262 262 260 261 256 258 262 261 259 256 252 258 257
290 288 283 281 276 276 278 282 277 280 273 275 274 271 269 264 268 274 266 270 270 273 272 272 272 273 271 271 271 271 271 269 266 265 265 264 264 262 263 264 262 259 261 263 263 260 256 257 256 256 256 254 252 250
285 278 276 273 275 270 272 271 277 275 272 270 269 267 266 265 270 266 265 268 271 273 271 271 271 269 269 268 267 267 268 268 266 263 264 264 263 263 263 263 263 262 261 262 259 255 255 249 252 253 249 248 246 248
274 271 271 267 270 269 267 266 267 270 266 266 265 264 264 268 262 260 261 264 265 263 265 269 268 266 262 259 263 265 267 267 265 264 263 265 262 262 261 261 261 262 262 255 250 249 250 247 246 247 248 246 249 247
269 271 269 269 268 269 267 263 263 263 263 264 264 266 263 260 258 258 264 262 265 263 259 258 261 263 264 265 264 264 264 267 265 261 263 265 263 257 253 253 254 256 257 252 251 249 249 248 247 249 248 249 248 246
268 270 272 273 272 271 265 266 268 266 263 263 264 259 259 254 254 263 267 266 266 263 265 262 265 265 264 264 265 264 264 264 263 263 263 263 262 260 255 252 253 257 254 251 248 248 249 248 247 247 246 245 246 247
265 266 260 260 262 264 258 257 257 258 261 268 263 256 254 255 259 264 264 265 266 266 265 265 265 265 263 262 259 261 259 259 261 261 260 260 259 254 253 252 253 260 252 249 248 246 247 247 247 247 246 247 247 246
262 261 263 256 258 260 262 257 258 264 266 260 254 255 260 265 261 261 264 265 264 265 262 260 257 255 256 256 254 253 254 255 254 251 249 248 248 255 255 250 249 248 246 251 258 256 256 250 249 248 248 248 249 249
262 261 259 255 257 258 258 258 257 258 263 262 265 266 264 263 266 263 263 260 259 257 254 255 253 254 251 252 250 252 247 246 251 253 249 248 251 251 249 249 248 247 246 246 246 249 255 249 252 247 247 246 244 245
264 260 260 261 260 258 258 254 260 261 256 257 254 257 257 260 263 266 265 260 257 257 258 255 253 252 252 248 247 248 250 249 246 248 249 248 248 248 247 246 244 244 246 245 245 244 245 245 245 245 246 246 247 245
260 256 258 258 259 260 260 254 253 253 251 253 252 249 253 254 253 259 261 260 259 254 252 250 254 253 248 247 245 245 250 249 247 247 248 246 245 244 244 245 243 243 244 243 243 243 244 244 244 244 244 244 243 243
258 257 255 256 257 256 258 260 258 255 253 253 255 253 252 252 253 258 260 257 256 257 256 254 249 249 249 249 250 248 249 247 247 255 252 252 248 249 243 242 242 243 244 243 242 242 243 244 243 242 242 241 240 240

GFSWCAN_sfc_thetae_048.txt.gz
Theta_e
297 297 298 298 298 299 299 300 300 300 301 301 301 301 301 301 302 300 297 301 295 287 291 294 294 291 291 290 284 288 287 288 287 282 281 280 278 282 281 284 283 282 279 281 283 280 276 292 295 288 292 297 296 297
297 297 298 298 298 299 300 300 300 300 301 301 301 301 301 301 301 301 293 300 300 291 291 296 297 299 297 295 292 291 287 289 288 283 283 281 277 276 281 277 286 281 284 281 283 283 290 296 297 300 299 296 298 298
297 298 298 298 299 300 299 300 300 301 301 301 301 301 302 302 302 301 296 297 296 290 290 291 290 296 301 301 300 290 290 294 292 291 285 283 279 280 276 278 283 286 289 285 286 289 291 293 295 297 300 300 302 301
299 299 299 299 299 299 300 301 301 301 302 302 302 302 302 302 302 302 297 299 295 291 285 285 294 293 299 300 299 298 295 298 297 295 288 282 280 286 279 284 282 286 288 287 287 290 292 294 296 298 299 301 302 302
298 298 298 300 301 301 301 301 301 301 302 302 302 303 302 303 303 302 300 299 298 290 283 283 292 295 296 299 298 299 297 295 293 290 287 283 284 286 284 285 282 288 287 284 282 290 291 292 296 294 296 296 298 301
300 300 300 301 301 301 301 301 301 301 301 302 302 303 303 302 303 299 288 298 299 296 289 280 289 291 293 295 295 297 298 296 294 291 288 289 291 290 280 278 289 291 291 292 290 291 291 292 295 292 291 291 292 291
300 301 301 301 301 301 301 300 300 301 301 302 302 302 303 302 300 292 290 295 300 299 289 282 280 290 294 294 294 295 296 295 295 291 289 289 289 291 280 279 286 287 287 289 292 291 291 292 289 289 288 288 289 286
300 300 300 300 301 301 301 301 301 301 301 302 302 302 302 302 301 296 298 301 300 294 291 278 284 288 294 286 289 293 292 294 294 288 291 289 291 287 282 280 282 283 285 288 288 289 291 290 287 285 285 285 282 280
300 300 299 300 300 300 300 301 300 301 302 302 302 302 298 296 293 295 301 300 299 293 284 284 281 281 292 290 291 291 291 285 292 286 287 289 280 273 276 278 279 280 281 283 285 288 288 287 283 282 281 281 279 278
300 300 299 299 300 300 300 300 300 300 300 300 296 291 285 295 301 300 294 289 289 289 288 280 286 284 289 286 285 286 285 285 283 285 286 279 275 279 279 279 280 280 282 283 282 282 282 282 281 279 279 280 279 278
300 300 300 300 300 300 300 300 300 301 300 294 289 289 296 300 294 289 284 283 285 283 286 285 285 285 288 283 284 282 282 281 281 284 279 275 272 276 278 277 278 279 280 280 281 280 280 279 278 278 277 277 277 276
300 300 300 299 299 299 299 299 299 296 294 295 294 295 292 286 283 282 280 282 282 281 284 284 286 287 287 292 285 286 281 282 278 281 275 268 273 276 276 276 277 278 278 277 278 277 278 278 277 276 276 275 275 274
298 298 298 297 297 297 297 298 296 300 297 290 286 281 281 275 269 268 276 278 278 282 282 285 283 285 286 289 286 283 281 278 280 272 269 271 274 276 276 276 276 277 277 276 276 276 276 275 275 275 273 274 274 273
297 298 297 296 296 296 295 293 294 291 286 280 276 267 266 264 270 273 272 273 279 280 281 283 284 284 284 282 282 277 275 275 267 262 265 271 274 275 275 276 274 273 274 274 273 274 273 273 272 273 273 273 273 271
298 296 294 295 296 294 293 293 291 285 281 276 273 265 268 273 274 275 276 277 279 281 282 283 281 280 277 276 274 274 268 262 266 263 268 272 274 274 274 274 274 273 273 273 273 273 272 272 272 271 272 272 272 271
298 296 294 294 294 293 291 288 285 284 279 274 272 269 270 270 271 272 273 273 279 278 282 282 278 272 271 274 267 265 265 261 263 266 271 272 272 272 272 273 273 273 273 273 273 273 273 272 271 271 271 271 270 270
297 293 297 297 296 293 291 283 281 276 273 271 268 271 268 267 269 271 274 275 279 279 276 276 271 269 273 267 266 268 261 263 268 271 272 272 272 272 272 272 272 272 272 272 272 273 273 273 273 271 269 270 270 270
293 295 297 297 293 290 285 282 277 275 269 270 268 270 271 273 272 273 275 277 278 278 277 272 275 268 265 265 265 268 269 271 271 271 271 271 271 271 272 271 271 271 271 270 271 270 271 270 270 269 269 269 268 268
294 295 297 296 291 284 280 278 278 270 270 270 272 274 274 273 275 276 277 277 277 278 276 273 267 267 265 268 269 270 271 271 270 270 270 271 271 270 270 270 270 269 269 269 269 268 267 268 267 267 267 266 264 264
296 295 295 295 292 283 279 277 280 274 270 272 275 273 273 272 274 274 275 276 275 273 269 267 267 270 270 272 273 272 272 273 271 268 268 269 269 269 268 269 268 268 267 267 266 266 266 265 264 264 263 263 261 258
292 291 293 289 285 284 279 277 275 275 274 274 275 275 272 274 271 270 270 274 271 269 267 269 269 271 272 272 273 273 272 271 269 269 267 266 268 268 267 266 266 265 263 262 262 262 262 262 262 261 258 253 252 255
287 292 281 284 281 281 278 279 277 278 277 276 276 275 270 265 264 268 271 267 267 268 271 270 271 271 270 270 271 271 271 270 269 268 268 268 265 264 262 262 263 260 260 258 258 254 258 261 259 257 254 250 256 255
288 286 280 279 275 275 278 282 276 278 270 272 275 270 266 262 267 273 266 269 269 272 271 271 271 271 270 270 270 269 270 268 265 264 263 263 263 259 262 262 259 257 259 261 261 258 255 257 256 252 251 251 248 248
284 277 270 269 272 267 271 268 276 273 272 270 268 265 265 264 269 265 264 267 269 271 270 270 270 269 268 267 265 266 266 266 264 262 263 263 262 262 262 262 261 260 259 261 258 253 253 247 251 252 246 245 244 245
274 270 269 266 270 268 264 263 264 268 263 265 265 264 263 267 261 259 260 264 265 263 264 267 266 265 260 260 263 264 266 266 264 262 259 263 261 261 260 260 260 261 259 252 249 248 247 245 244 246 247 244 249 248
267 269 267 266 265 268 266 262 262 263 262 262 262 263 261 258 256 256 262 258 263 259 256 256 261 263 263 265 263 263 264 266 264 260 263 264 261 254 252 252 253 256 256 251 249 247 248 247 246 248 247 248 247 245
261 263 270 271 270 269 263 263 266 264 261 261 261 257 257 253 254 261 265 263 263 259 262 260 263 264 263 263 263 263 263 263 262 261 261 261 260 259 254 251 252 256 253 250 247 247 248 247 246 246 245 243 245 245
263 264 260 258 261 263 257 258 258 258 260 266 262 254 253 254 258 263 263 263 264 264 263 262 263 263 261 260 259 260 258 257 259 259 259 259 257 254 251 250 253 258 251 247 246 245 246 246 246 246 244 245 246 245
259 258 261 255 257 258 260 256 257 263 265 258 254 255 259 263 260 261 263 265 265 264 260 257 255 252 254 255 253 252 252 252 253 250 248 248 247 252 250 248 247 246 244 249 256 252 252 249 247 246 245 245 246 244
259 259 257 253 255 256 255 257 256 257 262 261 265 266 263 263 265 263 263 262 261 258 253 251 249 249 249 250 249 251 248 246 250 255 252 247 250 248 245 247 246 245 244 244 245 248 254 248 250 246 245 244 243 243
261 257 258 259 259 259 258 254 260 259 255 257 254 256 256 258 263 264 261 254 253 254 255 251 250 247 250 247 247 247 250 248 244 246 246 245 245 245 245 244 242 242 245 245 244 243 244 243 241 242 243 244 243 241
255 252 256 256 258 258 257 250 251 252 249 253 252 248 251 253 252 258 259 257 255 255 252 249 251 253 249 246 244 244 248 248 246 246 246 245 245 243 242 243 240 241 242 242 241 242 242 242 242 241 241 241 240 240
256 256 254 255 255 255 255 256 255 254 251 252 253 250 248 251 253 257 258 255 257 258 255 252 249 246 247 247 248 246 248 246 246 255 251 251 247 247 242 241 241 242 243 242 241 241 242 243 242 241 241 240 240 239

GFSWCAN_sfc_thetae_051.txt.gz
Theta_e
298 298 297 297 297 297 298 298 298 299 299 300 300 301 300 300 300 298 296 300 293 287 291 293 293 290 291 290 286 289 288 288 287 283 283 283 281 284 283 287 285 283 283 283 284 281 278 294 297 290 295 300 300 300
299 299 299 298 298 298 298 299 299 299 299 300 300 301 301 300 301 301 293 300 299 291 291 297 298 299 297 296 292 291 289 289 290 286 286 285 283 283 285 281 289 284 288 286 287 287 294 296 298 302 300 300 301 301
299 299 298 297 298 298 298 299 299 299 300 300 300 300 301 301 301 301 295 298 295 286 290 292 291 297 301 301 301 290 292 294 292 295 290 288 283 285 282 283 287 289 291 288 287 292 294 296 297 298 298 299 300 302
298 298 298 299 299 299 299 299 300 299 300 300 300 300 300 300 300 300 295 298 294 290 285 287 297 295 300 300 301 300 297 299 298 297 291 288 285 288 285 288 287 290 291 289 289 292 294 296 297 295 295 296 296 297
299 300 301 299 299 299 299 299 299 299 300 301 302 301 301 301 301 299 298 298 297 291 284 286 293 295 298 298 297 299 297 296 295 290 287 287 289 289 288 288 286 291 289 288 287 290 290 292 296 294 292 291 292 291
300 300 300 300 300 301 301 301 301 301 301 302 302 302 302 302 301 297 288 298 298 298 288 283 291 292 294 297 295 295 296 296 294 291 289 291 293 292 285 284 290 291 290 291 290 292 293 294 295 290 289 288 289 287
300 300 300 300 300 301 301 301 301 301 301 301 302 302 303 302 300 290 290 295 299 298 289 283 283 291 293 293 294 295 297 295 294 291 290 290 291 293 287 284 284 285 286 288 291 290 292 292 288 288 287 287 286 284
300 300 300 300 300 301 300 300 301 301 301 301 302 302 302 302 300 295 299 301 300 293 291 282 282 288 294 288 288 294 291 292 291 288 290 290 291 290 285 280 281 282 283 287 286 288 288 290 287 284 285 284 282 280
300 300 299 299 300 299 299 300 300 301 302 302 302 302 300 295 292 295 301 300 300 294 284 283 279 281 293 289 291 291 293 286 293 287 288 288 282 281 276 277 278 279 280 281 283 286 287 285 282 281 281 281 280 279
300 299 299 299 300 299 300 300 301 301 302 300 297 290 285 294 301 299 294 290 290 290 290 284 286 283 289 288 287 287 288 286 283 286 285 279 276 278 278 278 278 279 280 281 280 281 280 280 279 278 278 279 278 278
300 299 299 299 299 300 300 300 300 300 300 295 290 289 296 300 294 290 284 283 285 282 285 286 285 285 290 285 285 286 284 285 282 282 280 276 274 276 278 277 278 279 279 280 280 279 279 279 278 277 276 276 276 275
299 297 297 297 299 300 299 299 299 296 294 294 293 293 290 285 284 283 280 283 283 281 285 284 286 287 287 287 285 285 283 283 278 281 276 270 274 276 276 276 276 278 277 277 278 277 277 277 277 276 275 274 274 273
297 297 297 296 296 296 296 298 299 297 293 289 284 280 280 275 270 271 274 277 278 280 282 285 284 285 287 289 285 285 281 276 280 272 269 271 274 275 275 276 275 276 276 275 275 275 275 274 275 274 273 273 273 272
296 296 297 296 295 294 293 295 294 290 285 280 278 269 270 267 270 273 273 274 279 281 280 283 285 282 283 280 281 276 275 275 268 266 266 272 273 274 275 275 274 273 274 274 273 273 273 272 272 272 272 272 271 270
295 295 294 295 295 293 293 292 290 286 281 275 274 267 269 272 274 275 275 277 278 280 281 284 279 280 277 275 274 273 269 266 268 266 269 272 273 274 274 274 273 273 273 272 273 272 271 271 270 270 271 272 271 271
296 295 295 297 293 292 290 288 285 283 279 274 271 269 270 270 270 271 272 274 278 278 282 281 275 273 272 273 268 265 267 264 266 269 272 273 272 272 272 273 273 273 273 273 273 272 272 271 270 270 271 270 270 269
296 292 297 297 294 290 290 283 281 276 273 271 269 271 270 270 270 271 274 275 279 279 275 276 270 270 273 267 265 268 264 267 270 271 273 273 272 271 272 272 272 272 272 272 272 272 272 272 272 271 269 270 270 270
293 295 297 296 291 288 283 281 277 274 269 271 268 270 272 273 272 273 276 277 278 278 276 272 274 268 266 265 265 268 270 271 272 271 271 271 271 272 272 271 271 272 271 271 271 271 271 270 270 269 269 269 268 268
294 292 296 295 289 284 280 278 278 270 270 272 273 274 274 274 275 276 277 278 278 279 276 273 269 267 267 269 269 270 271 270 269 269 270 271 271 271 270 270 270 269 270 270 269 268 268 268 268 268 268 267 266 266
295 295 295 293 290 282 278 277 280 274 270 273 275 273 273 272 273 274 274 276 275 272 269 267 267 269 270 271 273 272 272 272 271 268 268 269 270 269 269 269 268 268 268 267 267 267 267 266 265 265 265 265 264 262
289 290 290 287 283 282 279 277 275 275 275 274 276 275 272 273 271 270 270 273 270 269 267 269 269 271 272 273 274 273 272 272 270 270 268 267 268 268 267 267 267 266 265 264 264 264 264 263 264 263 263 261 261 262
285 290 281 284 280 280 278 279 277 278 278 276 276 274 269 267 266 269 272 267 267 268 270 270 270 270 270 269 270 271 270 270 269 268 268 268 266 265 264 264 264 262 262 262 263 262 262 263 262 262 261 260 261 261
287 285 280 280 274 273 275 282 275 278 272 274 273 269 266 265 269 273 266 269 269 271 271 270 270 271 269 269 269 269 269 268 266 265 264 264 264 263 264 263 263 262 262 263 263 262 261 260 259 259 259 260 260 259
283 276 270 268 272 269 270 268 275 273 272 270 268 265 265 265 269 266 264 266 269 270 270 270 270 269 268 267 266 266 266 266 265 264 265 265 263 263 264 263 263 263 263 263 261 259 258 257 256 259 257 258 257 258
271 268 268 263 268 266 264 263 265 268 264 265 264 263 264 267 263 261 262 265 266 264 265 267 267 266 263 264 265 266 267 267 265 263 264 265 263 263 262 262 262 262 262 261 259 259 257 256 256 258 258 257 258 257
264 266 264 264 264 266 265 262 262 263 264 263 262 263 262 261 259 259 264 262 265 264 261 261 264 265 265 266 265 265 265 267 266 263 263 265 263 261 260 260 260 261 260 259 259 259 258 256 256 257 257 256 252 256
259 260 268 269 269 268 263 264 266 263 260 260 260 257 257 253 254 262 266 265 265 262 264 264 266 266 264 264 264 263 263 264 263 263 262 262 262 262 260 259 259 261 259 258 258 259 259 257 257 257 256 255 255 255
262 263 260 258 260 262 256 257 257 257 261 265 261 255 253 254 260 264 264 265 264 264 262 262 263 264 263 262 261 261 260 260 260 261 262 261 259 258 257 258 258 258 257 257 257 255 257 257 257 256 255 256 256 255
260 259 261 254 257 257 258 256 258 262 264 259 255 257 260 262 262 263 265 265 265 263 260 259 257 257 257 257 256 256 258 259 260 255 255 256 256 259 256 256 256 255 255 258 256 256 258 257 256 256 255 255 254 252
259 259 257 253 254 256 256 259 258 259 261 262 265 265 263 263 264 265 265 264 262 259 256 256 254 257 257 258 257 257 254 253 256 259 258 257 257 256 254 255 256 254 253 255 256 258 257 255 256 254 254 254 253 254
260 257 258 258 258 260 260 256 259 260 256 258 256 256 258 259 262 263 259 256 255 255 257 257 255 252 255 254 256 255 256 255 249 251 253 253 253 254 254 252 251 251 252 253 253 253 254 253 252 253 253 253 251 249
254 251 256 256 257 259 258 253 252 254 253 256 255 252 254 256 255 260 260 260 259 258 255 255 256 259 255 253 250 251 249 255 253 253 253 253 255 252 251 251 249 250 252 252 252 252 251 251 252 251 251 251 250 249
256 256 254 256 256 255 255 256 255 255 253 253 253 250 249 253 255 259 259 257 260 261 257 257 254 252 252 252 254 253 250 253 250 256 251 252 249 251 251 251 250 251 252 252 251 251 251 250 251 250 250 249 248 248

GFSWCAN_sfc_thetae_054.txt.gz
Theta_e
298 299 299 299 299 299 298 298 298 298 298 298 298 299 299 299 299 299 296 302 294 286 289 294 293 290 291 290 285 290 289 288 287 286 285 285 285 287 286 289 287 284 284 285 286 282 280 297 296 291 299 302 301 302
298 299 299 300 300 299 299 298 298 298 298 298 299 299 300 300 300 300 295 301 301 290 290 297 297 300 297 296 292 292 291 291 292 289 289 289 286 290 287 283 293 286 290 288 289 289 297 300 300 302 303 301 302 303
299 300 299 299 298 299 298 298 298 298 299 299 299 299 300 300 301 300 296 300 295 288 289 292 293 298 302 301 301 290 293 296 295 298 293 292 286 291 285 287 289 292 296 292 292 295 297 298 301 301 301 301 301 302
299 299 299 299 300 299 299 299 298 299 299 299 299 299 300 300 302 301 295 297 295 291 285 289 299 297 302 302 301 300 298 299 298 298 293 291 288 294 289 291 290 293 295 292 292 295 297 298 300 300 299 300 299 300
299 299 300 301 301 300 299 299 299 299 300 300 300 300 300 301 302 299 298 298 298 293 287 290 295 297 300 300 299 299 298 296 295 292 289 288 293 292 294 293 290 295 292 291 289 296 296 296 299 297 297 296 296 295
300 300 301 301 300 300 300 299 299 300 300 300 301 300 300 300 301 294 286 297 299 300 291 286 296 294 297 299 297 296 298 296 295 291 290 294 297 293 289 288 294 295 295 295 294 296 296 298 299 294 294 293 292 291
300 300 300 300 301 301 301 301 301 300 300 301 301 302 300 301 297 291 292 297 300 300 290 287 288 294 296 297 297 295 298 296 295 292 290 291 293 295 289 287 288 288 290 291 292 290 293 291 291 290 289 289 289 289
300 300 300 300 299 300 300 301 301 301 301 302 302 301 301 301 298 294 301 300 300 294 293 286 287 290 296 291 290 297 293 294 291 290 291 290 293 292 286 282 285 286 287 289 287 288 287 289 287 285 286 286 287 284
299 299 299 299 299 300 300 300 301 301 301 301 302 302 300 295 292 295 301 300 302 295 288 287 285 283 295 292 293 293 294 285 292 287 289 292 288 285 278 280 281 281 282 283 286 288 287 285 283 282 282 282 283 280
298 298 299 299 299 300 300 301 301 301 301 301 298 290 287 295 301 299 294 288 289 292 293 288 293 285 291 290 290 290 292 287 284 287 288 286 281 279 280 280 280 280 281 283 283 284 283 282 281 279 278 279 278 277
298 299 300 299 299 299 300 301 301 301 300 295 289 288 296 300 296 291 286 287 286 284 288 290 290 287 293 287 287 292 286 288 283 284 286 282 280 278 280 280 280 280 281 281 281 281 281 281 280 278 277 277 276 276
298 298 299 298 299 300 300 300 300 300 298 296 293 293 289 288 288 285 284 284 284 282 286 286 288 290 290 292 290 289 286 286 282 287 284 279 276 277 278 277 278 279 279 278 279 279 279 279 279 277 276 275 274 274
296 297 296 296 296 298 297 297 297 297 297 294 290 283 285 282 278 280 279 282 282 284 286 286 285 288 288 289 286 288 284 281 285 281 277 275 276 277 277 278 277 278 278 277 276 276 276 276 276 275 273 274 274 273
296 296 296 295 295 294 294 293 293 293 291 285 282 275 277 275 276 277 278 280 281 283 285 285 286 286 286 284 283 280 280 282 277 275 272 275 275 276 277 277 276 275 275 275 274 274 273 273 273 273 273 273 272 271
298 297 294 294 294 293 292 292 290 288 284 279 279 272 274 276 278 278 280 281 282 283 284 285 284 286 282 279 279 279 276 273 275 273 274 276 276 276 276 275 274 274 274 273 274 273 272 272 272 271 272 272 272 271
296 297 295 292 293 291 290 289 288 287 282 277 275 274 277 277 276 278 278 280 282 281 285 286 281 279 276 277 274 271 275 272 271 274 275 276 274 274 274 275 275 275 274 274 273 273 272 272 271 272 272 271 271 271
297 295 297 292 290 289 289 286 283 278 276 274 273 276 276 276 274 276 278 279 282 282 281 281 276 273 277 274 270 272 271 272 274 275 276 276 274 274 274 274 274 274 274 274 274 274 273 274 274 273 271 272 272 271
295 297 296 295 293 289 285 284 279 277 273 275 273 274 276 276 276 277 279 280 282 281 280 274 278 272 271 268 270 271 273 274 275 275 275 274 274 274 275 274 274 274 273 273 273 274 274 273 273 272 272 271 271 270
296 296 295 293 292 287 281 280 281 273 274 276 276 277 277 277 278 279 280 280 281 281 279 276 272 271 270 273 273 273 273 273 272 272 273 273 273 273 272 273 273 273 273 273 272 272 272 272 272 272 272 272 271 271
294 294 293 292 292 285 279 278 283 276 273 275 277 274 274 274 276 277 277 277 277 275 271 269 269 271 272 274 275 274 274 274 274 272 271 272 273 273 273 273 273 273 272 272 272 272 272 271 271 270 271 270 270 269
294 294 292 292 289 286 282 279 277 278 277 275 276 275 273 275 273 273 273 276 272 270 269 271 271 273 275 276 277 277 276 277 275 275 273 271 272 273 272 271 272 272 271 271 270 269 269 269 269 269 269 268 268 268
292 290 292 291 285 283 282 283 280 281 278 277 276 276 273 272 272 272 274 271 269 270 272 273 274 274 273 273 274 274 274 273 273 272 271 272 271 271 270 271 271 269 269 269 269 269 268 268 269 269 268 267 267 267
290 290 287 286 281 281 279 285 279 279 276 276 276 272 272 272 273 276 270 271 271 273 274 273 273 273 272 272 272 272 273 272 271 271 270 270 270 270 270 270 270 269 268 268 269 269 267 264 265 267 267 268 268 267
285 279 277 279 281 276 279 277 279 277 277 275 273 269 270 272 274 271 268 269 271 273 273 273 273 272 272 272 271 271 271 272 271 271 271 271 269 268 269 268 269 268 268 268 268 267 267 266 264 267 266 266 266 266
278 272 276 273 277 275 274 274 273 275 272 273 271 270 270 274 270 268 267 270 271 271 272 272 272 272 271 270 271 270 271 272 271 269 269 270 269 269 268 268 268 267 269 269 267 266 265 265 266 265 265 265 264 262
269 270 272 272 274 275 274 272 272 272 272 269 269 270 273 271 267 266 269 271 271 271 272 272 272 271 271 272 271 270 270 271 272 269 268 269 269 269 269 267 267 266 267 267 268 267 265 265 264 262 264 261 259 261
268 268 271 271 273 273 272 273 273 272 269 268 269 267 268 264 264 267 270 272 272 271 272 272 273 272 270 269 269 269 269 269 269 268 268 267 267 267 268 267 264 266 267 266 266 266 265 264 264 263 263 264 264 263
268 268 265 264 266 268 265 266 266 265 267 269 269 263 263 263 265 269 270 270 271 271 270 269 270 270 269 268 268 268 267 267 266 267 267 267 266 266 265 266 264 262 265 265 266 265 265 264 264 263 262 262 262 263
266 267 266 259 263 264 263 263 264 266 267 268 265 264 264 266 267 269 269 270 271 270 268 267 266 267 267 266 266 268 268 268 265 262 261 265 265 265 265 266 266 265 265 265 260 262 264 263 263 263 262 262 262 261
265 268 264 261 260 261 264 265 265 266 267 268 268 267 266 266 267 270 270 270 270 269 268 267 266 269 267 267 265 264 265 264 264 265 265 264 265 264 264 264 264 263 263 264 264 263 261 262 261 262 261 261 262 261
268 268 265 264 262 265 265 268 268 268 268 267 268 266 265 267 268 267 266 266 266 266 266 266 265 266 266 266 267 266 265 263 259 260 262 263 263 264 262 261 261 262 262 262 261 261 261 261 261 260 260 259 257 257
266 264 263 262 264 266 267 267 268 267 268 268 266 267 266 267 264 267 265 267 267 268 263 267 268 267 265 264 262 262 259 262 262 261 260 262 263 260 261 261 260 261 261 260 261 260 258 258 259 258 258 257 257 256
267 267 267 266 264 265 265 267 267 266 266 266 264 263 263 265 262 265 265 264 266 268 267 266 265 264 262 263 263 262 262 262 259 260 257 257 255 258 261 262 261 260 259 259 260 259 258 257 258 257 257 256 256 256

GFSWCAN_sfc_thetae_057.txt.gz
Theta_e
298 298 298 298 299 299 299 299 299 298 298 298 298 298 299 299 299 300 297 301 295 289 291 293 293 290 291 293 288 291 288 289 287 286 286 286 286 288 287 289 288 286 285 285 286 283 281 298 297 291 299 302 302 302
298 298 298 299 299 300 300 300 300 299 298 298 298 298 298 298 299 299 294 299 302 291 291 297 298 297 297 296 292 292 291 291 293 290 291 290 288 290 288 284 294 286 291 288 289 289 298 301 302 303 303 302 302 302
298 298 299 299 300 300 300 299 300 299 298 298 298 298 299 299 300 300 296 298 296 289 290 292 291 297 300 299 302 290 294 293 297 300 294 293 287 291 285 288 290 294 296 292 292 296 297 299 303 303 303 302 303 303
298 299 299 299 299 300 300 299 299 299 298 298 298 299 299 299 300 300 297 300 296 292 284 288 298 294 299 302 300 300 298 300 299 298 295 292 289 295 290 292 291 294 295 293 293 296 298 299 302 302 301 302 301 301
299 299 300 300 301 301 301 300 299 299 299 299 299 299 300 300 301 299 299 301 302 292 286 287 296 299 300 299 299 299 297 295 293 292 290 290 294 293 294 294 291 296 293 292 291 298 298 299 300 301 298 298 298 297
299 300 300 301 301 301 301 300 299 299 299 299 300 300 300 300 300 296 288 296 303 301 288 285 296 297 299 299 298 298 297 295 294 292 291 294 297 295 289 288 295 297 299 297 296 297 298 299 300 298 296 295 294 294
300 300 300 300 301 301 301 300 300 300 300 300 300 300 301 301 299 291 292 298 301 301 289 286 288 296 297 297 297 295 297 295 292 290 289 293 296 295 291 287 292 293 294 295 295 294 295 294 293 293 293 293 293 291
300 299 299 299 299 300 301 300 301 300 300 300 300 300 300 299 299 295 302 300 300 293 293 288 288 291 298 292 291 297 292 294 293 294 293 292 294 294 287 288 290 290 291 293 291 292 292 293 290 288 288 288 287 285
299 299 299 299 300 299 301 301 301 301 301 301 301 301 297 294 290 296 300 300 302 296 288 289 286 285 296 293 294 294 295 288 294 291 290 293 290 285 281 284 284 284 285 286 289 291 289 287 286 286 286 285 283 281
299 299 299 299 300 300 300 301 301 301 302 301 295 290 286 294 300 299 293 288 289 293 294 289 294 287 294 292 291 291 292 288 285 287 291 288 280 282 283 282 283 283 285 285 284 286 284 284 283 282 281 281 280 279
299 298 299 300 300 300 300 301 301 301 299 295 288 288 296 300 295 290 286 287 288 287 291 292 293 288 294 288 288 293 288 289 283 286 286 285 279 279 282 282 282 282 283 282 282 282 282 282 282 281 279 279 278 278
296 297 299 299 300 300 301 300 300 300 297 296 293 295 295 292 290 287 286 287 286 285 289 288 291 293 292 296 290 292 287 288 282 290 287 282 278 280 280 279 280 280 280 279 280 280 280 280 280 278 277 276 276 276
296 296 297 296 298 300 300 300 300 299 300 298 291 287 289 285 283 283 279 283 284 286 288 288 287 290 291 291 288 289 283 284 290 284 281 278 279 279 279 280 278 279 279 278 277 277 277 276 277 275 274 275 275 274
296 296 296 295 296 297 295 295 296 297 295 289 285 277 281 279 280 280 281 282 283 285 287 287 286 286 287 285 286 282 283 285 280 279 276 277 277 278 278 278 277 276 276 276 275 275 274 274 274 274 274 274 273 272
295 295 295 293 293 293 292 293 294 294 289 282 283 276 276 279 280 281 282 283 284 286 287 287 287 288 285 281 283 282 279 278 278 276 276 277 278 277 277 276 276 275 275 275 275 274 273 273 273 272 273 273 273 272
297 297 292 293 292 291 292 291 292 291 285 281 279 278 281 281 280 281 282 283 285 286 288 288 283 281 279 282 278 276 279 276 275 277 277 277 276 276 276 276 276 276 276 275 275 274 274 273 272 272 272 272 272 272
297 296 291 291 291 290 291 290 287 281 280 278 276 280 280 279 278 280 281 281 285 285 283 284 279 276 282 278 274 276 274 275 277 278 279 278 276 276 276 276 276 276 276 276 276 276 275 276 276 275 273 273 273 272
297 297 294 291 293 291 287 287 283 280 275 278 276 278 279 280 280 281 282 283 285 284 283 278 282 277 275 273 273 275 276 278 278 277 277 277 277 277 277 276 276 276 276 276 276 276 276 276 275 274 273 273 273 272
296 296 295 294 293 288 283 283 284 276 277 279 279 280 280 280 281 282 282 283 284 285 283 280 276 274 273 276 275 275 276 276 274 275 275 275 275 275 275 275 276 276 275 275 275 274 274 274 275 275 275 275 274 274
294 294 293 293 293 286 280 280 285 279 276 277 279 278 278 278 280 281 280 280 280 278 274 272 272 275 275 277 278 277 277 277 276 273 273 275 277 277 277 277 275 275 275 275 275 275 274 274 273 273 273 273 273 272
294 293 293 294 289 287 283 281 279 279 278 277 279 278 277 279 277 277 276 278 275 273 271 274 274 276 278 278 278 278 278 279 279 278 276 274 276 275 275 275 276 276 275 275 274 272 273 272 272 273 273 272 271 271
294 292 295 292 286 285 282 284 280 282 279 278 278 278 276 275 274 275 277 273 272 273 275 276 276 276 275 275 276 277 276 276 276 275 275 276 275 275 275 275 275 273 273 273 273 273 272 272 272 272 271 271 271 271
292 293 291 288 283 282 279 286 280 281 277 277 278 275 275 275 275 279 273 273 273 276 276 275 275 275 274 275 275 275 276 276 276 275 275 275 275 275 274 274 274 273 272 271 273 272 270 267 269 271 270 271 271 269
289 283 282 283 282 277 282 279 282 280 280 277 275 272 273 275 278 274 270 272 274 276 275 275 276 275 275 275 274 274 275 276 275 275 275 274 273 272 273 272 272 272 272 271 271 271 271 269 266 270 269 269 269 269
280 274 279 277 282 279 277 277 277 278 275 276 274 274 274 278 274 272 270 272 274 274 275 276 277 277 275 274 274 273 275 276 274 272 273 274 273 273 272 271 271 271 272 273 271 270 269 269 269 269 268 268 266 265
272 273 275 277 278 278 278 275 276 276 275 273 273 275 278 276 272 270 272 273 274 275 276 276 276 275 275 275 274 273 273 275 275 272 271 272 272 272 271 271 271 269 270 270 271 270 269 268 267 265 267 265 262 264
271 272 274 276 278 279 277 278 279 276 273 272 274 273 274 269 268 270 273 276 274 275 276 277 277 276 274 273 272 272 272 272 271 270 271 271 271 271 271 270 267 268 270 269 269 268 267 267 266 266 266 267 267 266
272 272 269 271 271 274 270 271 271 270 272 273 274 268 267 268 268 273 273 274 275 275 274 274 275 275 273 272 273 272 271 271 270 271 271 270 270 269 268 268 267 265 267 267 267 267 267 266 266 266 266 265 265 266
271 273 270 264 268 268 267 268 269 269 270 274 271 268 267 269 272 271 273 274 275 274 272 271 271 272 271 271 272 272 272 271 268 264 263 268 269 268 269 268 268 268 268 268 264 265 266 265 265 265 265 265 265 265
269 274 268 266 265 265 266 270 268 271 271 272 271 269 268 269 272 275 274 274 274 273 273 272 272 273 271 271 269 269 269 269 268 268 268 267 267 267 268 267 266 266 266 267 266 266 265 265 265 265 264 264 265 264
274 273 269 268 266 268 270 271 272 272 273 272 273 270 268 269 270 271 271 272 272 271 271 270 270 271 270 270 271 269 267 266 264 264 266 267 267 267 265 265 265 266 266 265 264 264 263 263 264 264 263 262 261 260
271 269 267 265 266 269 271 272 272 271 271 270 270 271 271 271 268 270 270 273 272 271 267 271 271 269 268 268 267 266 265 266 265 265 265 265 266 264 265 265 265 265 264 263 264 263 262 262 262 262 262 261 261 260
271 271 271 270 268 269 270 272 271 270 271 270 269 269 269 270 266 268 270 270 270 271 270 270 269 268 266 267 267 266 266 265 262 262 261 260 259 261 263 266 265 264 262 263 263 263 262 261 261 261 260 260 260 260

GFSWCAN_sfc_thetae_060.txt.gz
Theta_e
297 297 297 298 298 298 299 299 299 299 299 299 299 298 299 299 299 298 296 299 294 288 290 292 292 288 289 289 287 291 290 289 288 283 284 285 285 287 287 289 287 286 284 284 285 282 280 297 297 291 298 301 301 301
297 298 298 298 298 299 299 299 299 300 300 299 299 298 299 299 299 299 293 299 300 291 290 296 296 296 294 294 291 292 291 288 292 287 289 290 287 290 288 283 292 284 290 287 288 287 298 301 301 302 303 300 300 300
297 298 298 297 298 298 299 300 300 300 300 300 299 298 299 299 299 298 294 297 296 290 290 291 290 296 299 298 301 289 292 295 292 294 292 291 287 291 285 286 289 292 296 291 291 294 296 300 302 302 302 300 300 300
297 297 298 299 299 300 300 300 300 300 300 300 299 298 299 299 299 298 296 298 297 291 284 287 297 295 299 299 298 299 295 296 296 294 290 290 288 294 289 291 290 292 292 292 293 295 296 297 300 299 299 299 297 298
297 298 299 299 300 300 301 301 301 300 300 300 299 299 299 299 299 299 300 300 301 291 285 288 294 297 298 299 296 297 297 295 292 290 289 288 294 293 294 293 289 295 291 290 290 295 296 294 297 298 296 295 295 294
298 298 299 300 301 301 301 301 300 300 299 299 299 299 299 299 299 297 288 298 301 300 288 283 294 294 297 298 297 296 295 295 293 289 289 294 297 293 288 287 293 295 296 295 293 295 297 297 295 295 294 294 294 292
298 299 300 300 301 301 301 301 300 300 299 299 299 299 299 299 299 290 290 298 300 301 288 284 285 294 297 297 297 296 297 294 291 290 290 291 294 295 291 286 290 291 293 294 293 294 295 293 290 291 291 292 292 288
299 299 299 300 300 300 300 300 300 300 299 299 299 299 300 300 298 293 299 301 301 293 291 283 285 290 296 291 290 296 291 293 291 291 291 291 294 293 286 288 288 287 291 290 290 292 291 291 290 289 289 289 285 283
299 299 299 299 300 300 300 300 300 300 300 300 300 300 298 294 291 294 301 300 302 294 285 287 284 284 296 293 294 294 294 286 292 290 291 291 291 284 281 283 283 284 285 285 288 290 289 287 286 285 285 284 282 280
298 298 299 299 300 300 300 300 300 300 300 300 294 289 286 292 300 298 294 288 290 291 292 287 292 287 293 293 291 290 292 288 283 288 294 288 280 283 284 283 283 283 284 284 283 282 283 283 283 281 280 280 280 278
298 299 299 300 300 300 301 301 301 300 299 295 290 289 296 300 295 290 285 286 287 285 290 291 292 289 295 289 288 292 287 289 282 286 286 285 279 279 282 281 282 282 282 282 282 281 281 281 281 279 278 277 277 276
298 299 300 300 300 301 300 299 299 298 297 295 294 296 296 291 287 285 284 286 286 284 291 290 291 292 293 296 290 291 286 288 281 289 285 278 277 280 280 279 279 280 279 279 280 279 279 279 279 277 276 275 275 275
297 300 301 300 300 300 299 300 300 299 299 298 293 288 288 287 283 282 279 282 284 288 289 290 287 291 292 292 289 287 284 283 290 284 278 277 278 280 280 279 278 279 278 278 276 276 276 275 276 275 274 274 274 273
296 296 297 298 298 299 299 299 299 298 297 289 286 278 282 280 280 280 281 282 284 286 288 290 287 287 287 286 287 282 284 285 281 279 275 276 277 278 278 278 277 275 276 275 274 274 274 273 272 273 273 273 272 271
295 295 295 293 295 294 294 296 296 296 289 283 284 277 277 280 281 282 284 285 285 287 288 286 287 288 285 283 285 283 279 279 277 274 276 277 277 277 276 276 275 275 274 274 274 273 273 272 272 272 273 273 272 272
296 295 291 293 293 293 294 294 293 291 286 281 281 279 282 281 281 282 284 283 286 287 289 289 285 283 281 283 280 277 279 275 275 276 277 277 276 276 276 276 276 276 275 275 275 274 273 273 272 272 272 272 272 272
299 293 292 292 293 293 294 291 288 283 281 279 278 282 282 281 280 281 282 282 287 285 284 285 280 277 281 279 274 276 274 275 277 277 278 277 276 275 276 276 276 276 276 276 276 275 275 275 276 274 272 273 273 272
296 292 293 293 294 292 289 289 284 281 277 280 278 279 281 282 281 282 283 285 286 285 284 279 283 277 275 275 273 275 276 278 278 277 277 277 277 277 277 276 277 277 276 276 276 276 276 276 274 273 273 273 273 273
296 295 295 294 293 289 284 285 286 276 278 280 281 281 281 281 282 283 284 285 285 286 283 281 275 274 274 276 275 275 276 276 274 274 275 276 276 276 276 276 276 276 276 276 275 274 274 275 275 275 275 275 274 273
294 294 293 293 293 286 281 282 286 280 277 278 281 279 279 279 281 281 280 281 280 278 274 273 274 275 276 277 278 278 277 277 275 273 274 276 277 277 277 276 276 276 275 275 275 275 274 273 273 272 272 272 273 271
294 292 293 294 289 287 284 282 280 280 280 278 280 279 278 279 278 277 277 279 276 274 272 275 276 277 279 279 280 279 279 278 277 277 275 274 276 276 276 276 277 277 276 275 274 273 272 272 272 272 272 271 271 270
293 293 293 292 286 285 282 284 281 282 280 279 279 280 277 276 275 275 277 274 273 274 276 276 276 276 276 276 277 278 278 277 277 277 276 277 275 275 275 276 275 274 273 274 273 272 272 271 270 272 271 271 270 269
292 293 291 289 283 282 279 285 280 281 276 276 279 276 276 275 276 279 273 273 273 276 276 276 276 276 275 276 277 277 278 277 276 276 276 275 275 275 275 274 274 273 272 271 272 272 270 265 269 270 270 270 270 269
290 284 283 282 282 278 283 280 282 280 280 277 275 273 275 276 278 274 270 272 275 277 276 276 276 275 276 276 275 275 276 277 276 276 276 275 273 272 273 272 272 272 272 271 271 271 270 269 264 270 269 269 268 267
281 275 280 278 283 280 278 278 278 278 275 276 275 274 275 279 274 272 270 272 275 275 277 278 279 277 275 274 274 274 277 276 274 272 274 275 273 273 272 271 271 270 272 272 270 270 269 269 269 268 268 268 266 266
273 274 277 278 279 279 279 276 277 276 276 274 274 277 279 277 273 270 272 274 275 276 277 278 277 276 275 276 274 273 273 276 275 272 271 272 272 272 271 270 270 268 271 270 270 269 269 268 267 266 266 265 261 263
273 273 276 279 279 280 279 280 280 278 275 273 276 276 275 270 269 271 276 277 275 277 278 279 278 276 274 273 273 272 272 272 272 271 271 271 271 271 270 268 267 267 270 269 269 268 267 267 267 266 266 267 267 266
273 274 270 274 274 276 273 273 273 273 273 275 275 270 270 270 269 274 274 276 276 276 276 276 276 275 274 273 273 272 272 271 271 271 271 271 271 270 269 268 267 267 267 267 266 267 267 266 266 266 266 265 265 266
273 274 271 266 270 269 269 270 270 271 272 275 272 269 267 271 273 273 274 275 276 274 272 271 272 273 273 273 273 273 272 271 270 267 267 268 268 267 269 268 268 268 268 267 266 265 266 265 265 264 264 264 265 265
272 276 269 268 266 265 268 272 271 272 273 272 271 270 270 271 274 276 276 276 275 273 273 274 274 273 271 271 269 268 269 268 268 268 267 266 266 267 268 267 267 267 267 267 266 266 267 266 266 266 264 264 265 265
276 275 270 269 267 269 272 274 275 275 274 272 273 269 267 268 270 273 273 274 273 273 272 271 272 272 271 271 270 269 266 266 264 264 266 267 267 267 265 265 265 266 266 265 265 265 263 263 264 264 264 263 262 261
274 271 268 266 267 272 273 274 273 271 272 271 270 272 272 272 268 270 271 273 273 271 270 273 270 268 268 268 267 267 265 266 266 265 265 266 266 265 266 265 265 265 264 263 264 264 263 262 262 262 262 262 261 260
272 271 271 269 268 270 271 273 272 271 272 270 270 271 270 271 267 268 271 272 272 272 270 270 269 268 268 268 267 267 265 264 262 263 262 261 259 260 262 265 265 264 263 263 263 263 263 262 261 261 260 260 260 260

GFSWCAN_sfc_thetae_063.txt.gz
Theta_e
296 298 297 297 298 298 299 299 299 299 299 299 299 299 299 299 299 295 292 296 291 285 287 290 290 286 287 287 284 287 285 288 285 279 277 278 277 282 282 287 285 283 281 280 280 277 277 296 295 290 294 298 298 297
296 297 297 297 298 298 299 299 299 299 299 299 300 299 299 299 299 298 290 296 295 288 286 292 293 293 291 290 288 289 285 287 288 285 282 283 279 282 285 280 291 283 287 283 284 283 294 300 298 300 299 297 297 297
296 297 297 298 298 298 299 299 299 299 300 300 300 300 298 299 299 297 291 292 291 287 286 286 286 292 295 294 295 286 289 293 291 292 287 287 282 286 280 283 287 291 294 288 288 292 294 296 298 299 297 296 296 296
297 297 297 298 298 298 299 299 300 300 300 301 301 300 300 299 299 297 291 292 292 289 276 281 293 290 295 294 294 293 292 294 293 291 287 286 285 291 284 287 286 291 290 289 289 293 294 294 294 295 294 296 294 294
297 297 297 298 298 299 299 300 301 301 301 301 300 300 300 298 298 296 292 292 294 288 281 284 290 293 296 294 293 292 291 290 290 288 286 286 290 290 289 289 287 292 285 286 286 291 292 292 294 294 292 292 291 290
297 297 298 298 299 299 300 301 301 301 301 300 300 300 299 299 299 291 286 292 295 293 284 277 289 291 294 293 293 291 291 290 291 288 288 291 295 290 281 282 289 291 291 290 286 294 291 290 290 292 291 287 286 285
297 297 298 299 299 301 301 301 301 300 300 300 300 299 299 299 294 286 285 292 297 296 287 282 283 292 292 293 293 291 293 291 292 290 287 289 289 293 282 280 284 287 290 288 291 292 288 288 286 289 289 287 285 282
297 298 298 299 300 300 300 300 300 300 299 299 299 299 299 299 296 290 292 300 298 289 290 281 281 285 295 290 289 294 290 291 290 289 289 289 290 289 282 283 284 285 287 285 287 289 288 287 285 284 286 284 281 279
298 299 299 299 300 300 300 300 300 299 299 299 299 299 295 292 289 289 300 300 299 290 282 283 278 281 293 290 291 290 292 284 291 286 287 287 281 278 280 280 281 282 281 282 286 285 285 283 281 281 280 280 278 277
299 298 299 299 300 300 300 300 300 299 299 299 294 287 283 289 299 299 293 288 287 289 288 282 287 281 290 288 285 286 287 285 281 283 288 284 278 282 281 281 280 281 282 282 280 278 280 279 278 277 277 277 277 275
298 299 299 299 300 300 300 300 300 299 298 293 287 286 295 299 293 289 283 283 284 282 285 285 285 283 292 284 284 287 282 282 279 282 282 281 276 278 280 279 280 280 280 281 280 280 279 278 277 275 275 274 274 274
298 300 300 300 300 300 300 300 299 296 295 294 294 296 294 289 285 283 281 283 281 280 284 282 284 289 290 293 286 287 283 283 279 285 282 272 276 278 278 278 278 278 278 277 278 276 277 276 275 275 274 273 273 272
300 300 301 300 301 301 300 299 300 299 298 296 291 288 287 285 280 280 275 277 277 284 285 286 286 287 288 288 284 285 281 279 286 281 274 274 277 278 277 277 276 277 276 275 274 274 273 273 274 272 271 270 270 269
298 299 300 300 299 299 299 300 299 299 294 287 283 275 280 278 278 278 279 281 284 285 286 286 284 285 285 284 284 280 281 280 278 274 269 273 274 275 275 275 274 272 273 272 271 271 270 270 269 269 268 266 267 267
296 296 296 296 298 297 297 297 297 292 286 281 281 275 275 278 278 281 283 283 284 286 286 283 280 281 279 280 282 280 275 275 273 267 271 273 273 273 272 272 271 272 271 270 270 269 268 266 268 269 267 267 267 267
296 293 292 294 294 294 296 294 291 289 283 279 279 278 280 277 278 280 282 281 284 285 286 285 281 280 279 280 275 272 273 268 268 269 273 274 272 273 272 273 272 273 272 272 271 271 269 267 268 268 268 268 267 267
297 290 292 294 294 295 295 289 284 281 280 276 273 277 277 273 273 279 281 281 285 283 282 280 274 275 278 274 271 272 267 270 273 273 274 274 273 272 273 274 274 274 274 273 273 272 272 272 271 271 269 269 270 270
288 291 293 293 294 291 288 286 281 279 275 278 273 272 273 278 277 277 280 281 282 282 281 276 280 272 267 269 266 271 272 274 274 274 274 275 275 275 276 275 275 275 275 274 275 275 274 273 272 271 271 272 271 271
290 291 294 295 293 288 283 282 282 275 276 276 277 278 277 277 279 280 280 281 281 280 279 275 269 268 268 271 271 272 272 273 271 272 273 275 275 275 275 276 276 275 275 275 274 272 272 271 271 270 271 273 270 270
296 295 293 293 293 284 280 279 283 278 275 276 278 275 276 278 278 275 276 278 278 276 272 270 269 272 272 274 274 274 274 274 273 271 272 273 275 276 276 275 274 273 273 273 272 272 272 270 270 269 269 269 268 264
293 291 293 292 288 286 282 279 278 278 279 277 278 276 275 276 273 272 272 277 274 272 269 272 272 275 277 277 278 277 276 277 275 275 273 272 273 274 274 274 275 274 272 270 267 266 267 266 266 268 263 258 258 258
291 293 290 290 284 283 280 281 279 280 278 278 278 279 274 270 269 271 275 271 270 272 273 273 274 275 275 275 276 276 276 276 275 275 274 274 272 271 270 270 269 265 266 265 268 265 263 265 266 267 262 258 261 260
293 292 287 285 281 280 278 282 278 279 273 274 277 274 272 270 273 277 269 272 272 275 275 275 275 276 275 275 276 276 277 275 273 271 270 270 269 267 269 269 268 265 265 266 268 266 261 262 261 258 261 262 264 260
289 283 280 278 278 274 281 278 280 278 277 275 272 271 272 271 275 271 268 271 271 274 274 274 275 274 274 274 272 272 273 273 271 269 270 270 268 268 269 267 266 265 265 267 265 262 261 257 258 264 257 257 259 254
276 273 276 273 279 274 273 275 276 276 271 272 271 270 270 276 268 267 266 268 272 273 272 275 276 274 270 266 267 269 273 273 269 268 267 270 267 267 267 267 265 266 266 268 262 261 256 256 257 255 256 253 255 254
269 271 272 274 275 274 274 270 271 271 269 269 268 272 275 271 265 264 269 270 271 269 272 271 271 272 272 272 269 268 268 272 271 265 267 269 268 263 262 264 264 262 263 258 257 259 263 258 255 256 255 258 257 254
266 268 274 279 278 278 273 275 275 271 268 267 272 269 266 261 261 269 274 272 272 273 274 276 275 271 269 268 269 268 268 268 267 267 267 268 267 266 262 259 258 260 261 260 258 255 255 255 256 258 256 255 258 258
271 272 266 271 269 271 266 266 265 265 266 271 270 262 261 261 265 271 272 273 272 271 271 271 272 271 269 268 265 264 263 262 264 265 266 264 262 260 259 258 258 264 258 255 254 254 255 254 254 254 257 256 254 255
269 270 268 262 265 265 266 265 264 267 269 270 262 261 262 269 271 271 270 271 272 270 267 266 264 266 268 267 267 265 263 262 260 257 256 260 259 258 258 257 259 257 255 258 262 259 257 257 254 254 253 252 253 253
269 271 265 262 260 261 266 270 265 267 267 266 269 269 268 269 272 271 271 272 271 270 266 265 265 264 262 262 259 258 259 258 257 257 258 257 258 257 256 255 255 256 256 255 254 256 262 257 257 257 256 255 255 252
273 269 266 265 264 268 270 271 272 270 269 267 266 265 263 265 266 270 270 267 265 264 266 264 265 263 262 261 260 259 255 255 254 255 256 255 255 255 254 254 254 254 256 254 253 253 252 251 251 251 251 251 251 249
269 264 263 261 265 270 273 266 267 268 267 267 264 262 263 265 261 264 266 268 270 267 268 266 261 258 257 257 256 258 258 256 255 254 254 257 256 253 255 257 255 254 253 252 253 254 253 251 250 250 249 249 249 250
267 267 266 263 262 263 267 268 268 268 268 265 264 265 264 263 259 263 267 269 270 266 264 261 259 258 259 258 257 257 256 253 255 259 257 256 253 253 251 253 251 251 251 251 251 251 252 251 251 250 250 249 250 249

GFSWCAN_sfc_thetae_066.txt.gz
Theta_e
297 296 297 297 297 297 297 297 298 298 298 299 299 299 299 299 299 294 290 293 289 285 285 288 289 285 286 286 281 285 285 286 284 276 277 277 276 281 280 283 282 281 279 277 279 277 276 294 295 289 294 298 297 296
295 296 297 296 296 296 297 298 299 299 299 299 299 300 300 299 299 298 289 294 295 288 283 291 292 292 290 290 287 288 285 285 288 282 282 282 277 277 281 279 290 283 286 282 282 281 292 293 293 297 299 296 296 296
296 296 296 296 296 297 298 298 299 299 299 300 300 300 300 300 299 298 291 292 292 287 284 284 284 290 293 292 293 283 288 290 288 290 286 285 281 285 279 282 286 290 293 288 288 291 291 292 293 294 294 292 292 294
295 296 295 296 297 298 298 298 298 299 300 300 301 301 301 300 300 298 290 291 289 288 278 280 291 288 293 292 291 292 291 294 293 291 287 285 282 289 284 287 286 290 290 288 289 291 292 292 292 293 292 291 289 288
295 296 296 296 297 298 298 299 299 300 300 301 302 301 301 300 299 297 290 290 291 286 281 282 287 290 293 292 290 291 290 289 287 288 285 284 289 288 290 289 285 289 284 283 284 291 288 290 292 293 289 286 286 285
295 295 296 297 297 298 298 299 300 300 301 302 302 300 300 300 298 291 282 289 292 291 284 275 285 288 290 292 290 288 288 287 288 288 287 290 294 289 284 284 286 289 288 290 286 289 286 288 290 289 286 284 283 282
295 296 297 297 297 298 299 300 301 301 301 300 301 301 300 299 293 283 281 287 295 292 287 280 279 287 290 290 288 288 289 290 290 287 287 287 287 290 285 281 284 286 287 288 291 291 285 286 284 286 283 282 281 279
296 297 297 297 298 299 300 300 301 301 300 300 300 299 299 297 294 288 295 299 295 287 287 279 279 283 292 284 285 289 287 290 289 288 288 287 289 289 278 281 282 284 285 285 286 286 284 283 283 283 283 281 278 277
295 296 297 298 298 299 300 300 300 300 300 299 299 298 294 288 283 285 299 298 295 287 280 282 278 276 286 288 288 290 291 283 290 285 286 287 279 275 279 279 279 280 280 281 284 284 282 280 279 280 279 279 277 276
296 297 299 299 299 300 300 300 300 299 299 298 293 288 283 287 296 296 290 288 287 288 288 283 285 281 286 287 285 285 286 284 282 285 287 281 276 279 279 279 279 280 281 281 280 279 279 277 277 277 277 276 276 275
299 299 298 299 299 300 300 299 299 298 297 288 286 286 290 297 290 287 282 281 283 281 284 284 283 282 290 285 285 284 281 283 279 280 282 278 276 276 278 277 278 278 279 278 278 277 279 278 276 275 274 274 274 273
298 299 299 299 299 300 299 299 298 294 290 292 292 296 294 289 286 282 280 282 281 278 282 281 282 284 287 293 284 286 282 281 279 286 281 271 274 276 276 276 276 276 276 275 276 276 276 275 274 273 273 272 271 271
300 300 300 300 300 299 299 298 299 299 298 296 291 287 287 284 279 275 275 278 278 283 286 285 285 287 286 287 282 284 281 277 285 277 270 272 275 276 275 275 275 275 274 273 272 273 273 272 272 271 269 269 269 268
300 300 300 300 299 299 299 299 300 298 293 286 282 274 277 277 275 275 276 281 283 285 285 284 283 280 283 283 282 277 278 280 277 269 267 270 274 274 274 274 272 269 269 269 269 269 268 268 268 268 266 265 266 264
299 300 300 300 299 298 299 299 298 290 285 280 279 269 271 274 274 279 282 283 283 286 285 284 282 279 279 279 280 279 274 270 270 264 265 269 270 271 269 269 268 268 268 268 267 267 266 266 267 266 266 265 265 265
295 294 295 298 299 299 296 294 290 288 282 279 277 274 277 275 275 279 280 280 284 284 285 281 275 278 278 278 275 272 271 264 263 264 269 272 269 268 269 270 271 270 270 269 269 269 269 268 268 267 267 266 265 265
293 288 294 295 295 296 294 287 285 282 278 275 271 269 270 267 273 277 280 281 285 284 278 277 271 275 277 270 268 269 262 264 269 269 268 266 268 270 270 271 272 272 271 271 271 271 270 270 270 270 268 269 270 268
287 291 294 295 293 291 288 285 281 278 274 275 271 272 270 270 269 273 278 281 282 278 276 276 277 268 262 265 264 266 267 270 268 269 271 270 270 272 273 272 273 274 274 274 274 273 273 272 272 270 271 271 270 270
290 292 294 295 292 286 282 281 281 273 273 270 272 273 269 271 274 274 274 277 278 277 277 274 268 266 266 266 266 267 264 267 270 271 273 273 274 275 275 275 275 275 274 274 273 271 270 270 269 270 271 272 269 269
294 294 294 294 292 283 280 278 281 276 270 273 274 272 272 272 272 272 275 277 277 275 271 268 265 266 265 266 267 268 270 272 272 271 271 273 274 275 274 274 273 273 273 272 271 270 270 269 269 268 269 268 265 264
292 291 294 291 286 284 281 279 277 277 277 272 274 274 271 274 271 270 271 276 272 271 267 269 268 273 275 274 274 275 274 274 272 272 272 271 271 273 273 274 274 273 270 267 266 264 264 263 264 265 259 254 254 256
288 294 288 288 282 282 279 279 277 277 277 277 278 277 271 267 266 269 274 270 269 269 270 270 272 274 274 274 274 274 275 275 274 273 272 272 270 270 268 267 268 265 265 265 265 261 260 263 263 261 256 254 257 257
292 291 285 283 277 274 273 280 274 277 271 274 276 272 269 267 270 276 267 269 269 273 274 274 275 276 274 274 275 275 275 274 271 271 270 268 267 263 266 265 264 263 263 264 265 261 259 260 258 255 254 257 257 258
287 282 278 276 276 271 277 273 278 277 276 273 271 269 269 268 273 267 265 268 269 272 273 272 274 272 272 272 269 270 271 271 269 265 267 268 266 265 266 265 265 264 263 265 263 259 257 254 256 257 252 252 252 251
276 272 275 273 277 272 270 271 273 272 267 267 267 266 268 272 264 263 262 266 270 269 269 271 272 271 266 262 266 268 270 271 268 266 264 267 264 265 265 265 263 264 263 262 257 255 254 251 251 252 252 249 253 252
267 269 271 271 274 272 272 266 265 265 264 264 264 270 272 264 260 261 266 264 268 268 271 271 269 268 268 269 266 266 266 270 269 264 265 267 265 262 260 259 258 258 260 254 253 255 257 253 252 252 251 253 253 251
264 264 273 277 275 275 270 269 271 267 263 264 267 263 261 256 257 266 270 266 266 267 272 271 271 268 267 266 267 266 266 267 266 266 265 265 264 263 260 258 256 260 257 254 251 252 252 251 251 251 252 254 255 254
269 269 263 265 265 266 259 259 259 260 261 269 266 258 257 258 262 268 268 269 268 270 269 269 269 268 267 265 262 262 261 261 263 264 264 262 260 256 255 254 255 261 254 251 250 249 250 249 250 249 250 251 251 250
264 265 265 258 260 261 263 260 261 265 268 265 257 257 260 266 266 268 268 268 267 269 267 265 262 264 263 262 260 259 257 258 257 255 253 253 252 257 255 253 253 251 250 254 259 256 256 254 252 251 251 251 250 247
265 266 262 257 258 260 261 261 259 261 265 264 267 268 267 268 271 269 268 265 264 262 259 264 260 262 256 257 251 254 253 249 251 255 253 252 255 256 251 250 250 250 249 249 249 252 257 251 254 251 251 251 250 248
268 263 261 261 262 262 265 266 267 265 261 261 260 261 260 265 266 268 267 264 265 267 265 263 261 257 257 253 251 250 252 252 249 252 254 253 249 248 249 249 249 248 249 248 248 248 248 248 246 246 247 247 246 245
261 257 259 260 263 265 262 259 260 259 257 259 259 256 259 259 258 262 267 264 265 263 256 258 259 255 252 251 250 250 253 251 249 250 251 249 247 247 250 252 250 248 248 248 247 247 248 248 247 246 246 247 246 247
260 259 260 259 259 261 265 263 265 266 263 262 262 262 259 256 256 260 263 265 261 262 258 254 255 255 255 255 254 251 251 249 250 257 254 253 250 251 246 246 245 245 247 246 246 246 247 248 247 246 246 245 246 246

GFSWCAN_sfc_thetae_069.txt.gz
Theta_e
295 296 297 298 297 297 296 297 297 297 298 298 298 298 299 299 299 293 290 292 289 284 284 287 287 282 283 283 277 282 282 283 283 278 279 280 277 281 280 281 280 280 278 277 279 277 274 291 293 287 292 296 295 293
294 296 296 297 297 297 297 296 297 298 298 298 298 299 299 299 299 298 289 293 292 286 284 289 289 290 289 288 285 285 285 284 285 283 283 282 278 276 280 276 287 276 285 281 282 281 290 291 290 294 297 295 295 293
295 296 296 297 296 296 296 296 297 298 299 298 299 299 300 300 299 298 292 292 291 287 285 283 283 289 292 291 292 284 286 289 286 289 286 284 279 285 276 278 283 290 292 286 287 289 289 290 291 291 290 290 292 293
295 296 296 296 296 296 296 297 298 298 299 299 299 300 300 300 300 299 291 293 290 288 277 279 289 287 291 291 291 292 289 293 292 291 286 284 281 288 283 285 285 288 289 285 288 290 291 292 291 289 288 287 286 287
295 295 296 296 296 296 297 297 298 298 299 300 300 301 301 301 301 299 292 294 293 285 280 281 286 289 290 290 289 289 290 289 288 286 285 282 286 287 286 287 284 287 283 282 283 288 288 288 289 290 286 284 285 283
295 295 295 295 295 296 297 297 298 299 300 300 301 302 302 302 300 289 284 291 292 289 282 276 283 286 289 289 289 287 288 286 287 287 286 289 292 288 283 281 285 287 288 290 285 287 286 286 285 285 282 282 281 280
294 295 294 295 296 297 297 298 298 299 300 301 302 300 300 297 293 285 281 285 294 291 285 280 278 285 288 288 286 286 287 286 285 286 284 286 287 290 284 279 283 286 288 289 288 288 284 285 281 282 280 280 280 278
294 294 294 295 297 297 298 298 299 300 301 301 301 299 298 297 294 287 294 296 294 286 286 277 277 279 290 283 282 286 284 286 287 287 287 286 287 288 278 280 281 283 285 284 283 284 283 283 282 281 281 279 277 276
295 295 295 296 296 297 298 298 300 301 300 300 299 297 293 288 283 290 298 297 291 284 277 279 273 270 287 288 287 286 288 282 288 284 285 287 281 275 278 278 278 280 279 281 283 282 281 280 279 279 278 277 276 275
295 295 295 296 297 297 298 299 300 300 299 297 293 286 280 284 297 296 291 286 285 285 286 282 285 280 285 285 285 285 286 282 281 284 288 279 272 278 278 279 279 280 279 281 280 279 279 277 277 276 275 276 276 275
294 295 296 296 299 299 300 300 299 299 296 287 284 284 285 296 288 285 280 280 282 281 283 284 284 282 289 283 284 285 282 284 279 280 283 277 274 275 278 277 277 278 277 277 277 276 277 276 275 274 274 274 273 272
296 298 299 299 299 300 299 299 297 292 289 288 291 291 288 286 284 279 279 281 281 278 281 281 283 284 285 292 285 285 281 281 278 285 279 270 272 276 276 275 275 275 275 275 276 275 275 275 274 273 272 271 270 269
298 298 299 299 300 299 298 297 297 297 297 294 289 285 284 282 278 277 274 278 278 280 285 286 284 282 286 289 284 283 281 275 285 274 270 271 275 276 275 275 274 274 274 273 272 272 271 270 270 270 268 267 267 265
298 298 300 300 299 298 297 298 299 298 293 286 281 278 278 273 272 270 270 275 283 285 285 285 283 280 283 282 282 279 278 279 272 266 267 269 274 274 274 274 271 269 270 269 269 269 268 267 266 266 266 266 265 264
300 299 299 299 298 297 299 299 296 290 285 279 277 268 268 271 273 274 281 282 283 285 285 283 281 278 281 279 277 279 274 266 267 265 264 269 271 270 268 268 266 267 267 267 267 267 267 267 267 266 267 267 267 266
300 299 297 298 298 299 296 293 290 287 281 278 275 274 275 275 274 278 280 280 284 284 284 282 274 273 276 273 274 266 268 264 262 261 266 270 266 264 266 268 268 268 268 269 269 269 269 268 268 267 268 266 264 265
294 294 297 297 295 295 294 288 286 282 277 275 272 271 270 271 271 277 279 279 283 284 276 279 268 276 276 268 267 266 260 260 261 264 268 265 266 267 268 271 270 271 270 270 270 271 270 270 270 269 267 268 269 267
292 294 295 294 292 291 287 285 282 279 273 272 270 270 267 270 267 268 277 279 280 280 275 275 275 266 260 264 262 261 265 264 264 267 268 269 268 270 272 271 271 272 272 272 272 272 271 271 271 270 270 270 269 269
292 293 295 295 291 286 282 281 281 273 272 270 272 272 271 267 270 272 276 279 278 278 276 272 266 263 261 262 259 258 260 263 269 268 271 272 273 273 274 274 274 274 273 273 273 271 271 270 269 269 270 270 267 267
295 295 295 294 291 283 280 279 281 276 269 272 272 271 270 270 271 270 274 276 277 275 269 265 262 265 264 267 264 265 267 272 272 270 270 272 273 273 272 273 272 273 272 271 270 269 269 268 268 268 269 268 266 265
292 292 293 289 284 282 279 278 276 276 276 270 272 271 268 273 270 269 271 275 271 269 265 266 267 271 269 270 272 273 269 271 268 269 270 270 270 271 272 271 273 271 268 264 264 263 264 264 265 265 260 256 254 255
290 293 288 288 283 281 279 278 276 277 276 276 275 275 269 265 265 268 272 269 268 267 268 269 271 273 272 271 270 272 272 273 271 271 271 271 270 269 268 265 268 264 264 262 264 261 261 265 263 260 255 252 255 256
292 290 285 283 276 272 272 280 273 276 269 272 273 270 267 267 269 275 267 268 266 269 270 273 273 274 273 274 274 274 274 273 270 268 268 267 265 261 264 263 262 263 263 264 265 261 259 259 256 253 253 254 253 253
287 281 277 274 273 271 274 272 277 276 274 272 269 267 268 268 272 265 263 265 267 272 273 273 273 271 272 271 269 269 270 270 267 265 268 267 265 264 265 264 264 263 263 264 262 257 255 252 253 254 250 249 249 252
278 273 275 270 274 267 266 267 269 271 267 267 265 263 266 269 261 260 261 263 266 267 270 270 270 269 264 261 264 266 269 270 267 265 262 266 264 264 263 263 261 262 262 258 256 252 251 248 249 250 251 248 251 250
268 270 271 272 272 270 270 264 262 263 263 262 262 267 268 261 259 258 265 262 265 264 265 266 266 266 267 268 266 265 266 269 268 263 264 266 264 261 258 257 257 258 258 252 252 252 253 251 250 251 250 251 250 248
264 265 273 274 273 274 267 266 269 265 261 262 264 262 260 255 256 263 269 265 267 263 268 269 269 267 266 265 266 265 265 265 265 264 264 263 263 262 259 257 257 258 255 252 250 251 251 251 251 251 250 251 251 249
267 267 265 263 263 265 258 257 257 258 261 268 266 257 256 258 260 265 265 265 268 268 268 267 267 267 265 263 261 262 261 262 262 262 262 261 259 256 253 253 254 260 251 248 249 247 248 248 248 247 247 248 248 246
263 264 265 258 259 260 262 258 259 265 267 263 256 256 259 265 264 262 266 267 268 267 264 263 259 260 259 259 256 255 253 258 257 253 251 250 250 256 254 249 249 249 247 251 257 253 254 251 250 249 248 247 250 247
263 263 260 255 256 258 258 259 258 260 265 262 265 266 264 265 267 269 266 265 264 261 257 262 257 260 255 257 252 255 252 248 251 256 252 250 253 252 250 250 249 247 245 247 248 250 256 250 252 248 247 247 244 244
265 260 259 260 259 259 260 260 261 262 258 258 260 260 259 263 266 268 265 260 263 263 261 256 253 250 255 250 249 250 252 251 247 249 251 251 247 247 247 246 247 245 245 245 245 246 246 245 243 244 245 246 246 244
257 254 258 258 260 260 257 257 258 258 258 259 259 255 257 258 256 260 264 263 260 257 253 255 258 255 250 248 247 247 253 251 249 249 249 247 246 245 246 247 244 245 245 245 244 244 245 245 245 245 244 245 244 245
256 254 255 259 260 259 262 261 261 260 259 260 260 259 254 255 256 258 263 262 260 260 257 252 252 252 251 253 253 249 249 247 248 256 252 251 249 249 244 243 243 243 245 244 243 244 245 246 245 244 244 243 244 244

GFSWCAN_sfc_thetae_072.txt.gz
Theta_e
296 295 294 295 296 297 297 297 297 297 297 297 297 298 298 298 298 293 290 290 286 282 283 285 286 282 281 281 273 278 279 281 281 279 279 279 276 279 279 281 280 279 277 277 280 277 274 289 290 284 289 292 290 290
296 295 295 296 296 297 298 297 296 297 297 297 298 298 298 298 299 297 289 293 290 286 281 288 288 289 288 286 282 282 280 283 284 281 281 282 279 278 280 276 285 276 282 281 282 280 289 289 288 290 295 293 291 289
295 294 295 295 296 297 296 296 297 296 296 297 297 298 299 299 299 298 293 292 291 286 284 282 282 287 291 290 289 281 283 289 286 289 285 284 279 284 279 278 283 287 291 285 285 288 288 289 289 288 288 287 290 289
295 295 295 295 296 296 296 296 296 296 296 297 298 298 298 299 300 299 293 293 291 286 277 279 288 285 290 290 290 290 288 291 291 290 285 284 279 287 282 284 283 287 287 284 286 289 290 290 289 288 286 285 285 285
294 295 295 295 296 296 296 295 296 296 297 297 298 298 299 299 300 298 296 294 293 286 278 280 285 287 289 288 287 288 288 287 286 283 283 282 286 285 286 286 283 286 283 281 282 286 287 284 286 286 283 283 283 281
294 295 295 295 295 295 296 296 296 297 297 298 299 300 300 301 300 288 284 289 294 292 283 276 283 284 287 287 287 286 287 287 286 287 284 286 290 287 282 278 284 286 288 289 285 286 284 283 283 283 281 280 280 280
295 295 295 295 295 295 295 296 296 297 298 299 299 300 301 301 293 286 284 287 294 292 280 274 278 284 287 287 285 285 287 287 285 283 282 281 284 289 284 279 282 285 284 284 285 288 283 282 279 280 279 278 278 277
294 294 295 295 295 295 295 297 297 298 298 299 300 298 297 296 295 290 293 295 293 285 285 277 277 278 288 282 281 285 283 287 286 282 284 284 287 288 279 279 280 281 284 282 282 283 282 281 280 279 279 277 276 274
294 294 294 295 295 295 296 297 297 298 299 300 298 297 293 288 286 291 297 295 288 283 277 278 274 271 286 286 286 287 287 281 284 283 282 284 281 276 277 278 278 279 279 279 281 281 280 279 278 278 277 276 274 273
293 294 294 295 295 296 297 297 298 299 298 296 292 286 280 288 297 295 289 282 280 282 284 280 279 275 284 283 282 282 280 275 279 282 286 280 270 277 278 278 278 278 278 279 280 279 278 277 276 275 275 276 275 273
294 294 295 295 296 295 296 297 298 297 297 289 284 282 285 297 286 282 280 276 274 279 280 282 280 281 286 280 283 285 282 282 278 280 282 274 271 274 277 276 276 276 276 276 276 276 276 276 275 274 274 273 272 271
294 294 295 295 295 296 297 298 298 292 289 289 288 291 291 286 277 278 278 280 280 278 278 281 283 284 284 290 284 284 281 282 279 285 279 268 270 275 275 274 274 274 274 274 275 275 274 274 273 272 271 270 269 268
294 295 296 296 297 298 299 298 297 296 295 291 285 283 282 281 276 273 269 277 278 279 282 285 284 284 285 288 284 283 279 277 284 276 269 269 274 275 275 274 273 274 273 272 271 271 270 269 269 269 267 266 266 264
295 295 297 299 300 299 298 297 297 296 291 285 282 277 278 276 276 276 271 272 281 284 285 284 283 283 282 282 281 277 279 280 271 268 268 270 273 273 274 273 270 268 268 268 267 267 266 266 265 264 262 261 264 263
297 298 299 299 299 297 297 298 294 288 282 279 276 270 273 273 271 271 278 283 284 285 285 282 279 280 281 279 277 278 274 267 268 265 263 269 271 270 268 268 266 265 263 264 265 267 266 266 266 266 266 266 266 264
298 299 297 298 297 297 297 293 289 286 280 276 272 271 273 272 271 274 278 280 284 284 284 278 273 272 274 272 271 264 267 264 262 260 264 268 264 262 264 266 265 266 266 266 267 267 267 267 266 266 266 265 265 264
298 294 297 297 296 295 294 288 286 281 275 272 268 270 268 267 269 276 278 278 282 282 272 272 268 269 275 267 266 265 261 260 259 263 265 263 264 264 267 268 269 270 269 269 269 270 269 269 269 269 267 268 269 267
293 296 297 295 293 290 286 284 282 278 273 273 272 271 266 267 269 268 274 277 280 281 276 275 274 266 261 265 263 261 264 261 264 264 263 262 264 266 270 269 270 271 271 271 271 271 270 270 270 269 269 269 268 268
293 293 295 295 291 285 282 280 281 274 273 274 274 273 272 267 271 273 275 278 278 278 276 271 266 263 261 261 258 257 259 262 267 266 267 268 270 271 271 272 272 272 272 272 272 271 271 270 269 268 269 269 266 266
295 295 294 293 291 282 279 277 281 276 270 273 271 268 268 266 268 267 272 276 276 274 269 265 261 263 263 264 262 264 264 270 271 269 269 269 271 272 271 271 270 271 270 270 268 267 267 267 267 267 268 268 266 265
291 291 292 288 284 282 279 277 275 275 275 269 271 270 267 271 269 268 269 274 271 268 265 263 269 270 264 264 268 270 268 270 266 268 269 269 270 271 271 272 271 270 267 263 263 264 264 264 265 265 259 255 254 255
289 293 286 286 282 280 279 278 276 276 275 275 273 274 266 263 264 267 272 268 266 265 266 266 268 271 271 270 268 271 271 272 271 270 270 269 268 267 265 264 266 261 261 261 264 261 261 263 262 260 254 252 254 255
292 290 285 283 277 274 271 279 272 275 268 272 272 268 265 265 267 273 264 266 265 268 269 272 272 274 273 273 273 273 273 272 269 267 266 265 264 260 263 263 262 261 260 262 264 260 257 257 255 252 251 252 250 251
287 281 278 276 274 269 273 270 277 275 273 271 268 265 265 264 269 264 261 264 266 270 272 272 273 271 272 271 268 268 269 269 267 264 266 266 264 263 264 263 262 261 261 263 261 255 254 250 252 253 249 248 246 248
278 273 274 266 270 267 266 265 269 269 264 264 264 262 265 268 260 258 261 262 265 266 268 269 269 268 264 261 263 265 268 269 267 265 261 265 263 263 262 262 260 261 260 255 253 252 251 246 247 248 249 247 250 250
269 269 267 268 270 267 268 263 262 262 262 261 261 267 265 260 258 258 263 262 265 263 262 264 264 265 266 267 265 265 265 268 267 262 264 265 263 260 256 256 256 257 257 251 251 250 252 252 251 252 250 251 249 247
265 264 271 272 272 272 264 263 267 264 260 261 264 261 259 257 256 262 265 263 264 261 266 266 268 267 266 265 265 264 264 264 264 263 262 262 261 261 258 256 257 258 255 251 249 250 251 250 250 249 249 248 248 248
267 267 264 263 264 265 257 256 256 257 260 267 265 256 257 258 260 263 264 265 265 267 266 265 265 266 264 262 261 261 260 260 260 260 260 261 258 255 252 252 258 258 249 247 247 246 247 247 247 246 246 247 248 245
263 264 265 259 261 261 260 257 257 264 267 263 257 256 259 263 262 262 266 267 266 267 263 261 257 257 258 257 255 254 255 256 256 253 251 250 249 254 250 248 248 247 245 249 255 254 251 251 248 247 246 246 247 246
262 262 260 254 254 256 257 258 258 259 264 262 264 265 263 262 265 267 266 265 262 260 257 260 255 257 256 257 253 254 249 246 250 255 252 251 253 250 248 248 248 246 244 246 247 249 254 248 250 245 245 245 242 243
264 259 258 258 257 257 259 257 258 260 258 257 257 258 258 262 266 267 265 263 263 262 260 256 252 250 256 253 250 251 252 250 246 247 248 248 247 246 246 245 244 242 243 244 244 244 244 244 242 243 244 245 245 242
255 253 256 255 258 259 256 255 257 258 258 258 258 255 256 258 257 261 262 261 261 260 256 257 257 255 250 247 246 246 251 251 247 247 249 247 245 244 244 245 242 243 243 243 242 243 244 244 244 243 243 243 244 243
253 252 252 256 258 257 256 258 257 258 257 258 258 253 251 256 258 259 261 260 261 260 258 254 250 251 250 250 251 249 248 246 248 256 252 251 247 247 242 241 241 242 244 243 242 242 243 244 244 243 243 242 242 243

GFSWCAN_sfc_thetae_075.txt.gz
Theta_e
297 297 296 296 295 296 296 297 297 298 298 297 297 297 297 298 298 292 290 291 287 282 283 286 287 283 283 282 278 281 280 282 282 278 279 280 279 281 281 283 282 281 280 279 280 278 275 289 291 284 288 291 289 289
297 296 296 296 295 296 296 297 297 297 298 297 297 297 298 298 298 296 288 292 291 286 283 289 289 290 288 287 284 284 282 281 284 281 281 281 281 283 281 278 287 281 284 283 283 283 289 290 288 288 293 291 289 288
296 297 296 295 295 296 296 297 297 297 297 297 297 297 298 298 299 297 292 292 290 286 286 284 284 289 291 291 292 283 285 288 286 289 284 284 280 283 279 281 284 287 290 286 285 288 288 288 287 287 287 287 287 287
295 295 296 295 295 296 296 296 296 297 297 296 296 297 298 298 299 299 293 293 291 287 278 280 289 286 291 291 290 290 288 291 291 289 283 284 281 287 282 283 283 286 288 283 285 287 287 286 286 286 285 285 284 284
295 295 295 295 295 296 295 296 296 296 295 296 297 298 298 298 299 298 296 294 294 287 280 281 287 288 290 289 288 289 288 287 286 283 282 282 286 286 286 286 282 285 283 282 280 285 283 282 283 284 283 282 282 281
295 295 295 295 296 296 295 296 296 295 295 296 297 297 298 299 300 295 284 290 295 293 284 279 287 286 288 288 287 287 287 287 287 285 285 287 290 287 282 280 283 284 284 286 284 284 282 282 282 282 280 280 280 280
294 294 294 294 296 296 296 296 296 296 296 296 297 298 299 300 297 286 285 290 295 292 283 279 280 286 289 288 287 286 289 288 287 286 285 285 285 287 285 280 281 283 283 283 285 285 281 282 278 280 279 278 279 278
294 294 295 295 295 295 295 295 295 295 296 297 298 299 299 297 294 290 293 296 294 287 285 277 277 280 290 284 284 287 285 287 287 286 286 285 287 287 280 279 280 282 283 282 282 282 281 281 280 279 279 278 276 275
294 294 295 295 295 295 295 295 295 296 297 298 298 296 293 289 288 290 296 295 292 286 279 279 275 274 287 286 286 287 288 282 286 283 283 285 282 279 277 278 278 278 278 280 282 281 280 278 278 277 277 276 275 274
294 294 294 295 295 295 294 295 295 296 296 297 292 287 283 290 296 296 290 283 282 284 284 279 281 278 285 283 283 284 283 280 278 283 287 283 275 278 278 278 278 278 278 280 280 279 278 277 276 276 275 275 275 274
294 294 294 294 294 294 294 295 296 296 296 290 285 283 291 296 287 285 279 275 276 277 281 281 281 281 287 281 282 285 281 281 277 282 281 277 275 276 277 276 276 277 277 277 276 276 277 278 276 275 274 273 273 272
294 293 293 293 294 294 295 295 297 294 291 289 289 292 292 286 279 278 278 280 278 278 281 280 283 285 285 289 284 284 281 282 279 285 280 274 273 275 275 274 274 275 275 275 276 275 275 274 274 273 272 271 270 269
293 294 294 294 295 295 296 296 297 296 295 291 287 284 281 278 270 273 270 276 278 281 280 284 283 286 287 287 284 284 280 279 284 279 275 271 275 275 275 274 273 274 273 272 271 271 271 270 271 270 268 268 268 267
294 294 294 295 295 295 296 297 296 296 291 284 279 275 276 271 275 273 275 275 279 285 285 285 284 284 285 283 282 278 280 282 275 272 271 272 274 274 273 273 271 269 269 269 269 269 268 267 267 267 267 267 267 265
295 294 295 295 296 296 297 297 296 289 284 279 278 271 274 274 276 273 276 283 284 286 285 284 282 283 282 280 280 280 276 274 273 272 270 272 273 271 270 269 267 266 266 267 268 268 267 267 267 267 268 268 267 265
295 294 294 297 298 297 296 292 289 285 281 276 273 273 276 277 277 278 280 282 283 284 285 283 278 276 276 275 275 271 273 271 270 268 269 271 267 266 266 267 266 266 266 267 268 269 268 268 268 267 267 266 265 265
295 294 298 296 296 295 293 287 284 279 276 272 268 271 272 268 272 275 276 277 280 283 278 276 273 273 277 271 271 269 270 269 267 267 269 268 267 266 266 267 268 269 269 269 270 270 270 270 270 270 268 269 269 268
295 296 296 297 293 289 285 284 280 278 272 273 272 272 271 271 273 273 275 277 279 280 278 275 277 272 270 270 270 267 267 266 268 269 269 267 267 268 270 269 269 271 271 271 271 271 271 271 271 270 270 270 269 269
294 295 296 295 291 285 281 281 282 273 273 274 274 274 271 271 274 274 276 278 278 279 277 274 270 270 269 267 266 264 266 269 269 269 269 268 270 270 270 271 272 272 272 272 272 272 272 271 272 272 271 270 269 269
295 294 294 293 290 282 279 278 282 276 272 275 274 272 271 271 271 270 273 276 276 275 271 269 268 267 267 268 268 270 269 272 272 270 270 272 273 272 272 273 273 274 273 272 271 270 270 270 270 270 270 270 270 269
291 291 291 287 282 282 279 278 276 276 275 272 272 272 270 271 269 270 271 275 272 269 268 267 269 270 267 268 270 272 272 273 272 272 272 271 273 274 274 274 273 272 270 270 269 268 268 268 268 267 267 265 264 266
288 291 284 285 281 280 278 279 276 277 275 275 274 274 269 265 266 269 272 269 268 268 268 269 270 272 272 271 272 273 273 272 272 272 271 272 271 271 271 271 270 268 268 268 269 268 267 267 267 266 266 264 262 265
291 288 284 282 275 272 271 279 273 275 269 271 272 269 267 266 269 273 267 268 267 270 271 273 273 274 272 273 273 273 273 273 271 270 269 269 268 268 269 268 269 267 267 267 268 267 266 260 261 263 262 263 263 264
287 281 278 275 274 269 274 271 277 275 273 270 268 266 266 267 270 266 264 266 268 272 273 273 273 272 272 271 270 270 270 270 268 267 269 269 267 266 267 267 266 266 267 267 266 264 263 262 257 263 261 262 260 261
279 274 276 271 272 267 270 266 268 269 264 266 265 264 266 269 264 262 264 266 268 269 270 272 272 271 268 266 267 269 270 271 269 267 267 268 266 266 265 265 264 264 264 265 264 264 262 259 259 260 261 260 261 261
271 271 269 269 270 267 267 264 262 263 263 262 263 268 266 263 261 262 266 265 267 267 268 270 268 268 268 269 268 268 268 270 269 266 266 267 267 266 264 264 265 264 262 262 262 262 261 259 260 260 261 260 254 257
265 264 270 272 272 270 264 264 268 265 261 262 265 263 262 259 259 264 266 266 268 267 270 270 271 270 268 267 266 265 266 266 267 266 264 264 264 264 265 264 263 265 261 261 261 262 261 260 259 258 259 258 258 257
267 268 265 263 264 264 258 257 257 258 261 267 266 260 262 261 262 265 266 267 266 268 266 265 266 268 266 264 263 263 262 262 262 262 263 262 261 259 258 260 260 259 258 257 259 257 259 259 259 258 258 258 258 256
264 264 266 260 261 261 260 257 259 264 266 264 259 259 260 264 264 264 266 268 268 267 264 263 260 261 260 259 257 259 262 263 262 259 259 260 259 261 257 257 258 257 257 260 257 258 257 258 258 258 256 257 256 254
261 262 260 258 257 258 258 260 259 261 265 263 265 265 263 264 265 267 267 267 266 264 262 263 260 262 261 261 259 259 255 255 259 262 261 261 261 259 257 258 258 256 255 258 259 259 258 257 257 255 255 256 256 255
263 259 258 259 257 258 260 259 259 261 260 259 257 259 260 262 265 266 264 264 263 262 262 259 257 258 260 258 260 260 260 257 251 253 255 256 256 257 256 255 254 254 255 256 256 256 256 255 255 255 255 255 254 252
255 254 256 255 257 260 259 255 257 259 261 261 258 254 257 259 260 263 263 264 264 263 261 262 261 260 256 255 254 255 254 255 254 254 255 255 255 253 253 253 251 253 254 254 253 254 253 254 254 254 254 253 252 252
251 251 252 255 257 256 255 257 257 258 258 258 258 254 253 258 260 261 262 262 264 264 261 258 256 256 255 255 256 254 253 253 252 257 253 252 250 252 252 252 252 252 253 254 253 253 253 252 253 253 252 251 251 251

GFSWCAN_sfc_thetae_078.txt.gz
Theta_e
298 298 298 298 297 297 297 297 298 298 298 299 298 298 298 299 299 298 296 298 292 286 288 288 289 286 287 287 283 286 285 286 285 281 280 279 281 284 284 285 284 283 282 283 283 280 277 293 294 288 290 293 292 289
298 298 298 298 297 297 297 297 298 298 298 298 298 297 297 298 299 298 294 297 297 290 288 293 293 293 292 291 288 288 285 285 286 283 283 283 283 285 284 281 289 283 287 285 287 286 291 291 290 290 291 290 290 288
297 298 298 297 297 296 296 297 297 298 298 298 298 298 298 298 298 298 296 296 293 288 288 288 289 294 296 294 295 285 290 289 288 290 285 285 282 286 281 283 286 289 290 286 287 285 286 287 288 287 287 286 286 286
295 296 296 297 296 296 297 296 296 297 297 298 297 297 297 298 298 298 294 295 293 290 284 287 293 291 295 295 294 294 291 292 292 291 285 284 283 289 284 285 285 286 289 285 284 285 285 285 286 287 286 285 284 285
296 296 297 297 296 296 297 296 296 296 297 297 297 296 297 298 298 299 297 297 297 290 285 287 292 293 295 295 293 293 291 290 289 284 285 284 289 288 290 287 283 285 282 282 283 285 284 282 285 286 285 284 285 284
296 295 296 296 296 296 297 297 296 296 297 296 296 296 297 298 298 297 286 295 295 295 287 282 291 289 292 293 292 291 291 290 288 287 286 289 291 289 283 283 284 285 285 286 283 284 284 283 284 285 283 282 282 282
295 295 296 295 296 296 296 297 296 296 296 296 296 297 297 298 297 288 290 294 297 293 286 282 283 289 292 292 293 292 292 291 290 288 287 288 289 290 286 283 283 284 284 285 287 286 283 284 281 283 283 282 282 282
295 294 295 296 295 295 296 296 296 296 296 296 296 297 298 298 295 290 293 295 294 287 288 282 282 285 293 288 287 293 289 290 290 290 291 288 290 290 283 281 282 284 284 283 284 285 284 283 283 282 282 282 280 280
294 295 296 296 296 296 296 296 296 296 296 296 297 297 293 291 289 292 296 295 295 291 284 283 281 281 291 289 290 289 290 283 292 285 287 288 286 282 280 280 280 280 280 282 283 283 283 281 280 280 281 280 279 278
294 294 295 296 296 296 296 296 295 295 296 296 293 289 286 290 297 295 291 288 289 289 290 283 287 283 288 287 284 286 287 285 281 286 290 285 283 280 280 280 281 281 281 283 282 280 281 280 279 279 279 279 278 277
294 294 294 295 295 295 295 295 295 295 295 290 288 286 292 297 293 291 283 283 284 281 286 285 286 285 291 285 284 288 283 285 279 285 283 282 280 278 279 278 279 280 280 281 281 281 282 281 279 278 277 277 276 276
294 294 295 294 295 295 294 295 295 293 291 292 292 293 293 289 286 281 279 282 281 279 286 284 285 288 290 293 288 286 283 284 278 288 283 280 276 278 278 277 277 278 279 278 279 278 278 278 278 276 275 274 273 272
294 294 294 294 294 294 295 295 296 296 296 295 290 286 284 284 277 277 274 278 280 284 287 286 283 288 290 290 286 285 280 282 287 283 282 278 277 278 278 277 276 277 277 276 275 276 276 275 275 274 272 272 272 270
294 294 294 295 295 295 296 294 295 296 293 286 283 277 280 277 280 281 283 284 287 287 287 287 286 286 287 284 285 281 284 285 281 278 277 277 277 276 277 276 275 273 273 273 273 272 271 271 270 270 271 270 270 269
294 294 295 295 296 296 295 296 296 293 288 284 284 278 278 284 283 284 285 286 285 287 287 286 287 288 285 283 284 283 280 279 279 279 279 278 277 275 273 273 272 271 271 271 272 271 271 271 271 270 271 271 270 268
294 294 293 295 296 295 296 296 292 291 286 283 280 279 280 281 281 283 284 283 286 285 288 288 284 282 280 282 279 277 278 278 278 278 277 276 273 272 272 272 271 272 272 272 272 272 272 271 271 271 270 270 269 269
294 291 294 295 296 296 295 291 289 282 281 278 279 280 281 281 282 281 283 284 286 286 284 285 280 277 282 279 277 279 279 278 276 276 277 276 273 271 271 271 271 272 273 273 273 273 273 272 272 272 271 271 271 271
291 295 296 296 293 291 289 288 284 281 277 280 279 279 280 280 281 281 283 283 284 286 285 282 284 280 279 277 280 277 276 274 277 277 276 274 273 273 274 274 273 274 274 274 274 273 273 273 274 274 273 273 272 272
295 295 295 295 294 290 284 283 285 277 278 280 279 280 280 280 280 281 282 283 284 286 284 282 280 281 280 279 278 276 276 277 275 276 275 275 275 273 274 274 275 275 275 275 275 276 276 275 275 277 276 275 275 274
295 295 294 293 293 286 281 281 286 280 278 279 280 279 280 280 280 281 283 282 282 282 280 279 279 278 279 278 279 279 279 279 277 274 274 275 276 275 276 277 277 277 277 276 276 275 275 275 275 275 275 275 274 274
293 292 292 291 287 286 282 281 279 280 279 278 278 280 279 280 280 280 280 280 281 278 278 277 277 276 276 277 280 280 279 279 278 278 277 275 277 278 277 278 277 277 277 277 276 274 274 275 274 274 274 273 273 274
292 292 290 289 284 283 281 283 281 281 279 279 279 280 278 278 278 279 278 278 277 277 278 278 277 277 276 276 277 279 278 278 278 278 277 277 276 276 276 277 276 276 276 276 276 275 275 274 274 273 273 273 270 273
293 291 287 285 279 279 276 284 278 279 276 277 278 275 276 277 277 278 276 276 276 277 278 278 277 278 277 277 277 277 278 278 278 278 278 278 277 277 277 276 277 275 274 274 275 275 273 266 269 272 272 272 272 272
289 283 281 279 279 275 279 277 280 278 278 276 275 272 273 276 276 275 274 275 276 277 276 276 277 276 277 276 277 276 277 278 277 276 277 276 275 274 275 275 275 275 275 274 274 273 272 272 265 271 270 270 270 268
283 277 279 274 278 276 274 275 275 276 273 273 272 272 274 275 273 272 272 274 274 275 276 277 278 278 277 276 276 275 275 277 276 274 275 276 274 273 272 272 272 272 273 273 272 272 271 270 269 269 269 268 267 267
275 273 275 276 276 275 275 272 273 273 274 272 273 274 276 274 270 271 273 274 275 275 276 276 277 276 275 276 275 274 274 276 276 274 273 274 274 274 273 271 271 271 272 272 272 271 270 268 268 265 267 266 262 263
272 272 274 275 277 276 275 275 276 275 272 272 273 272 272 270 271 271 273 274 276 277 279 279 279 278 275 273 272 272 272 273 273 272 271 271 271 272 273 272 269 271 270 269 269 269 268 267 266 266 266 267 266 265
272 273 271 271 270 272 269 270 271 271 271 273 274 270 270 270 270 271 272 273 275 276 274 273 276 276 274 272 271 270 269 269 268 269 269 269 268 268 267 268 267 265 267 267 268 267 267 267 266 266 265 264 264 265
270 271 271 265 267 267 267 268 269 270 271 272 271 268 267 269 269 270 272 273 274 274 272 270 268 269 267 267 269 271 271 271 269 267 267 268 268 267 267 268 267 267 268 268 262 264 264 265 265 264 263 264 264 263
268 271 267 264 264 265 267 268 268 269 270 270 271 269 269 269 270 272 273 273 273 273 272 271 269 270 268 269 266 266 267 267 268 270 269 268 269 268 266 266 266 266 267 267 267 266 261 264 263 264 263 263 264 263
270 270 266 266 265 267 268 267 268 269 269 269 268 269 268 269 270 270 270 271 270 269 269 268 267 269 269 268 269 267 267 266 261 262 265 266 266 266 265 264 265 266 265 265 264 265 264 263 264 262 262 261 260 259
269 266 265 263 264 267 268 269 269 269 269 269 267 267 267 269 267 269 268 270 269 269 268 269 268 267 268 267 266 265 265 264 263 263 264 265 265 264 264 263 262 264 263 263 263 262 261 260 261 260 260 260 259 258
265 266 265 266 265 265 266 268 267 266 268 267 267 267 267 268 266 267 267 267 270 270 269 268 267 265 264 264 264 263 263 262 262 262 260 260 260 261 262 263 263 262 261 262 262 261 259 259 260 259 259 258 258 257

GFSWCAN_sfc_thetae_081.txt.gz
Theta_e
299 299 299 299 299 299 299 298 299 299 299 299 299 299 299 299 299 298 296 300 293 288 291 291 290 288 289 288 284 289 287 288 286 282 283 281 278 285 284 286 285 284 282 283 284 281 277 294 295 289 289 294 293 291
299 299 299 299 299 299 298 298 298 298 299 299 299 299 299 299 299 299 293 298 298 290 291 296 295 296 294 293 290 289 287 286 288 284 285 283 282 286 285 281 290 283 286 285 286 285 289 290 289 289 292 290 290 288
298 299 298 298 298 298 298 298 298 298 298 299 299 298 298 298 299 298 296 296 296 292 291 292 291 296 298 297 298 287 290 291 290 291 287 286 283 287 282 283 287 290 292 287 288 284 285 287 288 288 288 286 286 287
296 298 298 298 298 297 297 297 298 298 298 298 298 298 298 298 299 298 296 298 295 293 285 289 297 293 297 298 296 296 294 295 293 291 287 285 283 291 286 287 286 288 290 286 284 285 287 286 288 288 287 286 286 287
296 295 297 297 297 297 297 297 297 298 298 297 298 298 297 298 298 299 300 299 298 291 286 289 294 296 297 297 295 295 294 292 289 287 285 284 289 289 291 290 285 286 282 282 282 286 285 283 286 287 286 286 287 285
296 296 296 297 297 297 297 297 297 298 298 297 298 297 297 297 298 298 286 297 299 298 289 284 294 292 295 295 295 293 293 291 289 287 286 290 293 290 285 284 285 286 287 286 284 286 284 285 286 287 285 284 284 284
295 295 296 296 297 297 297 297 297 297 297 297 297 296 297 298 299 291 291 293 298 295 286 285 286 292 293 294 295 294 292 290 289 288 288 288 289 291 288 283 285 285 286 287 287 288 285 286 283 285 286 285 285 285
295 296 296 296 296 296 297 297 297 297 297 296 296 296 297 297 296 293 297 297 295 288 288 283 285 287 294 289 288 293 288 289 289 290 291 288 291 291 284 283 284 285 285 285 285 287 286 286 285 285 285 285 283 282
295 296 296 296 296 296 296 297 297 297 296 296 296 297 296 293 289 291 296 296 294 290 285 285 283 282 293 291 292 290 291 285 292 288 288 289 288 283 282 283 282 282 282 284 285 285 286 284 284 284 284 283 282 281
295 295 296 296 296 296 296 296 297 296 296 296 294 288 285 290 297 295 291 287 288 290 290 285 290 286 290 288 286 288 290 286 283 287 292 286 285 282 282 283 283 283 283 285 284 282 282 282 282 282 281 282 281 280
295 295 296 296 296 296 296 296 296 296 296 291 288 287 293 296 291 291 285 284 286 283 288 288 289 287 293 285 285 290 286 287 280 285 284 284 282 280 281 282 283 283 284 284 284 284 283 283 281 280 279 279 279 278
295 295 295 295 296 296 296 296 296 294 291 291 293 294 293 290 287 283 282 284 283 281 288 287 288 290 291 294 288 289 284 285 279 289 284 282 279 281 280 280 280 281 281 281 282 280 280 280 280 279 277 276 275 274
294 295 295 295 295 295 296 296 296 296 296 295 291 287 287 285 279 277 276 280 282 287 289 289 285 289 292 292 288 287 281 282 290 284 283 280 280 280 280 280 279 280 279 278 278 278 278 277 277 276 274 274 274 272
294 295 295 295 296 296 296 296 296 294 293 289 285 279 281 279 281 284 285 287 289 290 289 289 286 287 290 285 285 283 286 287 282 280 280 280 279 279 279 279 278 276 276 276 275 275 274 273 273 273 273 273 272 270
295 295 295 295 295 295 296 295 296 294 291 287 286 280 281 286 286 286 287 288 288 289 288 287 289 288 286 284 285 284 281 280 283 280 280 279 279 277 276 276 275 274 274 274 274 273 273 273 273 273 273 273 271 270
295 294 294 295 295 296 295 294 292 293 290 287 284 281 283 283 282 284 286 285 289 289 289 289 286 284 283 285 281 281 280 280 280 279 279 279 277 276 275 275 275 276 275 275 275 274 274 274 274 273 272 272 271 271
294 292 295 295 295 295 294 291 290 285 285 281 281 283 284 284 284 284 286 286 290 287 285 288 282 282 285 282 280 284 281 280 279 278 280 278 276 275 274 274 274 275 276 276 275 275 275 274 273 274 273 273 273 272
292 296 296 296 295 292 290 291 288 285 279 282 281 281 282 283 284 284 286 289 288 288 288 285 288 282 282 280 283 281 279 279 280 279 278 277 276 275 276 276 276 276 276 276 276 275 275 275 275 276 275 275 274 273
294 296 296 295 293 293 288 287 289 281 281 281 281 282 282 282 284 285 286 288 290 290 289 287 284 285 284 283 282 280 279 280 278 278 277 277 277 276 276 276 277 277 276 276 277 278 278 277 278 278 278 277 276 277
294 295 295 295 294 289 284 284 290 284 282 282 283 282 282 283 283 283 285 287 287 287 285 284 284 283 283 282 284 282 282 282 279 276 275 276 277 277 277 277 278 278 278 278 277 277 277 277 278 277 277 276 276 276
293 293 293 294 290 289 286 285 283 285 282 282 282 283 282 284 282 282 283 286 285 285 283 283 281 280 281 283 284 284 282 282 280 280 277 275 278 279 279 280 279 279 278 278 277 276 276 277 277 277 276 276 276 275
292 293 292 292 287 285 284 287 285 285 283 282 282 284 282 280 280 282 284 283 283 281 282 282 281 280 280 280 281 282 282 282 282 281 280 279 278 278 278 278 278 278 278 278 278 277 277 277 276 276 276 275 272 275
294 294 291 288 282 281 279 287 281 282 279 280 282 279 280 280 282 282 280 282 280 280 282 282 281 282 280 280 280 280 281 281 281 280 280 280 280 281 279 278 279 278 277 277 278 277 276 269 273 274 275 274 274 273
292 286 283 282 283 278 282 280 283 281 281 279 279 276 276 280 280 279 279 280 278 279 279 279 280 279 279 279 279 279 281 282 280 280 280 279 278 278 278 278 278 278 278 277 277 276 275 275 269 273 273 272 272 271
287 280 282 277 281 279 278 278 278 279 277 278 276 276 277 279 277 277 277 278 277 277 278 280 280 280 279 280 279 279 280 281 279 278 279 280 279 277 277 276 276 276 277 276 275 275 274 273 272 272 271 271 270 269
279 277 279 280 279 279 279 276 277 277 278 276 277 279 279 278 275 275 277 278 277 278 278 279 280 279 279 280 278 278 278 280 280 277 277 278 278 278 276 274 274 274 275 276 275 273 273 272 270 269 269 269 265 266
276 276 278 279 281 281 279 280 281 279 276 276 277 276 276 273 275 275 276 279 279 280 281 282 281 280 279 278 278 278 277 277 278 277 277 276 275 276 277 276 272 273 274 273 273 271 271 270 269 268 268 269 269 268
277 278 275 276 277 279 276 277 277 276 277 279 279 275 274 275 275 275 276 278 281 280 280 281 282 280 279 277 276 275 273 273 273 274 274 274 274 273 272 272 270 268 270 270 271 270 270 270 269 268 268 267 267 267
275 277 276 269 272 274 275 276 277 276 276 277 277 275 273 273 274 275 275 277 278 277 276 275 274 276 276 276 276 276 276 275 273 270 270 271 271 270 272 272 271 271 272 270 265 267 267 267 267 266 266 266 267 267
272 277 273 270 270 272 273 274 274 273 275 275 275 273 273 272 273 275 276 276 277 278 277 276 275 275 273 272 271 271 273 274 275 274 273 272 272 271 271 270 270 269 271 271 270 269 264 267 267 267 266 266 267 266
275 275 272 272 271 272 272 273 273 273 274 274 274 275 272 272 273 274 275 276 276 276 275 274 275 275 274 273 273 271 269 270 268 270 272 271 271 270 269 269 269 270 269 268 268 268 266 266 267 266 265 264 263 263
274 272 270 268 269 270 272 272 273 273 272 272 271 272 271 272 271 272 273 275 275 275 274 275 274 274 275 273 271 271 270 269 268 269 269 270 269 268 268 267 267 268 267 266 266 266 264 263 264 264 263 263 262 261
271 272 271 270 269 269 271 271 271 270 271 271 271 272 273 273 270 271 272 273 276 275 275 274 272 271 270 270 269 268 268 267 265 265 264 265 265 266 267 267 267 266 264 266 266 265 263 263 263 262 262 261 261 260

GFSWCAN_sfc_thetae_084.txt.gz
Theta_e
300 300 300 300 300 300 299 299 300 299 299 300 299 299 299 299 299 298 298 301 294 290 291 291 291 288 289 288 284 288 287 287 286 282 282 281 279 281 283 285 283 281 281 281 281 280 277 289 290 285 287 290 290 287
300 300 300 298 299 299 299 299 299 299 299 299 299 299 299 298 299 298 296 299 298 292 291 296 296 296 294 293 289 289 287 288 288 284 284 283 280 284 283 280 290 282 285 283 282 281 287 288 287 288 289 287 287 286
299 299 299 298 299 299 299 298 299 299 299 299 299 299 299 298 299 298 296 298 296 291 291 292 292 297 299 297 298 287 290 292 290 292 287 285 281 286 280 282 284 287 291 285 285 284 284 286 287 287 286 286 287 286
298 298 298 298 299 299 298 298 298 298 298 298 299 299 298 298 298 298 296 299 296 292 286 290 298 294 298 298 297 296 293 294 293 291 287 284 282 289 284 286 284 285 287 284 283 285 286 285 287 287 287 287 286 286
297 298 298 298 298 298 298 298 298 298 298 298 298 298 298 298 298 298 299 299 299 291 285 288 295 296 298 297 295 295 293 291 289 287 285 283 287 288 290 289 282 285 282 280 280 284 284 283 286 286 285 286 287 285
296 296 297 297 298 297 297 297 297 298 298 298 297 298 298 298 297 297 287 298 300 299 288 283 295 294 295 296 294 294 293 292 289 287 286 288 292 289 285 282 284 285 286 286 283 286 285 285 286 287 285 284 285 284
296 296 296 296 297 297 297 297 297 297 298 298 297 297 297 297 297 291 289 292 299 298 287 284 286 293 294 294 293 293 294 291 288 288 286 288 289 291 287 282 284 284 285 286 288 287 285 285 283 286 285 285 285 285
296 296 295 297 297 297 297 297 297 298 297 297 297 296 296 297 296 293 298 298 297 289 288 283 284 288 294 289 288 294 289 289 289 288 290 288 290 290 283 283 284 285 286 285 286 287 286 286 286 286 286 285 283 281
295 296 295 295 296 297 297 297 298 297 297 297 296 296 297 294 289 292 297 297 296 290 285 285 282 281 293 290 291 290 291 284 291 287 288 289 287 283 283 283 282 283 283 284 286 287 286 285 284 284 285 284 281 279
295 296 296 296 296 297 297 297 297 297 297 296 295 289 285 290 297 296 291 287 286 288 289 285 289 285 290 289 287 287 289 285 282 287 291 287 284 284 284 284 284 284 285 286 286 283 283 282 282 281 281 281 280 279
294 295 296 297 296 297 297 297 297 297 296 293 288 286 293 297 292 289 285 283 285 283 288 288 288 286 292 285 285 289 285 286 280 285 285 283 281 280 283 283 283 284 284 283 283 283 283 282 281 279 278 277 276 276
295 295 296 296 296 296 297 297 297 295 293 292 292 294 292 289 287 283 282 284 284 281 288 287 288 290 291 293 287 288 284 285 279 290 284 281 278 281 281 281 281 282 281 280 281 280 280 280 279 278 276 274 274 274
295 295 296 296 296 295 296 297 296 296 295 294 290 288 287 286 280 278 276 279 281 287 289 290 287 291 291 292 288 286 281 281 289 283 281 279 280 281 281 280 280 280 280 279 278 278 277 276 276 275 274 274 273 272
295 296 296 296 296 296 296 296 296 295 292 288 285 280 282 279 281 283 284 287 289 291 290 291 288 288 290 287 286 280 286 286 281 279 279 279 280 280 280 280 278 276 276 276 275 274 273 273 272 273 273 273 271 269
295 295 296 296 296 296 296 296 296 294 288 286 286 280 281 286 286 286 288 288 289 288 291 287 288 288 285 283 285 284 281 279 282 279 279 280 279 278 277 276 275 274 274 274 274 273 273 273 273 273 273 272 270 269
295 295 294 296 296 296 296 294 293 292 289 286 285 282 284 284 284 284 284 286 290 288 288 288 285 283 283 285 282 280 280 279 278 278 279 279 277 277 276 276 275 276 275 274 274 274 274 274 273 272 272 271 270 270
294 292 295 295 296 296 295 291 289 287 286 283 281 284 285 285 285 286 286 288 291 287 285 286 283 283 286 282 281 284 280 279 279 279 280 279 277 275 276 275 276 276 276 276 276 276 275 274 273 274 273 273 274 272
292 296 296 296 294 291 289 291 288 285 281 283 282 282 284 285 285 285 286 288 287 288 288 286 288 282 281 280 282 281 280 280 280 279 278 277 276 276 276 276 277 277 276 276 275 275 275 275 276 276 275 275 275 274
295 296 295 294 293 290 288 287 289 282 282 282 282 283 283 283 285 286 287 288 290 291 288 287 284 283 283 283 282 280 280 280 277 277 277 277 277 277 277 277 277 277 277 276 277 277 278 277 277 278 278 277 276 277
296 295 295 295 295 290 285 285 291 285 281 282 284 282 283 283 284 284 285 287 287 287 285 284 283 282 282 282 285 283 283 282 278 275 275 276 277 277 277 277 278 278 278 278 278 277 277 277 277 277 275 274 275 275
294 294 295 293 290 290 287 286 285 286 284 282 283 284 282 283 282 283 283 287 285 285 284 283 281 280 283 285 285 284 283 282 280 279 276 275 277 278 278 280 279 279 278 278 278 276 275 277 276 276 276 276 275 275
291 293 291 291 287 286 285 288 286 286 284 283 282 284 281 280 281 282 285 283 284 282 283 283 281 280 281 281 282 283 283 283 283 281 280 279 278 278 279 279 279 278 279 279 278 278 277 276 275 275 275 275 271 274
293 293 290 287 282 282 280 288 282 283 279 280 283 280 280 280 282 283 280 283 280 283 283 283 282 283 281 282 282 282 282 282 280 280 280 280 281 281 280 280 280 279 277 277 277 277 275 269 270 273 274 273 274 273
294 288 284 284 284 279 283 281 284 282 282 280 280 278 279 280 282 280 279 281 280 281 281 281 281 279 279 280 279 280 282 282 281 281 281 279 278 278 279 279 279 278 278 277 276 276 275 275 270 273 274 272 272 272
284 281 283 279 283 280 279 279 280 280 278 279 278 278 279 281 277 278 278 279 279 279 279 281 281 280 279 280 280 280 282 281 279 278 281 281 279 278 277 277 276 276 277 276 275 275 274 274 273 272 272 271 270 270
280 279 281 281 281 280 280 278 278 279 279 278 279 281 280 278 276 276 279 279 279 279 280 281 281 280 280 280 278 279 280 282 281 278 278 279 279 278 276 274 274 273 275 275 274 273 273 272 271 270 269 269 264 266
278 278 280 282 283 282 280 282 283 280 278 277 278 277 277 274 276 276 278 280 281 282 282 283 283 282 280 280 280 279 279 280 280 277 277 276 276 277 276 275 273 273 274 273 272 271 270 270 270 269 269 269 269 269
280 280 276 278 280 281 279 279 278 278 279 281 280 276 276 276 275 276 277 280 283 283 283 283 284 282 280 279 277 276 275 275 275 275 275 274 274 273 272 271 270 270 269 268 270 270 270 269 268 268 268 267 267 268
277 279 278 275 276 278 279 279 279 278 278 280 279 277 275 274 275 276 277 279 281 279 277 276 277 278 278 277 277 277 276 275 273 270 271 270 269 270 273 272 272 272 272 268 266 268 267 267 266 265 266 266 267 267
275 279 276 274 273 275 276 276 276 276 277 277 277 275 274 273 274 277 277 278 278 277 277 276 276 276 274 274 274 274 276 276 276 275 273 272 271 271 271 270 270 269 271 270 269 268 265 267 268 267 265 267 267 265
277 277 275 276 274 275 274 275 275 275 276 276 276 277 274 272 274 276 277 279 280 278 277 275 276 276 275 273 272 271 269 270 271 272 273 272 272 271 270 270 270 270 269 268 268 267 265 265 266 266 265 264 264 263
275 275 273 272 271 272 273 273 273 274 273 273 273 274 272 273 271 272 275 277 276 276 277 277 275 275 275 273 272 273 271 270 270 271 271 271 269 269 268 268 268 268 267 267 266 266 265 264 264 264 263 263 262 261
273 274 274 272 270 270 272 273 272 272 273 273 273 273 274 274 270 271 274 275 277 277 276 275 274 274 272 272 271 270 269 267 266 267 266 266 267 268 268 268 267 267 266 266 266 265 264 263 262 262 262 261 260 259

GFSWCAN_sfc_thetae_087.txt.gz
Theta_e
300 300 300 300 300 300 300 300 299 300 299 300 300 299 298 299 299 295 293 295 289 283 287 290 290 284 285 284 277 282 281 282 280 275 278 273 270 278 278 284 282 280 279 279 280 276 275 286 286 281 286 287 286 284
300 300 300 300 299 299 300 299 299 299 299 299 300 299 299 298 299 297 290 295 294 286 286 291 292 292 290 289 284 284 282 283 281 276 278 278 278 281 281 277 286 280 284 280 280 279 285 286 284 286 287 286 285 284
299 299 299 299 299 299 299 299 299 299 299 299 299 299 299 298 298 298 292 292 290 283 285 286 287 293 295 292 292 282 286 289 285 286 278 279 277 283 278 281 282 284 287 283 283 282 282 285 286 286 287 285 284 284
299 299 299 298 297 298 299 299 299 298 299 299 299 299 299 298 298 297 291 294 291 287 278 286 296 291 296 295 293 291 289 290 289 285 279 278 277 286 282 284 281 282 284 281 282 283 283 284 286 287 286 285 284 284
298 298 298 298 298 298 298 298 298 298 298 299 299 298 298 298 298 295 293 294 294 288 281 281 290 293 294 293 292 292 289 287 283 280 277 278 282 285 284 285 279 283 280 278 277 283 282 283 285 285 284 285 284 282
297 298 298 298 298 298 298 298 297 298 298 299 298 298 298 298 297 290 282 292 295 293 281 275 288 290 292 292 291 290 289 286 284 280 279 284 287 286 276 276 282 284 286 285 281 285 283 285 286 285 283 283 283 282
297 298 298 298 298 298 297 298 297 298 298 298 299 298 297 298 292 288 287 292 297 295 284 279 280 288 292 291 288 288 290 286 284 282 281 282 283 288 279 277 282 283 285 285 286 286 282 284 282 285 284 284 284 283
296 296 296 296 297 297 297 297 297 298 297 298 298 297 297 297 294 288 292 297 296 288 287 280 278 282 290 283 282 288 285 284 283 281 284 283 285 285 278 281 284 284 285 284 285 286 285 285 285 284 285 283 280 278
296 296 296 297 297 297 297 297 297 298 298 297 297 297 292 288 286 290 298 296 294 288 281 278 274 272 290 285 285 285 286 275 285 279 282 284 277 276 282 281 281 282 282 283 285 285 285 283 282 282 282 280 278 277
295 296 295 297 297 297 297 297 297 297 297 297 292 286 282 287 297 294 290 286 285 286 287 281 284 277 286 279 277 279 280 278 277 281 285 276 277 282 283 283 284 284 285 284 284 280 282 279 278 278 277 278 277 276
295 295 295 295 296 297 297 297 297 297 296 288 284 283 292 297 290 288 282 281 278 281 282 282 282 279 287 276 278 285 281 281 278 281 279 275 277 279 282 282 282 281 282 282 281 280 280 279 277 276 275 274 274 273
295 295 295 295 296 297 297 297 297 291 288 289 291 292 292 288 285 281 279 279 280 278 281 279 281 284 285 289 282 283 280 280 277 283 278 272 277 280 279 279 279 279 278 278 278 277 278 277 276 274 273 272 271 270
295 295 296 296 296 297 297 297 296 296 295 292 289 285 285 282 278 272 269 274 272 279 281 280 278 282 284 286 282 283 279 276 285 280 275 276 278 279 278 278 277 278 277 277 275 274 274 273 273 272 271 268 269 267
295 296 296 296 296 296 297 296 296 294 290 285 283 274 277 273 273 274 276 277 280 280 280 279 278 278 280 278 279 278 278 283 279 274 275 276 278 277 278 277 275 272 272 272 270 271 269 267 267 267 266 264 264 261
295 296 296 296 296 296 296 296 295 290 287 283 284 274 273 281 283 284 285 285 286 287 280 279 279 281 282 280 282 279 275 274 278 275 275 276 275 274 272 272 270 269 268 268 267 268 268 268 269 267 263 262 262 260
295 295 293 296 296 296 296 295 292 290 286 284 282 280 280 282 281 282 283 284 286 285 286 285 282 280 278 278 278 277 278 275 275 276 276 276 273 272 271 271 270 272 270 269 268 269 268 267 265 263 262 262 261 261
294 290 295 296 296 295 294 289 288 283 283 282 279 279 283 283 283 284 284 284 287 285 281 283 279 277 284 278 276 276 276 277 277 277 277 275 273 271 271 272 271 271 271 271 271 270 267 267 268 270 268 268 270 269
290 294 296 296 294 292 290 290 286 284 281 282 278 281 282 283 284 284 284 284 285 285 284 283 284 277 272 275 278 278 278 278 278 276 274 273 272 271 272 271 274 275 274 273 271 270 270 270 272 273 273 273 273 272
293 293 295 295 292 288 285 286 287 280 280 281 280 281 281 282 283 284 284 285 286 287 282 281 278 276 279 281 279 278 278 276 273 273 273 270 271 274 274 276 275 275 272 272 274 274 274 275 273 274 274 274 270 272
295 295 295 295 293 288 284 285 289 282 278 279 282 280 281 281 282 283 283 284 284 284 280 278 279 279 280 280 281 279 279 277 274 273 273 275 274 275 275 276 276 274 274 276 275 272 273 273 273 273 270 269 267 265
293 293 294 292 288 289 285 283 283 283 281 280 282 281 280 281 281 281 282 284 282 280 280 280 278 279 281 282 283 282 279 277 274 273 273 273 275 276 274 276 275 274 273 270 270 269 268 271 271 271 265 263 262 263
291 293 290 290 286 285 283 284 283 283 281 280 280 282 279 278 279 280 283 281 280 279 280 277 276 278 280 280 280 281 278 280 278 276 275 275 274 273 276 274 273 274 275 272 273 270 270 269 269 267 263 263 264 264
293 292 287 286 282 280 279 285 281 282 278 279 281 279 278 279 280 281 276 280 277 275 277 278 278 281 280 280 280 280 280 279 277 276 275 275 274 276 274 273 277 274 271 271 273 270 265 265 263 262 261 261 262 261
293 286 283 281 282 277 279 279 282 280 281 279 278 277 277 278 280 274 276 276 274 275 278 278 278 277 278 278 275 275 278 279 276 274 277 277 276 275 275 274 273 272 272 273 271 268 265 261 262 263 262 263 259 258
282 279 282 278 281 278 277 276 278 277 272 275 275 276 276 276 275 275 276 273 276 278 275 278 278 276 271 270 273 277 278 279 277 275 272 276 273 274 273 272 270 270 269 265 263 263 263 264 261 260 260 257 258 256
279 279 279 279 279 277 278 276 276 277 277 275 277 276 275 276 274 272 274 274 274 277 276 278 278 276 277 277 275 276 275 278 278 275 275 276 274 271 268 267 264 264 267 264 262 261 261 262 259 258 257 258 258 256
276 277 278 281 281 282 278 280 281 278 276 276 276 274 275 272 270 270 272 274 276 273 277 280 278 279 277 275 274 274 275 276 274 273 272 272 271 270 268 266 268 266 265 264 262 259 259 258 257 256 256 255 257 259
280 279 269 272 276 278 278 277 275 276 276 279 278 274 274 272 268 271 272 273 279 276 278 280 281 279 275 273 273 272 271 271 271 271 271 269 268 265 262 263 264 266 261 261 261 261 260 257 256 255 255 254 254 254
273 277 277 276 276 272 277 276 274 273 274 274 276 273 267 269 270 269 269 275 277 275 274 274 274 274 274 274 273 272 271 269 267 264 262 260 259 262 261 260 260 261 260 261 267 262 260 257 255 255 255 255 255 258
274 278 272 268 266 270 271 271 271 271 272 271 271 271 269 268 267 269 271 273 272 272 272 273 274 273 272 271 271 271 270 268 266 266 266 264 263 263 262 260 260 260 263 265 262 260 263 257 259 258 257 255 253 252
276 276 274 272 270 270 272 271 270 269 269 268 268 270 266 265 266 268 271 273 273 276 273 273 273 273 273 271 269 267 264 265 264 267 268 268 266 265 264 262 261 262 262 260 260 256 254 254 253 253 253 252 254 252
273 274 272 269 266 269 269 268 268 268 267 266 269 267 265 265 262 264 268 271 274 273 270 273 273 273 272 271 271 269 268 266 265 266 265 265 264 263 263 261 261 262 260 259 257 255 253 252 252 251 250 250 249 248
271 273 272 268 264 265 268 269 268 269 269 269 270 267 266 268 264 264 266 268 269 275 274 271 271 271 270 269 267 265 264 263 264 267 265 265 264 264 262 262 261 260 260 257 255 253 253 252 251 250 249 248 247 246

GFSWCAN_sfc_thetae_090.txt.gz
Theta_e
300 300 300 300 300 300 300 300 300 300 300 300 299 298 298 298 299 294 290 291 288 281 285 288 289 283 282 281 275 280 279 279 278 274 274 270 269 276 278 281 281 280 278 278 279 275 273 284 284 279 284 285 283 282
300 300 300 300 300 299 300 300 300 299 300 300 299 298 298 298 299 297 287 293 292 284 284 289 289 290 289 288 283 282 280 281 279 274 275 275 274 277 279 277 285 277 280 278 279 277 284 285 284 286 286 284 283 282
299 300 300 299 299 300 300 299 299 299 299 300 300 299 298 298 299 296 289 290 288 281 283 285 286 290 293 290 289 281 284 288 283 283 276 276 273 280 277 279 281 282 285 281 280 281 282 284 286 285 285 282 282 281
299 299 299 299 299 299 299 299 299 299 299 299 299 299 298 298 298 297 290 291 288 284 277 286 294 290 294 292 290 289 287 288 287 284 276 274 275 283 279 283 279 281 283 280 279 282 282 282 284 285 283 283 282 282
298 299 299 299 298 299 299 299 298 298 299 299 299 298 298 298 298 293 290 290 292 285 278 279 287 291 292 292 291 289 288 285 281 279 275 275 280 281 283 281 279 283 279 278 274 281 280 281 283 284 284 282 281 280
299 299 299 298 298 298 298 298 298 298 298 299 298 298 298 298 295 286 279 290 293 289 279 274 285 287 289 290 290 288 287 284 282 279 277 281 285 282 277 274 282 284 285 284 277 283 283 284 283 284 282 281 280 279
298 298 297 298 298 298 298 297 298 298 298 298 299 298 298 297 290 284 282 292 296 289 277 273 278 286 289 289 287 287 290 285 283 280 279 279 281 286 278 277 281 283 285 285 287 284 281 283 281 284 283 282 282 281
297 298 297 297 298 298 297 297 297 298 298 298 298 298 297 297 293 287 293 297 293 285 286 273 276 280 288 281 282 285 282 284 283 280 280 280 283 284 277 281 283 284 284 284 284 285 284 285 285 283 281 280 278 277
297 297 297 297 297 297 297 297 297 298 298 298 298 296 289 286 282 288 297 295 291 284 281 277 272 269 285 282 282 283 284 274 282 277 279 283 277 276 278 282 282 282 283 282 286 285 283 281 281 281 279 278 276 276
296 296 296 297 297 297 297 297 297 297 298 297 289 282 281 283 297 294 289 284 285 286 285 280 281 275 282 275 275 277 277 276 274 279 282 276 277 281 283 283 283 284 283 285 283 280 279 278 277 277 277 277 276 275
296 296 296 297 297 297 297 297 297 297 294 285 282 282 291 296 289 286 280 279 279 279 280 280 280 277 285 275 275 282 281 282 278 279 280 276 276 279 280 279 280 282 281 281 280 280 280 278 276 274 274 274 273 273
295 296 296 297 297 297 297 297 297 289 285 285 288 292 292 287 283 279 276 277 277 277 279 277 279 281 282 286 277 282 280 280 277 283 277 270 274 278 278 278 277 278 277 276 277 276 276 275 275 273 272 271 270 268
295 295 296 297 297 297 297 297 296 296 293 291 289 284 282 282 276 272 267 273 270 276 278 277 281 280 282 282 276 282 280 276 283 275 273 272 276 277 277 276 276 276 275 274 273 273 273 272 272 271 268 265 266 264
295 295 295 295 296 297 297 297 297 293 287 281 281 276 276 269 269 271 272 272 277 276 278 275 275 276 276 276 275 278 277 282 274 271 271 272 276 276 276 276 274 271 270 270 269 268 267 266 264 264 263 261 261 259
295 294 295 296 296 297 296 296 294 288 285 282 282 272 270 276 281 282 284 284 282 286 277 276 277 278 276 276 281 279 277 275 276 274 271 273 274 272 270 270 268 266 265 265 263 264 265 265 264 260 258 258 259 257
296 295 293 296 296 296 296 293 289 286 284 282 282 279 281 280 279 281 282 283 285 284 283 282 281 279 279 277 278 276 277 275 269 271 275 275 272 267 267 267 266 266 267 267 267 266 265 263 263 262 259 260 258 258
293 289 295 296 295 295 293 287 287 281 281 282 278 279 281 281 281 280 283 284 286 284 280 282 278 276 282 275 276 277 275 268 273 275 275 273 270 267 267 269 270 270 268 267 267 268 266 265 266 268 267 267 267 267
289 293 295 295 293 291 288 288 283 282 278 281 273 272 272 280 283 283 283 284 284 284 284 282 284 278 268 272 274 274 275 275 275 271 271 269 270 269 271 269 269 270 270 269 270 268 268 268 270 270 271 271 270 271
292 293 295 294 290 286 280 283 287 279 279 280 280 280 279 281 282 283 283 284 285 286 282 279 275 273 278 278 271 269 273 268 269 268 267 266 270 270 270 271 271 270 271 271 273 272 271 273 273 273 272 272 270 269
295 295 294 294 293 287 283 284 287 280 273 274 280 279 279 280 281 281 282 283 284 283 281 276 275 275 275 275 275 275 273 274 273 270 269 268 270 272 272 274 273 273 273 274 274 272 272 271 271 271 269 269 265 263
293 293 293 289 288 288 285 281 281 282 280 279 280 280 279 281 280 280 281 284 282 281 277 279 278 275 277 275 278 277 275 275 272 272 272 272 274 274 274 274 275 274 272 270 268 267 267 269 269 269 263 259 257 259
290 293 289 289 285 284 281 283 281 281 280 280 280 282 279 277 278 280 282 280 280 277 280 274 274 276 277 276 276 278 277 277 275 274 273 274 273 272 273 270 272 269 270 268 271 267 265 268 266 265 260 258 260 261
292 290 286 285 281 278 276 283 279 280 274 278 280 278 277 278 280 282 276 276 273 273 275 276 277 280 277 276 280 280 279 277 274 274 274 274 272 270 272 270 271 271 271 269 271 268 265 264 262 259 258 258 256 256
291 285 281 280 281 276 278 274 280 279 280 278 277 276 277 278 279 273 271 273 270 272 274 275 278 276 278 279 274 275 277 277 274 272 274 275 275 274 273 272 272 272 271 271 270 266 263 259 259 260 256 256 255 255
278 278 280 274 278 275 276 277 277 276 274 276 276 275 274 276 270 272 271 269 275 277 275 272 274 276 269 266 271 274 276 277 275 274 273 276 273 272 271 270 269 268 268 265 260 259 257 255 255 256 256 254 255 254
278 275 275 274 277 277 277 275 275 276 276 274 275 276 273 270 270 270 272 267 269 272 275 274 271 272 273 274 274 276 275 278 277 272 272 275 274 271 268 265 263 263 264 263 262 257 259 261 258 257 255 255 254 252
271 271 275 279 278 281 278 278 279 276 274 274 275 272 274 270 269 268 270 271 270 267 273 277 277 275 274 273 274 273 274 275 274 271 270 269 268 268 269 266 263 264 261 262 259 260 258 255 254 253 253 251 252 252
275 273 270 271 273 276 275 275 271 274 276 276 274 270 266 267 268 267 267 271 275 276 276 277 279 277 274 273 272 271 270 270 269 268 268 266 264 263 265 265 266 266 261 260 258 258 258 258 257 253 252 252 251 248
270 271 274 272 271 268 277 277 275 271 273 272 270 266 264 266 266 263 268 271 272 272 271 271 272 273 272 272 271 271 271 270 268 264 261 258 256 260 257 260 260 259 258 260 263 260 260 257 255 253 252 252 253 252
270 273 268 264 266 266 266 267 267 266 269 267 268 268 266 263 262 262 265 270 269 266 264 270 272 273 271 270 268 267 267 265 267 268 264 260 260 261 261 260 258 256 257 259 258 259 263 257 258 255 252 251 249 248
274 273 268 266 263 264 263 264 263 263 261 262 259 263 261 260 263 262 263 265 271 270 271 271 269 271 271 269 268 267 265 267 266 267 267 266 265 263 261 259 259 261 261 260 258 256 253 251 247 247 248 248 246 245
271 271 270 264 263 266 266 265 262 260 259 260 261 258 259 258 259 260 262 263 270 270 263 269 270 267 269 271 270 268 268 266 266 266 266 265 264 262 262 261 261 261 260 258 256 253 251 250 247 247 246 244 243 243
271 272 269 266 264 264 263 266 264 264 262 259 260 262 261 263 262 262 261 266 268 269 271 268 268 269 268 268 267 265 266 266 266 267 265 264 262 263 262 260 260 260 259 257 254 253 251 249 246 244 243 243 242 242

GFSWCAN_sfc_thetae_093.txt.gz
Theta_e
297 301 301 300 300 300 300 300 300 299 299 299 298 298 298 299 300 292 289 291 287 281 284 288 288 283 282 281 275 279 278 278 277 274 273 268 267 277 275 276 280 278 276 276 278 275 273 283 283 277 282 283 282 281
299 300 300 300 300 300 298 300 300 300 299 299 298 298 298 299 300 295 288 292 291 285 285 288 288 289 287 286 281 281 279 280 278 274 274 274 273 275 274 273 284 277 279 277 277 276 283 284 282 284 285 283 282 281
300 299 299 300 300 299 299 300 299 299 299 299 299 298 298 299 299 295 289 289 287 282 284 285 284 288 291 289 288 282 283 286 282 281 275 275 273 278 271 274 276 282 284 280 280 280 281 283 283 284 283 281 281 281
299 299 299 299 299 299 299 299 299 299 299 299 299 298 298 299 299 296 289 289 287 284 278 282 291 288 292 290 289 288 287 286 285 282 275 273 274 281 277 280 276 280 282 280 279 281 281 282 283 282 282 282 281 281
299 299 299 299 299 299 299 299 299 299 299 299 298 298 299 299 297 292 290 290 291 284 277 280 286 289 291 290 289 288 286 283 281 278 274 274 280 279 283 278 275 282 279 277 274 281 280 280 283 284 281 280 280 279
298 299 299 298 298 299 298 298 299 299 299 299 298 298 298 297 293 286 280 289 292 287 278 275 284 285 287 289 288 287 285 282 281 278 276 279 282 279 275 272 280 284 284 284 279 283 283 283 283 283 280 280 279 278
298 299 298 298 298 298 298 298 298 298 299 298 298 298 298 297 290 284 281 289 294 286 275 273 278 285 288 289 288 286 290 283 283 280 278 278 280 283 275 273 281 283 284 284 286 283 281 283 280 283 282 281 281 279
298 299 298 297 298 298 298 298 298 298 298 298 297 298 297 295 292 287 294 295 289 282 279 272 275 280 286 281 284 284 284 282 281 279 280 279 281 283 276 278 282 283 283 283 285 285 282 283 281 280 279 278 277 276
297 297 297 298 298 297 297 297 298 298 298 297 296 294 288 284 281 287 296 293 288 283 275 275 272 270 283 281 281 282 282 275 282 275 278 280 275 278 279 279 282 283 281 278 284 284 282 282 281 279 277 277 275 275
297 296 297 297 297 297 297 297 297 298 297 294 287 281 273 282 295 292 285 281 282 284 285 276 279 274 280 273 274 275 276 277 273 277 280 274 276 281 282 283 283 283 283 285 279 278 278 277 277 277 276 276 275 275
297 297 297 297 297 297 297 297 297 296 292 283 276 282 288 296 289 285 279 278 279 278 280 280 278 276 283 274 274 278 279 279 276 276 276 276 275 278 280 280 281 281 280 279 279 280 280 278 276 275 274 274 274 273
296 297 297 297 297 297 297 297 295 287 283 284 288 291 291 286 283 279 277 278 277 276 278 276 278 280 281 284 276 278 281 281 276 284 279 271 272 277 278 277 277 277 278 278 279 277 277 276 275 273 272 271 269 267
296 296 297 297 297 297 297 296 295 294 294 292 287 284 282 281 274 271 269 274 269 276 276 276 274 277 280 280 275 277 279 276 281 277 271 270 276 277 276 276 275 276 276 275 274 274 273 272 271 270 268 264 265 263
295 296 297 297 297 297 297 296 296 292 286 281 280 275 274 272 272 270 271 271 276 275 276 274 275 275 275 275 276 276 273 280 273 270 271 271 275 275 276 276 274 270 269 269 268 268 266 265 262 261 260 258 260 258
295 296 296 296 297 297 296 295 293 286 282 280 281 270 273 277 278 282 283 283 281 283 275 275 276 277 273 271 280 278 276 274 277 274 269 274 275 273 271 269 268 266 264 263 261 263 262 262 262 258 256 256 258 255
295 295 293 296 296 296 295 292 288 285 283 281 281 278 280 280 279 281 281 282 285 284 282 278 276 272 274 278 277 275 276 272 273 269 267 272 270 267 266 267 264 264 264 263 264 263 262 261 262 260 258 258 256 257
293 289 295 296 295 295 293 286 283 281 279 279 278 279 280 280 280 279 282 283 286 284 280 281 277 274 279 276 274 278 275 267 275 270 269 269 269 266 264 265 266 268 267 266 265 266 264 264 264 267 266 266 266 266
290 294 296 295 292 290 287 286 280 280 277 274 273 274 278 279 282 283 283 285 284 284 283 281 283 278 271 271 273 269 273 274 270 268 265 264 266 266 269 268 267 269 269 268 269 268 267 267 269 268 270 270 269 269
292 293 295 294 289 284 281 282 285 279 277 279 280 280 280 280 282 282 283 283 285 286 284 281 279 275 273 272 268 265 264 269 271 267 264 264 269 269 268 269 270 270 270 270 272 271 270 271 271 270 271 271 267 267
295 294 294 294 293 284 281 282 287 281 274 275 280 279 280 279 281 281 281 283 284 283 279 274 274 270 271 270 271 270 270 271 271 269 266 266 267 270 271 272 272 272 272 273 273 271 271 270 270 270 269 269 264 263
292 292 292 289 287 287 285 282 281 283 278 278 278 279 275 280 279 279 280 283 281 278 274 271 271 271 274 273 273 274 273 274 270 270 270 270 271 273 273 273 274 273 271 269 268 266 266 268 268 268 263 259 256 257
290 292 288 286 282 283 282 283 280 279 278 278 278 281 277 277 278 279 281 280 279 275 274 273 273 275 276 275 274 276 274 275 274 272 271 273 272 272 272 271 272 269 268 267 268 264 264 267 266 266 262 257 258 259
291 288 285 284 280 276 277 283 277 279 274 276 278 275 276 275 277 281 274 274 272 271 273 275 277 280 276 275 277 277 277 275 272 272 272 272 272 268 270 270 271 267 266 269 271 268 265 265 263 260 257 256 254 253
291 283 279 277 278 273 279 277 281 280 277 275 273 271 276 276 278 271 271 271 268 270 273 274 277 276 276 278 273 273 274 274 272 269 272 273 271 270 272 270 270 270 270 270 269 265 264 259 258 258 253 253 251 252
278 278 281 277 279 273 275 276 277 274 273 275 276 274 273 274 267 268 268 267 271 275 273 272 274 274 269 267 270 271 274 276 273 272 268 274 272 272 270 270 268 269 269 266 260 259 256 252 252 253 253 253 255 253
272 277 277 273 274 276 276 274 275 274 275 274 274 274 273 270 269 270 270 264 268 274 270 274 270 270 273 274 273 272 272 276 275 271 272 274 273 270 267 266 264 264 263 261 260 256 256 256 256 257 254 254 253 251
273 275 276 279 277 279 274 277 278 274 274 268 271 272 271 271 267 268 266 271 269 266 270 273 274 274 273 272 274 273 272 272 272 271 269 269 269 270 270 267 263 263 261 261 259 261 260 256 253 252 252 249 249 249
276 273 271 272 273 274 275 275 276 271 275 276 274 269 266 267 268 265 267 268 276 277 271 273 275 274 273 272 271 270 268 268 267 268 268 267 265 264 264 264 264 264 259 258 258 258 258 257 256 252 251 252 250 246
271 271 273 268 268 269 270 270 271 272 273 274 272 268 266 268 263 262 268 269 275 269 269 269 269 271 271 271 270 269 270 270 269 267 265 263 260 263 261 263 262 260 260 261 264 261 260 257 256 255 251 251 248 246
269 272 269 265 268 269 269 267 266 265 268 266 268 268 267 263 261 260 266 267 271 267 263 264 268 269 269 268 267 267 266 266 268 271 268 264 263 262 260 259 259 258 259 260 260 259 263 257 258 252 251 250 247 245
274 272 268 267 265 261 262 260 259 260 260 260 257 261 261 259 261 260 262 264 263 269 268 267 266 268 269 268 268 268 265 266 269 267 265 265 265 262 261 259 257 257 257 257 257 256 256 253 251 250 250 246 242 241
272 273 270 265 264 266 265 262 259 258 256 259 260 255 258 259 259 259 259 264 269 266 263 266 268 266 267 269 268 268 268 268 268 267 266 265 263 261 260 259 258 258 258 257 256 255 255 252 249 247 245 242 241 241
272 271 268 267 266 265 266 269 267 264 259 257 257 258 260 262 263 260 262 263 266 268 264 262 267 269 268 268 267 267 266 266 266 268 266 264 263 262 259 258 258 259 258 257 255 254 252 250 246 243 241 241 240 239

GFSWCAN_sfc_thetae_096.txt.gz
Theta_e
296 299 301 300 300 300 300 300 299 299 298 298 298 298 299 300 298 291 289 290 287 282 284 287 287 283 282 281 276 279 277 278 276 273 272 268 267 274 274 270 278 277 275 275 276 272 269 282 282 275 279 282 282 280
297 301 300 300 300 300 300 300 299 300 298 298 298 298 300 300 298 294 288 291 290 285 284 287 288 288 286 285 281 280 278 279 277 273 274 274 273 271 272 272 280 272 275 275 276 274 282 282 281 282 282 281 280 280
297 297 300 300 300 299 299 299 299 299 299 298 298 298 299 299 298 294 288 288 287 284 285 285 285 289 290 287 288 281 282 284 281 280 274 274 272 276 270 274 276 280 283 278 278 280 280 282 282 282 281 280 280 279
297 300 300 300 299 298 299 299 299 299 299 298 298 298 299 299 298 295 289 289 287 284 279 283 290 287 290 289 288 287 286 284 283 281 275 272 275 280 275 280 276 280 281 279 278 280 281 281 282 282 281 280 279 278
299 299 299 299 299 299 299 299 299 299 299 298 298 299 298 298 297 293 290 291 290 284 279 281 285 288 289 289 287 287 285 282 280 277 274 274 279 278 283 278 276 282 277 275 272 280 280 280 283 283 280 279 279 277
298 299 299 299 299 299 298 298 299 299 299 299 298 298 297 296 292 287 282 288 291 286 281 276 283 285 287 288 287 285 284 281 280 278 275 279 282 279 273 273 281 283 284 284 276 282 281 282 282 281 279 278 278 277
298 299 298 298 298 298 299 298 298 298 299 298 298 298 298 296 291 284 282 289 293 285 277 274 279 283 286 288 288 285 286 282 281 279 278 278 279 282 276 274 281 284 284 284 283 282 279 281 279 281 280 280 279 277
298 298 298 298 298 298 298 298 298 298 298 298 298 296 296 296 293 288 291 293 288 281 279 273 275 280 286 281 284 283 284 283 281 278 279 279 280 280 278 279 282 283 283 283 284 283 282 281 280 279 279 278 277 275
298 298 298 298 298 298 298 298 298 298 298 297 295 293 289 286 283 289 295 292 287 283 275 275 273 270 282 281 284 282 281 276 281 275 278 279 272 275 277 280 281 280 279 282 284 283 282 280 278 278 278 276 275 275
298 297 297 297 297 297 297 297 298 298 295 293 287 282 276 286 294 291 284 279 279 280 281 274 278 274 279 273 273 275 276 275 273 276 279 277 272 280 282 281 282 284 284 283 278 277 279 278 277 277 276 276 275 275
297 297 297 297 297 297 297 297 297 294 291 283 280 282 289 293 286 284 275 274 278 275 278 278 278 277 282 273 274 277 275 277 274 275 275 275 273 278 281 281 281 279 279 282 280 279 279 279 277 275 274 274 273 272
298 298 297 297 297 297 297 297 294 286 282 283 287 291 289 285 282 278 276 278 277 276 277 276 277 279 280 282 275 277 279 280 275 279 277 273 272 277 278 278 277 278 279 278 279 278 278 277 276 273 272 270 268 267
297 297 297 297 296 297 297 295 294 294 293 291 285 283 282 280 274 272 269 274 269 275 276 276 274 276 279 280 274 277 274 277 281 278 273 271 274 277 276 276 275 276 276 275 274 274 273 271 271 270 267 264 265 262
297 297 297 297 297 297 296 296 295 290 285 279 280 274 272 272 272 269 270 270 278 276 275 274 274 274 278 274 275 275 271 279 273 272 269 269 275 275 276 276 274 271 271 270 268 267 266 265 261 261 260 257 260 259
297 297 297 296 297 296 296 295 292 285 281 280 281 268 274 276 277 280 282 281 283 282 275 276 276 275 272 270 277 276 274 271 273 268 268 268 273 274 272 269 268 266 264 263 261 263 261 261 262 258 254 255 259 257
296 295 293 296 296 296 294 290 286 283 281 278 279 276 278 279 278 280 281 281 285 284 278 277 275 269 270 275 275 273 273 268 271 269 266 276 271 267 266 267 265 264 264 262 262 262 261 260 262 260 258 257 255 256
292 289 295 296 295 294 293 285 282 280 277 278 277 275 277 276 277 279 281 282 285 283 277 281 276 272 278 276 276 278 274 272 268 272 265 266 269 265 265 265 265 266 265 265 265 266 264 264 264 266 266 265 266 265
290 293 295 295 292 290 286 284 279 279 275 272 274 274 279 280 282 282 284 285 283 283 283 280 282 276 271 270 268 270 273 273 273 274 263 262 264 264 267 266 266 267 267 267 268 267 266 266 269 267 269 269 268 268
292 294 295 293 289 284 281 281 284 278 277 278 279 280 280 280 281 282 282 284 285 287 281 281 279 277 270 270 268 263 267 274 271 267 263 261 266 268 267 267 268 268 269 270 271 270 269 270 269 269 269 269 266 266
295 294 294 294 292 283 280 279 286 281 275 274 280 279 279 279 280 280 281 283 283 282 279 276 274 271 271 269 270 270 268 270 270 267 265 264 265 268 268 270 270 271 271 272 271 269 269 269 269 269 268 267 264 262
292 291 291 287 284 285 283 282 281 282 279 277 279 280 278 280 279 279 279 283 280 279 273 270 271 267 276 273 271 272 272 273 269 270 268 267 268 271 271 272 273 272 270 268 267 266 266 267 266 267 262 258 256 256
290 291 284 285 281 283 282 283 280 279 277 278 277 280 275 276 277 279 280 278 277 273 273 271 270 276 276 273 272 275 273 274 272 271 270 271 271 271 271 271 271 267 267 267 268 264 264 266 266 265 259 255 257 258
291 287 283 282 276 274 278 283 276 278 270 274 277 275 272 274 275 281 276 274 272 268 271 273 275 279 276 275 276 276 276 274 271 270 271 271 271 270 271 270 269 267 266 267 269 266 264 265 263 259 257 255 253 252
289 282 275 274 275 270 278 277 280 279 276 276 274 272 272 274 277 271 272 270 267 268 272 273 277 276 276 275 271 271 273 272 270 267 270 272 270 269 271 270 270 268 269 270 270 268 266 260 260 259 253 252 250 251
274 274 275 273 276 270 270 274 277 275 271 270 270 268 274 273 266 264 267 267 274 276 276 271 273 274 272 269 267 270 272 274 272 270 268 272 270 270 269 269 267 266 267 266 262 261 255 254 253 255 254 252 254 251
268 271 276 275 273 271 274 273 273 270 271 271 271 273 270 266 268 268 269 264 267 275 276 271 269 269 271 272 272 272 271 274 274 270 272 272 272 270 267 267 265 266 264 264 262 260 259 258 258 258 255 253 252 250
272 273 275 279 278 278 274 276 277 272 270 266 269 268 267 264 266 269 266 270 270 265 268 270 274 274 273 270 272 271 270 271 270 270 269 269 268 269 271 269 267 266 262 263 261 262 262 261 259 256 252 248 248 248
274 274 272 273 273 274 275 275 275 270 274 274 272 268 267 269 272 269 268 270 276 276 272 270 272 273 272 269 270 268 266 267 267 268 268 267 266 265 265 263 266 265 261 259 259 261 261 259 257 253 253 252 248 245
274 271 273 271 269 270 271 272 271 271 273 274 271 268 270 271 268 267 268 270 276 275 271 267 267 267 268 269 268 267 269 270 269 267 265 263 263 263 262 263 262 262 262 262 264 260 258 256 255 255 253 251 246 244
267 270 267 266 267 268 267 267 266 265 267 266 267 268 267 265 264 264 266 269 273 274 266 262 264 265 266 266 265 265 265 265 267 271 268 266 266 263 261 262 261 260 261 262 262 262 262 256 256 252 249 247 244 243
271 268 266 265 264 262 263 262 260 262 261 258 255 261 262 258 261 260 263 262 261 265 267 266 264 265 267 266 267 267 266 265 267 267 266 266 264 263 262 261 259 260 260 257 256 254 252 250 251 249 248 245 241 241
271 273 270 267 266 266 267 265 259 258 255 258 259 254 257 259 261 260 258 261 264 265 262 264 264 262 264 267 267 269 268 268 265 265 265 265 263 262 261 260 259 258 256 254 254 253 253 251 248 247 245 242 240 239
272 270 269 268 266 266 267 269 269 266 260 256 256 255 256 260 264 261 261 261 263 264 263 261 264 267 268 268 267 266 266 267 267 268 266 265 263 262 261 260 259 258 255 253 252 252 252 250 246 243 242 240 239 238

GFSWCAN_sfc_thetae_099.txt.gz
Theta_e
297 296 296 299 300 300 300 300 299 299 298 298 298 298 300 300 298 293 291 292 289 284 286 288 288 284 284 284 281 282 281 282 280 277 276 274 276 278 277 274 279 278 276 276 276 273 271 282 281 276 279 282 281 279
297 297 298 300 300 300 299 299 299 299 298 298 298 299 300 299 298 294 289 292 291 287 286 289 290 290 289 288 284 283 281 281 281 278 279 278 278 278 276 275 281 276 278 277 277 276 282 282 281 282 282 280 280 279
297 297 299 300 300 300 299 299 299 299 298 298 299 299 300 299 298 295 290 290 290 287 286 287 286 291 291 289 291 284 285 285 284 283 280 280 278 281 277 277 278 281 283 279 279 280 281 282 282 282 281 279 279 279
297 299 299 299 299 299 299 299 299 299 299 298 299 299 299 299 298 295 290 291 289 286 282 285 291 289 292 291 290 290 287 287 286 285 282 280 279 283 280 281 279 281 282 280 278 280 281 281 282 281 280 280 279 279
294 296 299 299 299 298 299 299 299 299 298 298 299 299 299 298 296 293 292 291 290 287 282 284 287 289 290 290 289 289 287 286 284 283 281 280 283 283 283 281 279 282 279 279 277 281 281 280 282 283 280 279 279 277
295 297 299 299 298 298 298 298 299 299 299 299 299 298 297 295 292 289 284 290 292 288 285 280 285 287 289 290 288 288 286 285 284 282 281 282 284 283 279 277 281 283 284 284 280 283 282 282 282 281 279 278 278 277
299 299 299 298 298 298 298 298 299 299 299 298 298 298 297 296 292 286 284 289 293 288 283 280 281 285 288 290 289 288 287 285 285 283 282 282 283 285 280 277 281 284 283 283 283 282 280 281 279 281 280 279 279 278
298 298 298 298 298 298 298 298 298 299 299 298 298 298 297 296 294 289 292 293 289 284 284 278 279 283 288 284 284 286 285 285 284 282 283 282 284 284 279 280 283 284 285 284 283 284 283 282 281 280 280 279 277 276
298 298 297 298 298 298 298 298 298 298 297 295 294 293 290 287 286 288 295 291 289 286 279 279 277 276 285 283 285 285 284 280 284 281 282 283 279 278 281 282 282 282 282 283 283 282 281 280 279 279 278 277 276 275
298 297 297 297 297 297 297 297 298 296 294 293 288 284 279 288 294 291 286 281 282 283 282 278 281 281 283 279 280 282 281 280 278 280 283 279 279 282 283 284 284 284 284 284 280 279 280 279 278 278 277 277 277 275
298 297 297 297 297 297 297 297 295 293 290 285 283 283 288 293 287 283 277 277 278 278 280 280 281 281 285 280 280 281 280 280 275 278 278 276 277 280 283 283 284 285 285 283 283 283 284 281 279 277 276 276 275 274
298 297 297 297 297 297 297 295 292 286 285 286 287 290 288 284 280 277 276 278 277 276 279 279 280 282 283 285 281 280 280 280 276 281 278 276 276 280 279 279 280 281 281 282 282 280 280 279 278 276 274 273 271 269
297 297 297 297 297 297 294 294 294 294 292 288 285 282 281 279 271 269 269 274 274 278 279 280 279 281 283 283 280 280 275 278 283 279 277 276 277 278 278 278 277 278 278 277 276 276 275 274 273 273 270 268 268 265
297 296 297 297 296 296 296 296 294 290 285 281 280 274 271 273 272 272 274 275 279 280 279 279 279 280 280 279 278 276 277 279 274 274 275 275 277 277 277 277 276 274 274 273 272 271 269 267 265 264 264 264 264 264
296 296 296 296 296 297 295 293 291 285 282 280 279 272 274 277 278 280 281 282 283 282 280 280 279 280 277 275 279 278 275 273 275 275 277 275 276 275 274 273 272 269 269 268 268 266 265 265 264 262 262 264 263 262
296 294 293 296 296 295 293 289 286 284 281 279 279 276 277 278 279 281 282 282 286 284 281 281 277 274 274 276 276 274 275 273 277 276 274 275 274 273 272 271 270 268 268 266 266 266 265 265 266 265 263 264 263 264
293 290 296 296 294 293 292 284 283 280 277 278 275 275 277 275 277 280 283 284 286 284 281 281 272 273 279 277 276 279 276 278 274 274 274 274 273 270 269 269 268 268 267 267 267 268 267 266 266 267 267 267 267 267
290 294 295 295 290 289 285 284 280 279 276 277 277 277 277 281 282 282 284 286 285 284 283 280 282 277 274 273 275 277 277 275 275 274 272 270 270 269 270 269 268 269 269 269 269 268 268 268 270 270 270 270 270 271
293 294 295 293 289 284 281 281 282 277 277 279 280 280 281 280 282 283 283 285 286 286 283 282 278 277 278 277 277 272 275 276 274 272 269 266 269 269 268 269 269 270 270 270 271 270 271 272 273 273 273 272 272 272
295 294 294 294 291 283 280 280 286 280 275 276 280 279 280 280 281 282 281 283 284 283 279 278 279 280 278 278 276 277 275 274 272 271 270 269 270 270 270 271 271 272 272 273 273 271 272 272 273 274 274 273 273 272
291 290 291 287 284 284 282 281 281 282 279 278 280 280 278 281 280 280 280 283 280 278 277 276 276 274 276 278 276 275 274 275 274 275 273 270 270 272 272 273 273 273 273 272 272 271 271 273 273 272 272 270 268 269
288 290 284 285 282 282 281 283 281 280 280 278 278 280 274 273 277 279 282 278 277 277 277 276 276 278 277 276 275 276 275 275 274 273 271 272 271 272 272 273 273 272 272 272 273 272 273 272 272 271 270 267 266 267
289 286 282 281 275 272 277 282 276 279 272 275 278 275 275 274 277 282 277 277 275 273 274 276 277 279 276 276 276 276 276 275 274 273 273 274 274 274 273 274 274 272 272 272 274 272 271 268 267 269 266 266 267 266
288 281 273 273 274 270 276 276 280 279 276 275 274 272 273 273 279 275 275 274 272 273 277 275 278 277 276 276 274 274 274 274 272 271 273 273 272 273 274 274 274 274 275 274 273 271 270 269 265 267 266 265 264 265
273 272 271 267 278 269 270 273 276 276 268 273 270 269 274 275 269 269 270 271 274 278 278 277 277 278 277 274 273 274 274 275 273 272 272 274 273 273 272 272 272 273 273 271 270 269 266 264 265 266 265 265 264 262
265 268 271 271 269 269 270 266 267 267 268 268 269 273 273 271 270 270 272 271 273 277 277 277 276 275 275 275 274 274 274 275 275 273 273 274 274 273 271 271 271 271 271 273 269 267 265 264 265 264 263 261 257 262
266 266 275 279 278 278 272 273 276 271 269 269 271 270 270 265 267 271 272 271 273 274 273 273 276 277 276 274 273 273 273 273 273 272 272 272 272 274 275 273 272 273 269 270 269 268 266 265 265 263 260 259 258 259
273 273 270 274 275 277 273 272 271 271 273 275 273 270 268 269 273 275 274 274 277 276 273 272 274 275 274 272 270 269 268 268 268 269 270 269 267 268 268 268 269 268 268 268 268 267 267 265 263 261 261 260 256 254
275 274 274 270 273 271 272 274 273 274 274 274 273 273 274 274 272 272 272 273 277 276 272 270 270 269 269 270 269 270 270 272 272 270 269 268 268 267 266 266 266 266 266 266 266 264 263 262 261 260 258 257 254 253
273 270 269 268 269 271 272 270 271 268 269 269 269 270 271 271 269 267 269 272 274 274 274 270 270 270 269 268 267 268 269 269 272 274 271 269 270 266 266 266 265 266 267 266 264 262 262 259 258 256 255 254 255 254
270 270 266 266 266 264 265 265 264 264 262 261 258 265 267 263 265 264 265 267 269 269 270 269 268 268 267 266 268 267 268 270 271 272 270 268 266 266 265 264 264 265 264 263 261 259 257 257 257 255 254 252 250 251
270 272 271 265 265 265 265 263 260 260 261 265 264 258 262 264 266 266 263 264 268 268 266 267 267 268 267 270 270 272 270 269 268 267 267 267 266 265 264 263 263 263 262 260 259 258 257 256 255 254 253 251 250 249
272 271 270 269 268 268 269 270 270 269 263 262 261 260 259 263 267 265 263 264 266 267 266 266 267 267 269 270 270 269 269 268 268 268 267 266 264 264 263 263 262 261 260 258 257 256 255 254 252 251 250 249 248 248

GFSWCAN_sfc_thetae_102.txt.gz
Theta_e
298 297 297 296 299 300 300 300 300 300 299 299 299 299 301 301 300 298 295 298 295 291 290 291 291 289 289 289 285 287 286 286 287 282 283 281 282 283 281 281 281 280 279 279 280 277 273 285 285 280 280 283 282 281
297 297 296 295 300 300 300 299 299 299 299 299 299 299 300 300 300 298 294 297 298 294 290 294 293 293 292 292 290 289 286 285 288 285 285 285 283 284 282 278 284 279 281 281 280 279 283 284 282 283 284 283 282 280
296 297 296 298 299 299 299 299 299 299 299 299 300 300 300 300 299 298 297 297 297 293 291 291 290 294 297 295 296 289 290 289 288 291 290 288 282 288 282 282 282 283 287 283 282 282 283 283 283 283 283 281 281 281
295 297 297 299 299 299 299 299 299 299 299 300 300 299 299 299 298 298 296 297 296 293 286 287 295 292 296 297 296 297 293 293 293 293 290 289 286 289 285 285 286 286 287 283 281 282 283 283 283 283 281 282 280 280
295 297 299 299 299 299 299 299 299 299 299 299 299 299 298 298 298 298 297 296 296 293 286 286 292 294 295 296 294 295 294 292 291 289 288 286 289 288 288 288 284 287 284 282 281 285 284 282 283 284 281 280 280 280
294 298 299 299 299 299 299 299 299 298 299 299 299 297 296 295 293 297 289 297 297 297 290 284 291 291 294 295 294 293 293 293 293 290 288 288 289 290 285 282 283 285 286 287 283 286 284 284 284 283 281 280 281 280
294 299 299 298 298 298 298 298 299 299 299 299 298 298 297 297 297 292 290 294 294 297 292 285 285 291 292 294 294 294 294 293 292 290 288 288 288 291 287 283 283 285 286 286 287 285 281 283 280 282 282 282 281 281
298 298 298 298 298 298 298 298 299 299 299 298 298 297 296 297 296 293 295 294 294 294 294 285 283 287 292 290 289 294 292 293 291 290 290 288 289 290 283 284 285 285 286 286 286 287 286 284 283 282 282 281 280 279
298 298 298 298 298 298 298 298 298 299 299 297 296 294 296 293 291 292 295 293 297 294 287 287 282 281 292 291 292 292 293 286 291 288 288 288 285 282 284 285 284 285 285 284 285 286 285 283 282 282 281 281 279 279
298 297 297 297 297 297 297 298 298 295 294 294 293 289 286 292 294 294 293 291 290 289 290 285 290 283 290 289 288 288 289 286 282 286 289 285 285 286 286 288 288 288 287 286 282 281 282 282 282 281 281 281 280 279
298 298 297 297 297 297 296 297 295 293 293 292 288 286 293 294 292 288 284 284 285 282 287 288 289 285 292 286 286 289 285 286 280 283 283 281 281 282 286 287 289 289 288 287 287 287 286 285 282 281 280 279 279 278
298 298 298 297 297 297 296 294 293 292 291 292 292 294 294 289 285 281 280 282 282 280 286 286 287 290 290 293 288 287 283 284 276 286 281 278 281 283 284 285 286 287 286 286 287 286 285 284 282 280 279 278 276 274
298 297 298 297 297 296 294 294 295 295 295 294 290 285 285 283 277 275 273 278 280 285 286 287 285 290 290 292 286 284 278 280 286 280 280 282 282 282 282 283 283 284 284 284 283 283 282 280 279 278 275 273 273 271
297 297 297 297 296 296 296 295 293 293 293 285 281 276 278 276 279 280 282 282 284 285 287 288 284 288 287 285 284 278 282 282 278 276 278 282 281 281 281 282 281 280 279 279 279 277 275 272 272 272 272 271 270 269
297 297 297 296 296 296 294 293 291 294 290 283 283 276 278 282 283 284 285 286 284 287 289 288 287 289 284 281 282 280 277 276 280 281 284 284 281 281 280 280 278 276 275 275 274 272 270 270 270 269 270 272 270 268
296 296 295 296 295 294 292 292 293 293 288 285 283 281 283 284 283 285 286 285 289 289 290 289 284 282 280 282 278 277 277 278 283 284 283 281 279 280 279 278 276 276 275 273 273 272 271 270 270 270 270 270 269 270
295 292 295 295 294 292 292 293 291 284 283 282 282 283 284 284 283 284 287 287 291 288 284 285 278 277 283 279 277 282 282 284 283 281 281 282 280 278 276 275 273 273 273 273 273 273 272 272 271 271 271 271 272 272
293 296 295 294 293 292 292 290 287 284 279 283 282 282 285 285 284 284 285 287 289 287 286 282 285 279 279 276 282 285 283 281 280 281 280 280 279 276 277 276 274 274 274 273 274 273 272 272 273 275 274 273 274 273
295 295 294 293 292 290 286 286 288 279 281 283 284 285 284 285 286 286 287 287 288 290 288 283 280 280 282 287 285 283 282 283 281 279 277 277 277 275 275 275 274 275 274 274 274 274 275 276 277 277 277 276 277 277
295 294 293 293 293 288 283 283 288 283 280 282 284 282 282 283 285 286 287 287 288 287 283 281 282 286 287 288 288 287 285 283 281 279 277 277 277 275 276 276 277 277 276 276 276 276 276 277 278 278 278 278 278 276
292 292 292 293 291 290 286 284 282 283 283 281 283 283 282 284 283 284 285 287 285 283 282 286 286 285 283 283 285 285 283 283 283 284 282 277 277 279 277 278 278 278 277 276 276 276 277 278 279 279 278 278 277 277
290 290 291 291 287 286 285 286 284 285 282 281 282 284 282 281 282 283 286 282 282 285 287 287 287 285 282 282 283 283 282 281 280 279 279 279 277 277 278 278 278 278 278 278 278 278 279 279 279 279 278 275 275 275
291 291 288 285 281 282 280 287 281 282 278 278 280 278 279 280 282 285 280 282 285 283 283 284 284 283 284 281 281 280 281 281 281 281 280 281 281 280 280 279 280 279 278 278 279 279 279 277 277 277 275 275 275 273
290 285 281 279 281 278 282 281 283 280 280 278 276 274 277 279 281 279 277 282 283 281 281 281 283 281 281 280 282 281 280 282 281 280 281 280 279 279 280 279 280 280 280 279 279 279 277 278 275 276 275 274 274 273
280 278 280 275 280 278 277 278 278 278 276 276 274 277 278 281 278 277 277 281 282 282 282 281 281 282 283 283 282 281 278 281 280 279 279 281 280 279 279 279 279 280 280 279 278 278 277 276 276 275 274 274 272 270
275 277 277 278 278 277 277 275 276 276 277 276 277 279 281 279 275 275 279 282 282 282 282 282 281 280 280 282 281 280 279 281 281 279 278 279 280 279 278 276 276 276 280 282 279 277 274 274 274 272 271 269 267 269
274 276 280 283 282 281 280 280 281 279 276 275 278 277 277 273 274 279 282 281 282 281 281 281 283 283 283 280 280 280 280 280 280 280 280 280 281 282 281 279 278 280 279 280 279 278 275 273 272 271 269 269 268 268
279 279 276 279 279 282 278 278 278 277 279 280 280 275 275 275 278 282 281 280 281 280 279 281 282 283 282 280 279 277 275 275 275 276 276 276 277 278 277 278 278 277 279 279 278 277 275 274 272 270 268 266 264 266
277 280 280 275 278 279 280 279 280 281 281 281 280 279 280 281 281 281 279 279 281 280 279 279 277 278 277 277 277 277 277 278 276 274 274 274 275 274 275 275 275 275 274 273 272 273 273 271 270 268 266 265 263 262
277 280 278 276 275 277 281 280 280 277 277 278 278 279 279 280 279 278 279 279 279 279 281 281 278 279 277 277 275 274 277 279 280 279 276 276 277 274 273 273 273 273 274 272 270 267 266 264 263 262 262 262 262 261
278 278 277 277 277 277 275 274 274 275 275 276 272 277 280 276 278 276 276 279 280 278 278 277 276 277 277 276 277 275 274 277 277 278 279 277 274 274 273 273 273 272 271 269 268 267 266 266 265 263 262 260 258 259
277 277 277 274 275 273 273 275 276 277 275 276 277 273 276 276 278 277 272 273 275 276 277 278 278 277 278 279 278 279 277 278 276 274 274 274 273 272 271 271 270 270 269 267 267 266 265 264 264 262 260 258 257 256
275 275 274 274 273 273 274 275 274 274 274 274 274 271 274 275 276 274 271 271 273 276 277 277 278 276 276 276 277 276 276 275 273 273 272 271 270 270 270 270 269 268 267 266 266 264 263 262 261 259 258 256 255 255

GFSWCAN_sfc_thetae_108.txt.gz
Theta_e
295 297 298 298 298 298 298 297 299 302 302 301 302 301 301 301 301 298 297 301 296 289 293 294 295 292 294 292 287 290 288 289 288 284 283 284 283 284 283 284 282 281 279 279 282 279 276 287 287 282 282 284 282 281
296 297 297 297 297 298 297 300 301 300 300 300 300 300 300 299 299 300 294 301 302 293 292 298 297 297 296 296 294 293 290 290 291 286 287 286 284 287 285 279 288 282 284 283 280 279 283 285 283 285 287 284 282 281
296 296 296 296 297 298 298 300 300 300 300 300 299 300 300 299 300 300 295 299 298 294 292 293 291 296 299 299 302 290 292 294 292 296 294 290 285 288 282 284 285 287 290 283 283 282 282 283 284 285 285 283 283 283
295 296 296 295 297 299 300 300 299 299 299 299 299 300 300 300 300 300 295 301 299 294 287 288 297 294 299 299 299 300 297 297 296 296 293 291 287 292 287 288 287 288 289 284 281 283 283 283 284 283 283 283 282 283
295 295 295 295 299 299 299 299 299 299 299 299 300 300 299 300 301 301 299 301 301 294 287 287 294 296 298 298 296 297 296 295 293 290 291 288 291 290 291 290 286 290 286 284 284 286 286 283 284 284 282 281 282 282
294 294 294 298 299 299 299 299 299 299 299 299 300 300 300 301 301 299 291 300 302 300 292 285 293 293 296 297 296 295 296 296 294 291 290 291 294 291 286 284 287 290 291 291 287 289 286 285 285 285 283 283 284 283
294 294 295 299 299 299 299 298 298 299 299 299 299 300 300 300 299 293 292 295 296 301 295 286 285 292 295 295 295 294 296 294 294 291 289 289 290 291 289 284 287 288 289 289 288 286 282 284 282 285 284 284 284 284
293 295 298 298 299 299 298 298 298 299 299 299 299 299 298 298 297 294 296 298 298 300 296 287 285 287 295 290 289 295 291 293 293 291 291 289 290 290 284 287 287 287 287 287 287 289 286 287 286 285 284 284 282 281
293 298 298 298 298 298 298 298 298 298 298 299 299 299 298 297 293 293 295 296 303 297 289 287 283 282 294 291 293 292 293 288 292 289 289 289 288 283 287 286 286 285 285 285 287 287 286 285 284 284 283 283 281 281
297 298 298 298 298 298 299 298 298 298 297 296 294 294 290 293 294 295 297 294 295 292 293 288 291 285 290 292 290 289 290 287 283 287 291 286 285 289 291 289 288 287 288 287 285 283 284 283 283 283 283 284 283 281
298 297 297 297 298 298 299 298 298 296 292 294 292 289 294 294 296 292 288 287 288 285 290 290 289 287 293 288 287 290 286 287 281 285 284 283 282 286 290 289 289 289 288 288 289 288 287 286 284 284 283 283 282 282
298 297 297 298 298 297 297 296 296 293 295 294 295 296 296 292 289 284 283 285 285 282 288 289 289 291 291 294 288 288 284 285 279 289 283 279 284 287 288 288 289 288 287 288 289 288 287 286 285 284 282 281 278 275
297 297 298 297 297 296 295 296 297 297 297 297 292 288 288 286 280 280 276 280 283 287 290 291 288 291 291 292 288 286 281 281 288 282 280 282 285 286 287 287 287 288 287 288 287 287 286 285 284 282 278 275 276 274
297 297 297 296 296 297 297 295 294 295 295 289 285 279 282 280 282 283 285 285 288 291 291 292 288 289 291 286 286 281 284 284 279 278 279 283 284 285 285 286 286 285 285 286 284 282 280 278 277 276 276 276 274 272
297 296 296 296 296 295 294 294 295 298 293 286 286 279 281 284 286 287 288 288 289 293 292 290 289 289 285 282 284 282 279 277 280 280 283 285 285 284 284 284 284 283 283 282 281 279 277 276 276 275 275 275 273 272
296 296 294 296 295 294 293 295 296 295 291 286 285 282 286 285 284 285 286 286 292 293 294 291 286 284 281 283 280 279 279 279 281 282 283 284 283 283 283 283 282 282 282 280 278 277 276 275 274 275 275 272 272 272
296 292 295 294 294 294 295 294 293 288 286 285 283 285 286 286 284 285 288 289 294 291 286 286 281 280 286 281 280 284 281 282 282 282 284 284 283 282 281 281 280 280 279 278 277 276 276 277 275 273 272 272 274 273
293 294 295 294 294 294 295 293 289 286 282 286 283 284 287 287 285 286 287 290 292 289 288 284 288 280 280 279 282 284 283 283 283 282 283 283 282 281 280 279 279 279 278 278 277 276 276 274 275 275 274 275 275 275
294 294 294 294 294 292 288 289 290 281 283 286 287 288 287 285 287 288 288 291 293 292 290 286 282 282 284 286 284 284 283 283 281 281 282 282 282 281 280 280 280 279 278 278 277 277 277 278 278 277 277 277 276 277
295 295 294 294 295 290 285 286 291 285 282 284 286 284 285 286 288 288 289 290 289 288 285 283 284 286 286 286 287 286 286 286 282 279 279 280 281 280 279 279 279 279 279 279 279 278 278 279 279 279 278 279 279 278
294 294 294 296 293 291 288 286 284 284 284 282 284 284 283 286 285 285 286 288 286 285 285 288 287 285 286 287 289 289 288 288 286 286 282 278 280 281 280 282 280 280 279 279 278 278 279 279 279 280 281 281 281 279
293 292 294 293 289 288 286 289 285 286 284 283 283 284 282 282 282 284 286 283 283 287 288 287 287 286 285 286 287 289 288 287 287 287 285 283 281 280 280 281 280 280 280 280 279 279 280 281 281 280 281 279 279 277
292 293 291 289 284 284 282 290 283 284 280 280 282 280 280 281 283 286 281 283 286 288 288 288 287 288 285 286 286 286 287 287 286 286 284 284 284 283 282 282 282 281 280 281 282 281 282 281 281 280 279 278 277 275
293 287 283 283 283 279 284 282 284 281 282 281 280 279 279 281 283 281 280 285 285 287 286 284 286 285 286 285 285 284 285 288 285 284 285 283 281 281 282 282 283 283 283 282 282 282 281 281 280 279 278 277 276 274
283 281 283 278 283 281 279 280 280 281 278 279 278 280 280 282 279 279 279 284 285 284 284 283 284 285 285 286 284 283 284 287 284 282 285 284 283 282 281 282 282 283 284 283 281 281 280 280 279 278 278 277 276 275
278 281 280 280 280 280 280 277 278 278 280 278 279 281 282 280 277 278 282 284 285 284 284 283 283 283 283 284 284 283 284 286 286 283 283 284 283 282 281 280 279 281 284 284 282 280 279 279 278 277 277 276 274 274
277 278 283 286 284 283 281 283 283 281 278 278 280 279 278 276 277 283 285 286 284 284 285 285 285 284 284 283 284 284 285 284 285 283 284 284 284 284 284 281 280 281 284 283 283 281 278 278 277 277 275 274 274 273
282 282 278 281 281 283 280 280 279 279 280 284 282 278 277 279 281 285 285 284 284 284 283 284 285 285 284 283 283 281 281 282 282 282 282 282 282 283 284 285 284 283 284 284 283 281 280 279 277 275 274 273 272 272
281 284 283 278 280 281 281 281 281 284 286 285 281 281 282 286 286 286 285 285 285 284 282 281 282 283 283 282 282 282 281 281 279 276 276 275 276 278 281 283 282 283 283 282 281 281 279 278 276 274 272 271 270 269
281 284 280 280 278 279 282 283 283 283 284 284 285 285 285 285 284 286 285 283 283 282 284 284 282 282 280 279 279 279 282 283 283 281 279 277 278 279 280 280 279 279 279 278 275 274 274 272 271 270 269 267 266 265
283 282 280 281 280 282 281 281 282 282 282 282 282 282 284 283 284 283 283 284 284 284 283 281 281 282 281 281 279 278 278 282 281 283 283 281 279 279 279 278 278 278 275 273 272 271 269 269 268 267 266 265 264 263
280 279 280 278 280 280 281 280 281 280 281 280 282 281 281 280 280 279 277 280 280 280 281 282 281 280 283 284 285 284 283 282 281 281 281 280 280 279 279 278 276 275 273 273 272 270 270 269 268 267 265 263 263 262
280 281 280 280 279 278 279 279 279 279 279 279 280 280 280 279 279 277 277 278 277 277 279 282 282 284 283 282 282 282 282 282 281 281 280 280 279 278 277 276 276 274 273 272 271 270 269 268 266 265 264 262 260 259

GFSWCAN_sfc_thetae_111.txt.gz
Theta_e
294 295 296 297 298 298 298 299 298 299 300 299 300 301 299 302 302 298 295 298 295 287 288 294 294 290 292 290 284 286 283 284 283 280 281 280 281 282 281 280 280 278 277 276 277 274 272 284 285 279 278 282 281 281
294 295 297 297 297 297 298 298 298 299 298 299 300 300 300 301 302 299 293 299 300 289 290 296 295 296 295 296 289 287 286 286 286 283 283 284 282 281 282 277 287 275 278 277 278 276 282 284 282 285 285 281 281 281
294 295 296 297 297 296 297 297 298 300 301 300 300 301 301 301 301 299 295 296 296 291 291 291 290 295 298 296 299 287 288 291 289 291 286 285 282 283 277 277 281 285 288 278 279 280 281 282 284 285 284 282 282 282
294 295 296 296 295 294 297 300 300 300 300 300 301 300 300 300 300 299 294 297 296 293 284 286 296 293 298 297 297 296 293 293 292 291 286 285 282 288 281 284 281 284 286 281 280 281 282 283 283 283 282 282 281 280
295 295 294 294 295 299 299 299 299 299 299 300 300 300 299 300 299 298 297 297 299 292 283 285 292 295 296 296 295 295 293 290 288 285 283 282 286 285 286 284 281 287 281 277 278 282 282 280 283 283 281 281 282 280
295 295 293 294 299 299 299 299 299 299 299 299 300 300 300 300 300 294 286 297 299 297 286 282 290 292 294 295 294 292 292 290 288 285 284 288 291 285 279 279 286 287 288 288 282 284 282 284 284 284 282 282 282 281
294 294 295 298 299 299 298 298 299 299 299 299 299 299 299 300 296 290 289 293 295 295 286 281 282 290 294 293 291 290 292 289 289 284 283 284 286 287 279 277 284 286 285 284 284 283 281 283 281 284 284 284 284 282
293 294 298 298 298 298 298 298 299 299 299 299 300 300 300 300 298 291 293 296 295 293 291 281 281 283 292 285 284 290 287 288 287 285 285 284 284 284 278 281 284 285 285 285 286 285 284 285 284 284 283 282 281 280
293 296 298 298 298 298 298 298 299 299 299 299 299 299 296 294 290 290 295 296 298 293 283 283 279 276 290 286 287 286 288 281 287 282 283 284 279 278 282 282 282 283 284 285 286 285 285 283 282 281 282 281 280 279
294 298 298 297 298 298 298 298 298 299 299 299 295 291 285 291 295 295 294 288 288 288 289 282 286 280 287 283 283 283 283 281 278 281 285 278 277 286 287 285 285 286 287 287 283 281 282 281 281 281 281 281 280 279
298 298 298 298 298 298 298 298 298 296 295 291 288 286 291 295 292 290 282 282 283 281 285 286 284 282 289 280 280 285 280 280 276 279 277 276 276 280 285 285 286 288 287 287 286 283 283 282 281 281 281 281 280 279
298 298 298 298 298 298 298 297 295 292 291 292 292 293 293 290 285 281 279 281 281 280 283 283 284 286 286 290 281 282 279 279 276 281 276 271 280 283 283 285 286 286 286 286 287 285 283 283 282 281 279 277 275 274
297 297 298 297 297 296 295 295 296 297 297 293 290 287 285 282 273 274 272 277 277 282 284 284 281 284 286 286 279 279 272 272 282 272 273 277 283 285 285 285 284 285 286 285 284 283 282 281 281 278 275 274 273 272
297 297 296 296 297 297 296 295 295 295 290 285 281 271 276 273 277 280 282 280 282 283 285 284 281 280 280 278 277 272 276 278 269 269 275 279 283 284 285 285 284 284 284 282 281 279 277 276 275 275 275 274 272 270
296 296 297 296 296 295 294 295 296 293 289 282 282 273 276 281 281 284 281 282 283 286 284 281 281 280 277 272 277 276 271 270 272 276 279 282 284 283 283 284 283 281 279 277 277 276 275 274 273 272 272 271 271 270
296 295 294 295 295 294 294 295 293 292 288 283 282 279 280 278 280 283 284 284 287 284 283 282 279 274 274 277 275 271 275 273 277 279 282 283 282 282 282 282 282 280 279 276 275 276 275 273 272 272 271 270 269 268
294 289 295 294 294 294 294 292 290 285 283 282 280 284 285 282 282 283 285 282 287 282 280 279 273 276 278 276 277 277 274 279 280 280 282 282 281 281 280 279 279 277 276 276 275 275 274 274 272 272 270 271 272 270
289 292 294 295 294 294 293 292 285 283 281 283 280 282 282 284 283 282 285 284 283 281 281 279 280 276 270 274 276 279 280 281 281 281 282 281 280 279 279 278 278 277 276 275 275 275 273 273 273 272 272 273 272 272
291 292 294 295 293 289 285 287 287 280 281 281 283 281 280 283 284 285 284 283 287 287 283 280 277 276 278 282 281 281 280 280 279 280 280 280 280 277 277 278 278 277 276 275 276 274 274 275 274 273 274 274 272 272
295 295 295 295 295 288 284 283 289 282 279 279 281 281 282 281 281 280 281 282 284 282 280 278 279 283 283 283 283 283 282 281 280 277 278 279 279 278 277 278 278 278 277 277 277 275 275 275 275 275 274 274 272 271
294 293 295 294 290 289 286 284 283 282 282 279 282 282 281 283 282 281 282 283 280 280 278 278 283 283 283 284 285 285 283 282 279 278 278 277 279 279 277 279 278 278 277 276 274 274 274 275 275 276 273 275 274 273
291 293 290 291 285 285 282 285 283 284 282 282 281 283 281 279 279 282 283 281 280 281 282 283 283 283 280 282 283 285 284 285 284 282 279 279 278 277 278 277 277 275 274 273 275 273 275 277 277 278 276 274 273 273
293 292 288 287 279 279 280 287 280 282 278 279 281 279 278 279 281 283 279 281 282 284 284 284 285 285 284 283 283 283 283 283 280 281 279 278 280 279 279 278 278 278 276 275 277 276 276 277 277 276 274 272 271 268
292 285 279 279 279 273 280 278 282 280 280 280 277 277 278 279 281 279 276 281 281 283 281 281 280 283 283 282 279 279 280 284 282 282 282 281 280 279 280 279 279 279 278 278 278 279 278 277 275 275 273 271 268 267
276 274 276 272 279 275 273 274 275 277 271 278 274 274 277 280 277 276 277 279 281 280 281 281 281 282 281 280 281 280 281 283 282 280 279 282 280 280 279 279 279 279 280 278 278 277 277 276 274 273 272 270 269 268
269 274 273 274 273 274 276 270 270 272 273 271 274 279 280 278 275 274 280 278 282 281 282 281 281 280 281 282 280 280 281 283 282 279 280 281 281 279 277 277 276 275 278 280 278 277 276 275 274 272 272 273 271 269
268 271 280 283 281 280 275 277 279 275 270 269 273 275 276 266 269 277 281 282 280 281 282 282 282 281 281 280 281 281 280 280 280 279 278 279 279 279 279 278 277 275 279 280 279 278 276 275 274 273 272 270 270 269
277 278 270 274 276 279 272 273 271 270 273 279 276 268 270 271 277 280 280 282 282 282 281 281 281 282 281 280 279 276 276 276 277 277 278 278 277 276 277 279 279 279 280 280 279 278 277 276 274 272 271 269 267 266
276 279 278 277 276 277 274 273 274 278 280 277 272 273 276 280 283 282 281 282 282 281 280 279 280 281 280 279 279 279 279 277 272 270 269 270 270 273 279 279 280 280 281 280 279 278 277 275 273 271 269 266 265 265
275 279 274 271 271 270 275 280 281 281 278 281 279 280 279 281 282 283 282 281 280 280 282 282 280 280 278 278 278 278 279 280 278 274 273 270 273 272 278 278 278 277 277 277 276 275 274 271 270 267 266 264 263 262
280 280 276 274 272 279 280 280 281 281 281 281 281 280 281 281 281 280 278 279 281 282 281 280 280 281 280 279 278 277 277 280 278 276 277 277 276 275 276 276 274 273 273 272 271 269 268 267 266 264 262 261 259 258
279 278 273 269 273 278 280 279 279 279 280 278 277 280 280 278 278 276 275 277 278 279 280 280 279 279 281 281 282 279 276 278 279 278 277 277 276 276 276 273 272 272 271 269 269 268 266 265 264 263 261 259 258 256
279 279 276 275 275 275 278 277 277 276 278 277 278 279 278 277 274 272 274 276 275 276 276 279 281 282 282 281 281 281 279 280 280 280 279 277 276 275 274 273 272 272 270 268 268 267 266 264 263 261 259 257 255 254

GFSWCAN_sfc_thetae_114.txt.gz
Theta_e
293 294 295 295 297 297 298 298 299 299 299 299 299 300 301 301 302 298 294 298 293 287 289 290 292 290 291 287 282 287 285 286 281 278 279 277 277 280 278 279 280 278 277 277 278 273 271 283 285 279 276 280 279 276
293 294 295 296 297 297 297 298 298 298 299 299 300 301 301 301 300 299 292 298 299 287 289 294 294 296 296 295 288 287 286 285 285 280 280 282 280 283 280 277 286 275 277 276 277 274 280 283 280 282 282 279 280 277
293 294 295 296 296 296 297 297 298 299 299 300 300 300 300 299 302 298 294 296 295 290 289 290 289 294 299 298 297 286 286 290 288 290 284 284 282 284 279 277 281 284 285 276 277 280 280 282 284 284 283 280 282 281
293 294 296 295 295 296 295 296 296 299 299 299 300 300 299 300 301 298 295 297 296 292 283 286 296 293 298 297 295 293 292 292 291 290 284 284 283 286 281 282 281 284 284 280 279 280 281 282 282 283 282 282 281 280
294 295 295 294 294 295 296 299 298 299 299 299 300 299 301 301 300 298 296 297 298 290 281 284 291 294 295 295 294 293 291 288 286 284 282 283 286 285 284 283 280 285 280 277 275 282 280 280 282 283 281 280 278 278
294 294 293 292 294 298 299 299 300 300 300 300 301 301 301 301 299 294 286 295 298 294 283 280 288 290 293 293 292 291 290 288 286 284 284 286 290 285 280 277 284 285 286 285 279 284 282 282 283 283 282 280 280 280
293 292 293 298 298 298 298 298 299 299 299 300 300 300 300 299 296 288 288 292 297 294 282 279 281 288 292 292 290 289 290 288 286 283 282 284 285 287 279 276 283 283 284 283 283 282 280 282 280 283 282 282 283 281
292 296 298 298 298 298 298 299 299 299 299 299 299 299 300 299 297 291 292 296 295 289 287 280 280 283 290 285 284 288 286 286 285 283 284 282 283 284 278 281 283 283 283 283 284 284 283 284 283 283 283 281 279 279
293 297 298 298 298 298 298 298 299 299 299 299 299 298 296 293 289 291 297 296 293 290 281 281 277 274 288 284 285 285 286 280 285 281 282 283 278 277 281 282 282 282 281 284 284 283 283 282 282 282 281 280 279 279
296 297 297 297 298 298 298 298 299 299 299 299 295 290 285 290 296 295 292 286 286 286 287 281 283 279 285 281 281 281 281 279 278 280 283 279 277 284 285 284 284 284 285 285 280 280 281 281 280 280 280 280 280 278
298 297 297 297 298 298 298 298 298 299 297 292 287 283 289 296 292 287 280 280 280 280 284 284 283 281 287 279 279 282 279 279 277 279 278 276 276 279 283 283 284 284 287 286 284 282 282 281 280 279 279 280 279 278
298 298 297 298 298 297 297 296 296 293 291 291 291 292 291 289 283 280 277 280 280 279 282 282 282 284 285 288 280 281 279 278 277 280 276 270 279 280 282 282 282 284 286 285 284 282 281 281 281 281 281 279 277 274
298 298 298 297 297 297 296 296 297 297 296 293 290 286 282 279 272 272 270 276 275 281 282 282 280 283 285 283 279 279 271 271 279 268 271 278 283 284 284 284 284 283 285 284 281 281 281 280 281 280 276 275 274 272
297 297 297 297 297 297 296 296 296 294 290 283 280 271 272 269 276 280 281 277 280 281 283 282 280 280 279 277 275 270 274 276 266 267 272 279 283 284 284 284 284 280 281 281 279 278 279 279 276 276 275 274 273 271
296 296 296 295 295 295 296 296 296 292 286 281 281 273 274 280 281 283 282 283 282 284 283 281 280 280 275 271 274 274 269 266 269 268 277 282 284 284 283 284 283 278 278 277 277 276 276 275 275 273 274 274 272 270
295 294 293 295 295 295 295 293 293 290 287 282 281 277 277 279 280 283 284 281 286 282 282 282 277 272 272 274 273 269 272 268 270 278 281 284 283 284 283 283 280 278 277 275 276 276 275 274 273 272 272 272 271 271
294 289 294 294 294 295 295 291 288 284 281 281 279 285 277 280 281 283 282 281 284 281 275 279 273 274 277 274 275 277 274 278 279 281 282 282 281 280 280 278 277 275 275 275 275 275 274 273 272 272 270 271 271 270
288 291 294 294 294 293 291 289 283 282 280 280 279 280 281 281 280 281 280 281 283 280 280 279 278 275 266 273 275 277 279 280 281 281 281 281 280 279 278 276 276 276 275 275 275 274 273 273 273 273 273 273 272 271
289 290 295 295 293 289 284 285 285 279 280 280 280 279 276 276 278 282 281 282 284 285 281 279 275 274 279 281 280 279 279 279 279 279 279 279 279 278 276 276 276 275 275 275 275 274 274 275 274 273 273 272 270 271
295 295 295 295 294 286 283 282 286 281 277 279 279 277 278 277 278 279 281 281 282 281 279 277 279 282 281 282 282 282 281 281 280 277 277 278 278 276 275 276 275 276 276 277 276 275 275 274 273 273 273 272 270 270
291 291 294 292 288 288 284 282 281 281 280 277 279 281 279 280 277 275 276 281 278 278 281 280 281 283 281 282 284 283 282 282 278 276 275 276 278 278 277 277 277 277 275 275 274 274 273 273 273 274 271 267 266 269
288 293 288 289 283 283 281 283 281 281 280 280 280 282 279 278 278 279 281 276 275 279 279 282 282 282 281 283 284 285 283 283 282 280 277 277 277 276 276 276 276 273 273 272 274 273 273 275 275 275 273 270 272 274
292 290 285 284 277 275 278 283 279 281 277 277 280 278 278 278 280 282 278 280 280 282 283 283 284 285 283 283 283 283 284 283 280 279 276 274 274 272 274 274 275 273 273 273 275 274 275 276 276 274 273 273 273 272
290 283 277 275 276 269 277 276 280 280 280 278 276 274 277 278 281 278 274 278 280 279 280 281 282 282 282 282 279 278 279 283 281 280 280 279 277 278 279 278 278 277 276 276 276 275 276 275 274 273 272 271 271 270
272 272 272 268 273 270 269 271 274 275 269 275 272 271 275 280 275 273 274 278 278 278 281 281 281 281 280 279 280 280 282 283 281 280 280 282 280 279 278 279 278 278 278 276 275 275 275 274 273 272 271 270 269 268
266 269 270 269 269 271 272 267 266 268 269 267 271 278 279 275 269 270 278 277 280 280 280 280 280 279 280 281 280 279 280 283 282 280 278 281 281 279 276 274 275 275 277 278 276 275 274 274 273 271 270 270 269 268
265 267 277 280 279 278 271 272 276 271 266 266 268 271 265 264 264 275 280 280 277 280 281 281 282 281 280 279 280 279 280 279 278 277 277 277 277 277 277 274 271 274 278 278 278 276 275 274 273 273 272 271 270 268
273 273 268 270 271 273 267 266 266 266 268 276 272 265 266 269 273 279 279 281 281 281 280 280 281 281 280 278 278 277 274 272 275 275 276 276 275 272 272 271 273 278 279 279 279 278 276 276 274 273 271 270 269 267
271 272 273 266 269 272 268 269 270 276 279 273 267 267 273 280 281 280 279 280 281 281 279 279 279 280 279 278 278 278 277 274 271 268 264 264 268 273 273 274 275 278 278 278 279 278 277 275 273 271 269 267 265 264
270 272 268 264 264 266 276 278 278 276 278 280 274 276 278 279 280 281 281 280 279 279 280 280 279 279 276 271 272 274 278 278 271 270 269 269 270 271 276 280 280 280 278 277 275 274 273 270 269 267 265 264 263 261
277 270 267 267 265 273 278 279 280 280 280 280 280 279 279 279 278 277 276 276 280 281 280 279 278 279 278 277 277 276 274 271 274 276 274 274 274 274 274 273 273 275 274 273 271 269 268 268 266 264 263 261 260 259
278 276 267 266 273 276 278 278 278 277 276 277 271 279 278 278 277 274 274 275 277 278 278 279 279 279 281 281 280 279 272 271 270 270 273 275 274 273 271 272 272 272 271 270 269 268 267 265 264 263 261 259 258 257
273 276 273 271 271 274 276 273 268 271 272 271 274 277 277 276 273 266 270 274 274 274 275 276 279 280 281 281 281 280 278 278 278 278 277 275 272 271 270 270 270 270 269 268 267 266 265 264 262 260 259 258 256 255

GFSWCAN_sfc_thetae_117.txt.gz
Theta_e
293 294 294 295 295 294 294 296 295 295 295 296 297 299 299 300 300 297 294 298 292 285 289 291 291 288 288 288 281 286 286 285 283 280 281 278 276 278 277 275 279 278 277 276 277 273 270 284 285 278 277 279 278 275
293 293 294 294 295 296 297 298 298 298 298 297 298 299 299 299 300 299 292 298 298 289 288 293 293 294 293 293 285 285 284 284 286 282 281 282 279 278 278 274 283 273 277 275 278 275 281 283 280 280 280 279 276 275
293 293 294 294 295 296 296 297 296 298 298 299 299 299 299 300 300 299 294 296 295 290 289 290 287 294 297 298 296 286 285 290 287 289 285 283 279 280 275 275 280 283 284 277 278 279 280 281 282 282 281 279 277 277
293 293 294 295 295 295 295 296 297 298 298 299 299 300 300 300 301 300 294 296 295 291 281 286 295 292 297 297 297 294 291 291 291 288 281 279 281 285 281 282 281 284 283 280 278 280 281 282 281 281 280 280 279 279
293 294 295 295 296 295 295 295 296 296 298 299 300 300 299 298 300 298 296 297 298 289 281 284 291 295 297 296 296 293 291 287 284 283 281 280 284 285 282 283 280 284 280 277 276 281 280 280 281 282 280 280 279 277
294 294 294 294 294 294 295 296 296 296 298 300 300 300 297 300 299 293 286 295 298 296 283 281 289 290 293 293 292 290 289 287 285 284 283 286 290 286 280 277 283 285 285 285 281 283 281 282 282 283 281 279 279 278
294 293 293 295 299 300 300 299 298 298 299 299 300 299 300 300 294 288 286 290 297 293 281 278 281 287 291 291 289 288 289 287 284 283 283 285 285 286 280 278 282 282 282 282 283 282 280 280 279 282 280 279 281 279
292 295 297 296 298 299 300 300 299 299 300 300 300 300 300 299 297 291 292 298 296 288 284 277 278 282 289 284 283 287 285 285 284 282 283 282 283 283 278 282 281 281 282 282 282 283 282 282 283 282 281 280 278 277
296 298 298 298 298 298 299 299 299 299 300 300 300 300 296 293 290 291 297 297 293 289 280 279 276 273 286 283 284 284 285 279 284 281 281 282 278 277 280 282 280 281 281 281 282 282 282 281 281 280 280 278 277 277
297 297 298 298 298 298 299 299 299 299 299 298 295 290 285 291 297 295 292 286 285 285 286 280 282 279 284 280 280 281 281 279 277 280 282 279 276 282 284 283 283 283 283 283 279 279 280 280 280 279 279 279 279 279
298 298 298 298 298 298 298 299 298 298 297 292 285 285 290 295 290 287 281 279 279 280 283 282 282 281 285 279 279 281 279 279 276 278 277 275 274 278 282 282 283 284 284 283 282 282 282 282 281 279 279 280 280 279
298 298 298 297 298 298 298 298 297 293 291 290 290 292 290 288 283 279 276 279 279 279 281 280 282 283 284 286 280 281 279 278 276 279 276 270 274 279 281 282 282 282 283 283 283 281 280 281 280 280 280 279 277 275
297 298 297 297 297 298 298 298 297 296 296 292 289 285 283 279 270 271 270 275 274 279 281 281 279 282 282 282 278 278 272 271 279 268 271 274 280 282 283 283 282 282 282 281 280 281 281 280 281 280 278 276 274 273
297 297 297 297 296 296 296 297 297 296 290 283 280 271 273 270 278 279 279 277 279 279 282 281 279 279 278 277 275 272 274 275 266 266 271 279 281 283 284 284 283 279 278 278 277 278 278 279 278 278 276 274 273 271
296 296 296 295 295 296 297 297 297 292 286 281 280 272 276 281 282 283 283 282 280 280 281 279 278 279 275 272 273 274 270 265 268 266 275 282 283 283 283 282 275 273 273 274 277 277 276 276 276 274 275 274 273 271
295 294 292 295 296 296 296 294 292 290 286 282 281 278 278 277 281 284 283 281 285 280 280 281 277 273 272 274 272 268 270 266 268 278 282 283 283 283 284 282 277 273 273 275 276 277 277 275 274 273 273 273 272 271
293 287 294 295 295 296 296 289 287 284 281 281 279 280 274 277 281 282 283 283 283 282 276 278 272 274 276 273 274 278 271 275 279 281 282 282 283 283 282 279 275 273 275 275 275 276 274 273 273 273 271 272 272 271
288 289 295 296 293 292 290 287 283 282 280 279 277 280 279 279 281 282 282 281 282 280 280 278 278 274 265 272 276 278 279 279 280 281 280 280 280 279 277 277 277 275 274 274 274 274 273 274 274 273 273 273 272 271
290 291 295 296 292 288 283 284 284 279 279 280 279 279 277 277 281 281 280 280 282 283 281 279 275 275 275 281 279 279 279 279 279 279 279 279 279 278 274 276 275 275 275 275 275 275 275 276 275 274 273 273 271 271
295 295 296 295 294 285 282 281 285 281 276 278 278 276 277 278 281 279 279 281 282 281 280 276 278 281 277 281 282 281 281 281 279 277 276 277 278 277 276 276 275 276 276 276 276 275 275 274 274 274 274 273 271 271
291 290 293 291 288 287 283 281 280 280 280 277 278 278 276 279 276 276 277 281 279 279 277 280 281 282 282 281 283 283 282 282 280 275 273 275 278 277 276 276 276 276 275 275 274 274 274 273 273 274 272 271 270 270
288 293 287 288 282 283 281 281 280 279 279 279 280 280 273 269 271 275 279 276 278 279 279 282 282 282 282 283 283 283 281 282 281 279 276 275 274 276 275 273 274 270 272 273 274 273 273 274 274 273 271 268 270 270
290 288 284 282 277 274 276 282 279 280 273 275 279 277 275 273 276 282 274 276 278 280 282 283 284 284 283 283 283 283 284 283 281 279 276 272 272 270 272 272 271 270 271 272 274 273 274 275 274 273 273 272 272 271
288 282 276 274 276 269 275 275 280 280 279 277 276 273 276 277 280 276 273 276 275 277 281 281 282 282 282 282 280 279 281 282 280 279 279 277 273 273 275 276 275 274 274 275 274 273 274 274 274 273 274 273 272 270
272 272 271 266 272 269 268 270 275 274 269 274 272 272 276 279 273 268 272 277 278 280 280 281 280 281 279 279 279 280 281 282 280 279 279 280 279 279 278 277 276 274 275 273 271 273 273 273 272 272 272 271 270 269
265 267 270 267 267 270 270 266 265 267 267 267 269 277 278 274 265 266 276 276 280 280 280 280 279 279 280 281 279 279 280 283 282 279 280 281 280 279 276 273 272 271 274 275 273 272 273 272 271 271 270 270 269 267
264 266 275 279 278 277 270 270 275 269 265 265 267 270 263 262 262 274 279 280 279 279 281 281 281 281 280 279 279 278 278 277 277 278 276 277 277 278 277 274 272 273 275 276 276 274 273 272 272 271 270 270 269 268
271 272 266 268 270 272 266 265 265 266 267 275 271 265 266 267 270 279 278 280 281 281 280 280 280 280 279 278 277 277 276 275 275 273 274 274 272 270 270 270 272 277 277 277 277 276 275 274 273 272 271 270 269 268
269 270 272 264 265 268 267 270 269 276 279 274 267 266 276 279 280 279 279 279 281 281 279 278 278 279 278 277 277 277 277 276 272 267 266 266 267 271 266 269 278 275 275 277 277 277 276 275 274 273 272 270 268 266
269 270 267 260 263 266 267 278 277 274 279 279 278 277 278 279 279 279 280 280 278 279 279 279 279 278 276 276 275 275 277 277 275 270 269 267 267 268 272 278 279 278 278 277 275 274 274 270 270 268 266 264 263 261
273 266 266 265 264 271 277 278 279 279 278 279 279 278 278 277 277 276 275 275 277 280 280 278 278 279 278 277 276 275 275 275 272 268 267 267 270 271 274 277 278 277 274 272 271 270 269 268 267 265 264 263 262 261
277 271 263 267 272 276 277 276 277 274 268 266 268 278 278 277 276 274 273 275 277 278 278 279 279 278 280 279 280 279 275 266 266 266 269 267 266 265 271 274 275 274 271 270 270 269 268 266 265 264 262 261 260 258
264 266 270 268 266 273 275 271 264 263 262 262 263 263 266 267 267 264 264 270 273 274 274 275 276 279 279 280 280 280 277 275 270 275 273 271 269 268 269 270 270 270 269 268 268 267 266 264 263 262 261 259 258 257

GFSWCAN_sfc_thetae_120.txt.gz
Theta_e
293 293 294 294 294 295 295 295 295 296 296 297 298 299 299 299 299 296 292 294 289 286 287 289 291 288 289 286 281 286 286 286 284 281 280 279 276 280 279 277 280 279 277 276 278 274 269 284 284 278 278 279 279 279
293 293 293 294 294 294 295 294 295 295 295 297 297 298 298 299 299 297 287 294 295 289 288 293 292 292 292 291 286 287 283 283 283 282 282 282 281 278 278 274 282 277 276 273 277 274 278 282 281 281 281 278 276 277
293 293 293 293 294 294 294 295 297 298 298 296 297 296 297 298 299 297 289 292 291 288 287 289 288 292 294 294 294 287 288 288 285 287 282 281 281 281 278 275 279 280 282 274 276 277 279 281 281 281 280 278 277 278
292 293 293 293 294 294 295 296 296 295 297 298 297 297 297 298 299 298 292 294 293 290 283 282 293 290 295 296 296 294 291 292 290 290 285 284 282 285 278 279 278 281 282 279 277 280 281 282 282 280 278 278 277 277
292 292 293 295 295 295 295 296 295 296 297 298 298 298 298 299 299 297 296 296 297 290 281 283 289 294 296 296 295 296 293 290 288 284 283 281 283 281 280 280 278 283 280 279 277 282 281 280 281 281 278 277 277 276
292 294 294 295 294 294 294 295 295 296 296 298 299 300 300 300 300 294 285 293 297 296 285 281 289 289 293 294 294 292 291 287 287 284 282 283 287 282 276 278 283 285 284 284 280 283 282 282 281 281 279 278 278 277
294 293 293 293 294 294 294 295 295 295 296 299 299 300 300 300 296 289 287 292 298 295 285 282 283 288 292 293 291 289 289 287 284 281 281 282 283 286 282 279 282 282 282 282 282 282 280 281 280 281 279 279 280 277
292 293 294 297 298 299 296 295 296 296 297 299 299 298 299 299 297 292 292 298 298 291 286 280 281 283 289 284 284 286 284 283 282 280 281 281 282 283 281 282 280 281 281 282 282 282 282 281 281 280 279 278 277 276
295 294 298 299 298 299 298 296 296 297 299 299 298 299 296 293 289 292 298 298 294 291 281 279 276 274 284 282 283 282 282 278 283 280 280 281 278 277 280 282 280 281 281 281 281 281 281 280 279 279 278 278 277 276
297 297 297 298 299 299 298 298 299 299 300 299 295 290 285 291 297 297 292 287 287 286 283 277 280 277 282 277 279 280 280 279 277 279 281 278 276 282 283 283 282 282 282 281 279 278 279 279 278 278 278 278 278 278
298 298 297 297 298 298 299 299 298 298 297 289 284 285 291 296 290 286 279 279 278 279 281 281 281 280 285 279 279 281 278 278 276 278 277 275 275 279 282 282 282 283 282 281 282 282 282 281 279 279 278 279 279 278
298 298 298 298 298 298 297 297 296 292 288 288 291 292 290 287 282 280 276 279 279 279 280 280 281 283 283 284 280 280 279 278 276 278 275 270 275 280 281 282 282 281 281 281 281 281 281 281 280 280 279 279 279 277
297 298 297 297 297 297 298 297 297 297 295 292 288 283 282 279 271 271 269 275 274 280 280 280 278 281 282 282 278 278 272 271 279 269 271 273 279 280 280 280 280 281 281 280 279 280 280 280 280 279 278 277 275 273
297 297 297 297 297 297 298 297 297 294 289 284 281 273 274 270 277 277 278 277 281 279 281 280 278 278 277 276 274 272 274 275 267 266 269 273 280 280 281 281 280 278 277 278 276 276 276 278 277 277 276 275 273 271
296 296 296 295 297 298 298 298 297 291 285 281 280 273 276 280 282 283 283 283 282 279 279 278 278 278 274 272 274 274 271 265 268 265 272 281 281 280 282 281 274 272 271 271 272 273 274 276 276 274 275 274 273 271
295 293 291 296 296 297 296 294 290 288 284 282 281 278 278 278 282 284 283 281 282 279 280 280 276 273 273 274 272 268 269 264 267 277 281 283 282 282 281 279 270 272 272 272 271 273 274 275 275 274 274 273 273 272
293 286 294 296 296 296 295 289 287 284 280 280 276 279 275 277 279 281 282 279 282 281 275 278 273 275 276 272 273 276 272 274 278 281 282 283 282 283 280 276 273 271 273 274 272 274 273 274 273 273 272 272 273 272
285 287 295 296 293 292 289 287 283 282 279 278 275 277 277 278 280 278 280 281 282 280 280 278 278 273 265 271 275 278 278 279 280 280 280 280 281 280 281 279 277 276 274 273 273 273 273 274 274 274 273 273 272 271
290 292 295 296 292 286 282 283 284 278 277 277 279 279 280 281 280 282 280 281 283 283 281 279 275 276 277 280 279 279 279 279 278 278 279 279 279 277 274 275 276 276 275 274 275 274 275 276 275 274 273 273 271 271
294 295 295 295 293 284 282 281 284 280 276 277 277 276 277 278 280 276 278 281 282 281 279 276 277 281 279 281 282 281 281 281 279 277 276 277 278 277 275 275 274 276 276 276 276 276 275 274 275 274 274 273 272 271
291 290 292 290 286 285 281 280 279 279 278 275 277 277 276 278 278 275 277 280 279 280 277 280 280 281 281 282 283 283 282 282 280 277 275 275 277 278 277 275 276 276 275 274 274 274 274 273 274 274 273 272 273 273
287 292 286 287 282 282 280 280 279 279 278 278 278 279 273 269 271 273 278 275 278 280 281 282 282 282 282 283 282 282 280 281 280 276 273 275 275 274 275 273 274 271 272 272 274 273 273 274 274 273 271 270 271 271
289 287 283 281 276 274 276 281 277 279 272 273 277 274 271 269 274 280 272 275 279 279 278 282 284 284 282 283 283 283 283 282 280 278 276 271 271 268 271 271 272 269 269 271 273 273 273 274 273 271 271 271 271 269
286 281 275 273 274 269 274 274 279 279 277 275 274 272 274 276 279 274 273 276 276 276 281 281 282 281 282 282 280 280 281 282 279 278 279 275 271 272 272 273 272 272 272 273 273 273 273 272 272 271 271 271 270 269
273 270 270 265 271 269 267 269 271 273 270 273 270 271 276 278 268 267 272 277 278 279 279 280 280 280 279 279 279 280 281 282 280 278 278 279 277 275 276 276 274 274 273 271 269 270 270 271 272 272 272 271 270 270
264 267 268 267 266 269 270 267 265 267 267 268 270 277 277 268 265 267 274 270 280 279 280 280 279 279 279 281 279 278 278 282 281 277 279 280 280 278 277 270 269 271 271 272 271 270 269 270 271 271 271 271 270 268
263 265 274 278 277 276 269 269 274 268 265 265 267 270 264 262 263 271 278 279 279 279 280 281 281 280 280 279 278 277 278 278 277 277 274 276 276 277 276 273 271 273 273 273 272 271 271 270 270 271 270 269 269 268
270 270 266 267 268 271 265 264 264 265 267 273 269 264 265 266 268 277 278 279 280 280 279 279 280 280 279 277 276 275 275 276 276 273 274 274 272 269 269 269 269 275 275 275 274 274 273 272 272 270 269 268 268 267
268 269 270 263 263 265 268 270 270 276 279 274 265 265 271 278 279 278 278 279 280 280 279 277 276 278 278 277 277 277 277 277 272 267 267 266 265 271 266 268 271 267 272 275 276 276 274 274 273 272 271 269 268 266
268 268 266 259 262 265 270 277 276 276 278 279 278 278 278 278 278 279 280 279 278 278 278 279 278 278 277 277 276 276 277 277 276 270 267 265 267 266 275 278 278 278 277 276 275 276 276 273 271 268 267 265 264 263
271 265 265 264 263 263 274 278 278 278 278 275 277 275 277 277 276 275 276 276 278 279 279 278 278 279 278 277 276 276 275 277 277 275 266 263 262 271 277 279 278 276 275 273 272 272 270 270 268 266 265 264 263 262
274 267 263 268 272 275 277 276 276 274 266 265 272 275 276 276 275 275 273 274 276 277 279 279 278 278 278 278 279 279 277 270 265 270 270 263 263 264 268 272 272 271 271 270 270 269 268 267 267 266 264 263 262 261
266 263 263 264 264 273 275 271 264 262 260 260 260 261 270 273 268 265 264 264 269 275 275 274 275 277 278 279 279 279 277 274 267 269 267 269 266 268 272 270 271 271 269 268 268 267 266 265 264 263 263 261 260 259

GFSWCAN_sfc_thetae_123.txt.gz
Theta_e
294 293 294 294 294 294 294 295 295 295 296 298 298 299 299 300 300 295 291 295 291 285 286 290 291 288 289 287 283 286 287 287 285 281 280 280 279 282 281 282 282 281 280 279 280 277 275 287 286 282 286 282 286 284
293 293 293 293 293 294 294 295 295 294 295 296 297 298 299 299 299 296 289 295 294 289 287 293 294 294 293 293 289 289 287 286 287 284 283 284 281 282 281 278 285 280 284 281 282 282 282 285 284 284 284 283 283 284
293 293 293 293 293 293 294 294 294 294 294 295 296 298 298 298 299 296 290 293 292 287 286 287 286 293 295 295 297 287 289 290 288 291 287 286 282 285 279 279 282 284 284 282 282 282 282 284 283 284 284 283 282 283
292 293 293 293 293 293 294 294 294 296 297 296 296 297 298 298 299 297 291 292 290 288 281 284 294 291 296 296 294 295 292 293 292 292 288 286 283 286 283 284 282 284 284 282 280 281 282 284 284 284 281 282 282 283
292 292 292 292 293 294 294 294 295 294 295 297 298 297 297 298 298 297 293 294 294 287 283 283 290 293 295 294 293 294 293 291 290 287 286 284 287 286 285 284 283 285 283 283 283 286 285 284 285 282 280 280 281 280
292 292 292 293 294 295 295 295 296 296 295 297 297 296 296 297 298 292 286 293 296 296 286 282 290 290 293 294 293 292 293 291 290 287 286 286 289 286 283 282 285 286 286 286 285 286 284 284 283 283 280 279 280 280
292 293 294 294 294 294 294 295 295 296 295 297 298 298 298 298 294 287 287 292 297 295 285 282 283 288 289 292 292 290 291 288 288 285 284 286 287 289 284 282 283 283 284 284 284 284 280 282 280 281 280 280 281 279
292 293 293 293 294 293 294 294 295 296 296 298 299 299 299 299 296 290 295 297 297 289 286 282 282 284 289 286 286 289 286 286 285 285 285 285 286 287 283 283 282 282 283 283 284 284 284 283 282 280 280 279 278 277
293 294 296 298 297 296 295 294 294 296 297 299 299 299 296 292 287 291 299 299 296 290 284 282 280 279 287 285 286 285 285 282 285 283 284 284 282 281 283 283 281 282 283 282 282 282 282 281 280 279 279 279 278 277
298 298 298 299 299 298 295 295 296 297 299 298 294 287 284 291 299 298 292 286 287 287 286 281 282 282 285 283 283 284 283 282 281 283 284 283 282 283 284 285 284 284 283 283 280 279 280 279 279 279 279 280 279 278
298 298 297 297 296 297 297 297 298 299 297 291 287 285 292 297 290 286 283 282 282 281 283 283 283 283 286 283 282 283 281 281 278 281 281 279 280 282 284 283 285 284 284 284 284 284 283 282 280 280 279 280 279 279
297 298 298 298 298 299 299 298 297 293 291 290 292 293 289 286 284 280 277 280 280 280 282 282 283 285 285 286 284 283 280 281 277 281 279 276 279 282 283 283 284 284 284 283 284 283 283 282 281 280 280 279 279 278
297 297 297 297 297 298 298 298 298 297 296 292 288 283 283 281 273 273 270 276 277 282 282 283 282 283 284 284 281 281 277 276 281 276 276 278 281 282 283 283 282 283 283 282 282 283 282 282 282 281 280 279 277 275
296 297 298 298 298 297 298 298 297 294 291 284 282 276 276 273 277 277 279 279 283 281 283 283 280 282 281 279 277 277 277 277 274 273 274 278 281 282 283 283 283 281 280 280 280 279 278 278 277 278 278 277 275 273
296 296 296 297 298 298 298 297 296 291 286 282 281 274 277 281 283 283 284 284 283 283 282 282 281 281 278 276 277 276 274 272 273 273 277 281 282 281 280 280 277 276 274 275 276 275 275 276 276 276 276 276 275 273
295 293 292 297 297 298 297 293 291 290 285 283 281 279 280 280 282 283 283 282 284 282 283 283 279 277 276 276 275 272 273 270 273 277 282 284 283 283 280 278 275 274 275 274 275 276 275 274 275 275 275 275 274 274
293 286 294 297 297 296 295 288 287 284 282 280 278 279 277 279 280 281 282 282 284 283 279 280 275 276 278 275 274 276 274 277 280 282 283 284 284 283 279 274 273 274 275 276 275 276 275 275 275 275 273 274 274 274
286 288 295 297 293 291 288 286 283 282 279 278 277 278 279 281 281 280 281 282 283 283 282 280 280 275 272 273 275 279 279 280 281 281 281 282 283 282 281 278 276 278 277 275 276 275 275 275 275 275 275 274 274 273
291 292 296 296 291 285 283 283 284 278 279 279 280 280 280 281 282 282 281 283 284 284 283 281 277 277 278 280 280 280 280 281 280 279 279 280 280 280 280 280 279 278 277 277 277 277 277 278 277 276 275 274 273 274
294 294 294 294 291 283 281 281 284 280 276 278 278 279 280 280 281 280 282 283 283 282 280 278 278 281 281 281 283 282 282 281 280 278 278 278 279 278 278 278 278 278 277 277 277 277 277 276 276 275 275 275 274 273
290 290 291 289 284 284 281 280 279 280 279 277 278 279 278 280 279 278 279 282 280 280 278 281 281 282 282 283 284 283 282 283 281 281 279 277 278 279 278 278 278 278 277 277 276 276 276 276 275 276 275 275 275 274
287 292 285 285 282 282 281 281 280 280 279 279 279 280 276 274 277 277 280 278 278 280 281 281 283 283 283 282 282 283 282 282 280 278 278 278 277 277 277 277 277 276 276 276 277 276 276 276 276 275 274 274 274 274
288 287 282 282 277 275 276 281 278 279 273 274 278 275 274 273 276 280 274 278 279 282 283 284 284 285 283 283 283 283 283 282 280 279 277 277 277 276 277 276 276 275 275 275 276 276 275 275 274 273 273 273 273 271
285 280 273 272 274 269 274 273 279 279 277 276 275 272 274 273 278 274 274 277 278 279 282 283 283 282 283 283 281 281 282 282 280 279 279 277 276 276 276 276 276 276 276 276 276 275 274 274 272 273 273 272 271 271
273 270 270 265 271 269 267 269 270 272 269 272 271 271 276 277 270 269 273 278 280 281 281 282 282 282 281 281 281 282 282 282 280 280 280 279 278 277 276 277 277 276 276 274 274 274 273 273 273 272 272 272 271 271
264 267 268 267 266 269 270 266 265 267 269 268 271 277 276 269 267 269 275 277 280 281 281 281 281 280 280 281 280 281 281 283 282 281 280 281 280 278 277 275 275 275 276 276 274 273 272 272 272 272 272 271 271 271
263 265 274 278 277 276 269 269 274 269 266 268 270 269 267 264 266 272 279 280 280 281 281 282 281 281 281 280 279 279 279 280 280 280 278 280 280 281 280 277 275 278 276 275 275 274 273 272 273 273 272 273 272 271
269 270 266 267 268 271 265 264 264 265 268 273 271 266 266 268 271 277 279 280 281 280 280 279 280 281 281 279 277 277 277 278 277 276 277 278 276 276 277 277 276 274 277 276 276 275 274 274 274 273 272 272 271 271
268 269 270 263 263 266 272 270 271 276 279 274 267 267 271 278 280 279 280 280 281 280 279 278 278 279 279 279 279 279 279 279 277 274 274 274 275 278 274 274 275 275 276 276 275 276 275 275 274 274 273 272 271 270
268 269 266 261 262 266 270 276 277 277 279 279 279 278 278 278 279 280 280 280 279 279 280 280 279 279 278 278 277 278 279 279 279 276 274 273 275 274 277 278 277 277 277 277 277 277 277 275 273 271 269 268 268 266
271 266 265 265 264 265 272 276 279 278 278 278 278 277 278 278 278 277 278 279 280 280 279 279 279 279 279 278 278 277 276 279 279 278 275 272 271 276 279 280 279 279 278 277 276 274 273 272 271 270 268 267 266 266
265 263 265 265 266 270 277 276 276 275 268 271 275 273 274 275 275 277 275 276 277 278 280 280 279 279 281 281 281 281 279 277 274 277 275 272 272 277 277 276 274 275 274 274 273 272 272 271 269 269 268 267 266 266
266 265 264 263 266 273 274 272 267 267 269 266 265 265 273 276 273 271 267 267 275 279 280 280 279 279 280 281 281 281 278 278 271 273 271 270 268 275 276 274 273 272 271 271 272 271 270 269 268 268 267 266 265 264

GFSWCAN_sfc_thetae_126.txt.gz
Theta_e
294 294 294 294 294 294 294 294 294 295 295 297 298 299 299 300 300 299 297 301 295 291 291 293 293 291 292 292 287 290 290 290 288 283 282 282 282 284 283 286 284 283 282 281 282 279 277 291 290 284 291 290 293 293
293 293 293 293 293 293 294 294 295 295 294 296 297 299 300 301 299 299 294 300 301 294 292 296 296 297 296 296 293 293 289 290 292 287 287 287 284 286 285 280 289 282 288 285 285 286 290 293 291 291 291 291 292 292
293 293 293 293 293 293 293 294 294 294 293 294 297 299 299 300 299 298 297 298 296 292 291 292 290 296 299 299 302 291 293 294 292 297 290 289 284 288 283 284 286 290 292 287 285 290 289 291 291 291 291 291 292 292
292 292 293 293 293 293 293 293 294 294 295 295 295 298 299 299 299 298 295 298 295 291 285 287 296 293 297 299 299 300 297 297 296 294 289 287 286 292 287 288 287 289 290 288 287 288 288 290 292 292 289 290 290 290
292 292 292 292 293 293 293 294 294 294 294 296 295 297 298 299 299 300 300 299 298 290 284 287 293 297 298 298 296 298 297 294 292 289 287 285 290 289 289 288 287 290 288 287 287 292 292 291 293 291 288 288 289 288
292 292 292 292 293 293 294 295 295 295 295 296 297 296 298 299 298 297 287 297 300 298 289 282 294 293 296 296 295 294 294 292 292 289 289 292 292 287 285 285 290 293 291 291 291 292 289 290 290 290 288 288 288 287
292 293 293 293 293 293 294 295 295 296 295 296 298 298 298 298 299 292 289 295 298 298 287 284 285 290 293 293 293 293 295 291 290 287 288 290 288 290 289 284 290 290 290 290 291 289 285 287 285 287 286 286 287 287
293 293 294 294 294 294 294 295 294 295 294 295 297 298 297 298 296 292 298 298 300 292 290 283 284 285 289 286 285 290 286 288 288 289 288 287 289 291 285 288 288 288 288 288 288 288 288 288 286 285 285 284 283 283
294 293 293 294 294 294 294 294 295 295 296 297 297 298 297 293 290 292 298 298 298 293 284 285 282 281 287 288 288 289 290 285 288 286 289 289 288 285 287 288 287 288 287 287 287 287 287 285 284 284 283 283 282 282
297 298 297 296 295 295 294 294 295 296 297 298 296 291 286 291 298 298 292 286 285 287 286 284 287 284 288 289 287 287 288 286 283 287 290 288 287 288 288 290 290 288 288 288 284 283 284 283 283 283 283 284 284 283
297 298 299 298 297 296 295 295 296 298 297 293 289 286 293 298 292 288 285 283 284 283 287 287 286 286 291 287 285 289 286 286 281 285 285 284 284 287 288 289 289 289 289 288 288 288 288 287 284 283 283 283 283 283
298 297 297 296 295 296 296 297 297 296 295 293 291 292 290 289 287 282 282 284 283 283 287 287 288 291 290 292 289 288 284 286 278 289 284 281 284 286 287 287 288 288 288 287 287 287 287 286 286 285 283 282 282 282
298 298 298 298 298 299 298 298 297 297 297 295 291 286 287 284 279 278 276 280 282 287 288 290 287 291 290 292 287 286 282 281 287 283 281 283 285 286 287 287 287 287 287 286 286 286 286 285 285 284 282 283 281 279
298 298 298 298 298 298 298 298 298 298 294 288 284 278 280 279 281 282 284 285 285 289 290 291 288 289 288 285 284 281 281 283 279 277 278 284 285 286 287 287 286 285 285 285 284 284 283 282 282 283 281 280 278 276
297 298 298 297 298 298 297 297 297 296 291 284 284 277 280 283 284 284 287 287 286 290 290 288 287 288 284 282 283 281 278 277 279 280 282 285 286 286 285 286 284 283 282 282 282 281 281 281 280 280 280 280 279 277
295 296 294 297 297 297 296 296 296 295 290 285 284 282 285 284 284 285 285 285 290 289 289 289 284 282 280 281 278 277 277 276 280 284 286 285 285 285 285 284 284 283 283 282 282 281 281 279 280 280 280 279 278 277
295 293 295 297 296 295 295 295 293 287 285 283 282 284 284 285 284 285 285 288 291 290 285 285 280 277 283 279 277 281 280 282 284 284 286 286 286 285 284 282 280 281 282 282 282 282 281 281 280 279 278 278 279 278
294 295 296 297 296 294 294 292 288 286 281 284 283 283 285 285 285 286 287 289 290 289 288 283 285 279 278 276 279 283 283 284 284 284 284 285 286 285 284 283 281 282 282 281 282 281 280 280 280 281 280 279 278 278
294 295 295 295 295 292 288 288 289 281 282 284 285 286 286 285 287 287 288 289 290 290 288 286 281 281 281 284 284 284 283 284 284 283 283 283 285 284 284 283 283 283 282 281 281 283 283 282 283 282 281 279 279 278
294 294 294 293 294 290 284 285 291 285 282 284 286 285 286 285 286 286 288 288 288 287 283 281 282 284 285 286 287 286 286 285 284 283 282 283 283 284 284 284 285 282 282 281 282 282 282 281 281 281 281 280 279 278
294 294 293 294 292 290 286 285 284 285 285 284 285 285 284 286 285 285 285 287 285 283 282 284 285 285 286 286 286 286 285 285 284 285 284 282 283 284 283 284 283 283 283 283 282 282 281 282 281 280 280 280 281 280
291 292 291 291 287 287 285 287 285 286 285 284 284 285 283 283 283 284 285 284 282 282 284 285 286 286 284 284 284 285 284 284 283 283 282 283 282 282 281 283 283 282 283 283 283 282 282 282 281 280 280 280 279 279
291 290 288 286 282 282 281 287 282 282 279 280 282 279 280 281 283 285 282 282 282 284 285 285 287 288 286 285 285 285 285 284 283 284 284 285 285 284 283 282 284 282 281 282 283 282 281 280 279 280 279 278 278 277
288 283 280 280 281 278 281 280 283 281 282 280 279 276 278 281 283 282 279 283 282 283 284 284 286 285 285 285 284 283 284 285 284 284 283 283 283 283 284 283 283 283 283 283 281 281 279 279 278 278 278 277 276 275
280 277 279 276 279 278 277 277 277 278 276 277 275 276 279 282 278 278 278 282 282 284 285 286 286 286 285 285 285 286 285 285 283 283 284 285 284 283 282 282 282 283 283 281 279 278 278 277 278 277 277 277 276 275
274 277 277 277 278 277 277 275 276 276 276 275 276 280 280 278 274 275 280 283 284 284 284 285 285 284 284 285 285 285 286 287 287 285 285 285 284 284 282 281 280 281 282 283 281 279 277 277 277 276 276 276 275 276
273 276 280 282 280 280 279 279 279 278 275 275 278 277 276 272 274 278 283 284 284 285 286 286 285 284 284 285 285 286 287 287 286 285 286 286 286 286 286 283 281 284 284 282 281 281 279 277 277 276 276 276 276 276
278 277 275 278 278 279 276 276 275 275 277 278 278 274 273 274 277 282 284 285 285 285 284 284 284 285 286 286 286 284 283 283 282 283 284 284 284 285 284 285 284 280 283 282 282 281 280 279 278 277 277 276 276 277
278 278 278 272 274 276 277 276 277 278 281 279 278 277 277 281 284 283 283 284 284 283 282 282 283 284 283 283 284 284 284 283 282 280 280 281 281 282 283 282 282 282 282 281 279 280 280 280 279 279 278 277 277 276
276 278 277 271 272 275 279 281 281 283 282 282 282 282 282 283 284 284 284 284 282 282 283 284 283 283 282 282 281 281 283 284 283 282 281 281 282 283 281 281 281 281 281 281 280 279 278 278 277 277 276 275 275 274
278 278 276 276 276 279 280 282 283 282 282 281 283 281 281 283 284 284 284 284 284 283 282 282 282 283 282 282 282 281 280 283 282 282 282 282 281 280 281 282 281 281 282 281 280 279 278 277 277 276 275 274 273 272
278 276 276 274 277 279 281 280 279 279 279 279 279 281 281 280 279 283 283 283 282 281 281 282 282 282 284 285 285 285 283 284 283 282 280 281 281 281 282 281 281 281 280 280 280 279 278 278 277 276 275 274 273 272
275 275 274 275 276 275 278 277 275 274 276 275 276 277 279 280 278 283 277 278 283 283 283 284 285 285 285 285 285 284 283 284 280 280 279 279 280 280 281 281 281 280 279 279 279 278 277 276 276 275 274 273 272 272